[[{"header":{"parameterUnit":"m.s-1","parameterCategory":1,"la1":31.0,"la2":29.5877,"lo1":-88.7671,"lo2":-86.6584,"dy":0.0162,"dx":0.0185,"nx":115,"ny":88,"refTime":"2026-04-29T12:00:00:Z","depth":0,"parameterNumber":2,"parameterNumberName":"U-component_of_WINDS"},"data":[0.0,0.0,0.0,0.0,0.0,0.0,0.0,0.0,0.0,0.0,0.0,0.0,0.0,0.0,0.0,0.0,0.0,0.0,0.0,0.0,0.0,0.0,0.0,0.0,0.0,0.0,0.0,0.0,0.0,0.0,0.0,0.0,0.0,0.0,0.0,0.0,0.0,0.0,0.0,0.0,0.0,0.0,0.0,0.0,0.0,0.0,0.0,0.0,0.0,0.0,0.0,0.0,0.0,0.0,0.0,0.0,0.0,0.0,0.0,0.0,0.0,0.0,0.0,0.0,0.0,0.0,0.0,0.0,0.0,0.0,0.0,0.0,0.0,0.0,0.0,0.0,0.0,0.0,0.0,0.0,0.0,0.0,0.0,0.0,0.0,0.0,0.0,0.0,0.0,0.0,0.0,0.0,0.0,0.0,0.0,0.0,0.0,0.0,0.0,0.0,0.0,0.0,0.0,0.0,0.0,0.0,0.0,0.0,0.0,0.0,0.0,0.0,0.0,0.0,0.0,0.0,0.0,0.0,0.0,0.0,0.0,0.0,0.0,0.0,0.0,0.0,0.0,0.0,0.0,0.0,0.0,0.0,0.0,0.0,0.0,0.0,0.0,0.0,0.0,0.0,0.0,0.0,0.0,0.0,0.0,0.0,0.0,0.0,0.0,0.0,0.0,0.0,0.0,0.0,0.0,0.0,0.0,0.0,0.0,0.0,0.0,0.0,0.0,0.0,0.0,0.0,0.0,0.0,0.0,0.0,0.0,0.0,0.0,0.0,0.0,0.0,0.0,0.0,0.0,0.0,0.0,0.0,0.0,0.0,0.0,0.0,0.0,0.0,0.0,0.0,0.0,0.0,0.0,0.0,0.0,0.0,0.0,0.0,0.0,0.0,0.0,0.0,0.0,0.0,0.0,0.0,0.0,0.0,0.0,0.0,0.0,0.0,0.0,0.0,0.0,0.0,0.0,0.0,0.0,0.0,0.0,0.0,0.0,0.0,0.0,0.0,0.0,0.0,0.0,0.0,0.0,0.0,0.0,0.0,0.0,0.0,0.0,0.0,0.0,0.0,0.0,0.0,0.0,0.0,0.0,0.0,0.0,0.0,0.0,0.0,0.0,0.0,0.0,0.0,0.0,0.0,0.0,0.0,0.0,0.0,0.0,0.0,0.0,0.0,0.0,0.0,0.0,0.0,0.0,0.0,0.0,0.0,0.0,0.0,0.0,0.0,0.0,0.0,0.0,0.0,0.0,0.0,0.0,0.0,0.0,0.0,0.0,0.0,0.0,0.0,0.0,0.0,0.0,0.0,0.0,0.0,0.0,0.0,0.0,0.0,0.0,0.0,0.0,0.0,0.0,0.0,0.0,0.0,0.0,0.0,0.0,0.0,0.0,0.0,0.0,0.0,0.0,0.0,0.0,0.0,0.0,0.0,0.0,0.0,0.0,0.0,0.0,0.0,0.0,0.0,0.0,0.0,0.0,0.0,0.0,0.0,0.0,0.0,0.0,0.0,0.0,0.0,0.0,0.0,0.0,0.0,0.0,0.0,0.0,0.0,0.0,0.0,0.0,0.0,0.0,0.0,0.0,0.0,0.0,0.0,0.0,0.0,0.0,0.0,0.0,0.0,0.0,0.0,0.0,0.0,0.0,0.0,0.0,0.0,0.0,0.0,0.0,0.0,0.0,0.0,0.0,0.0,0.0,0.0,0.0,0.0,0.0,0.0,0.0,0.0,0.0,0.0,0.0,0.0,0.0,0.0,0.0,0.0,0.0,0.0,0.0,0.0,0.0,0.0,0.0,0.0,0.0,0.0,0.0,0.0,0.0,0.0,0.0,0.0,0.0,0.0,0.0,0.0,0.0,0.0,0.0,0.0,0.0,0.0,0.0,0.0,0.0,0.0,0.0,0.0,0.0,0.0,0.0,0.0,0.0,0.0,0.0,0.0,0.0,0.0,0.0,0.0,0.0,0.0,0.0,0.0,0.0,0.0,0.0,0.0,0.0,0.0,0.0,0.0,0.0,0.0,0.0,0.0,0.0,0.0,0.0,0.0,0.0,0.0,0.0,0.0,0.0,0.0,0.0,0.0,0.0,0.0,0.0,0.0,0.0,0.0,0.0,0.0,0.0,0.0,0.0,0.0,0.0,0.0,0.0,0.0,0.0,0.0,0.0,0.0,0.0,0.0,0.0,0.0,0.0,0.0,0.0,0.0,0.0,0.0,0.0,0.0,0.0,0.0,0.0,0.0,0.0,0.0,0.0,0.0,0.0,0.0,0.0,0.0,0.0,0.0,0.0,0.0,0.0,0.0,0.0,0.0,0.0,0.0,0.0,0.0,0.0,0.0,0.0,0.0,0.0,0.0,0.0,0.0,0.0,0.0,0.0,0.0,0.0,0.0,0.0,0.0,0.0,0.0,0.0,0.0,0.0,0.0,0.0,0.0,0.0,0.0,0.0,0.0,0.0,0.0,0.0,0.0,0.0,0.0,0.0,0.0,0.0,0.0,0.0,0.0,0.0,0.0,0.0,0.0,0.0,0.0,0.0,0.0,0.0,0.0,0.0,0.0,0.0,0.0,0.0,0.0,0.0,0.0,0.0,0.0,0.0,0.0,0.0,0.0,0.0,0.0,0.0,0.0,0.0,0.0,0.0,0.0,0.0,0.0,0.0,0.0,0.0,0.0,0.0,0.0,0.0,0.0,0.0,0.0,0.0,0.0,0.0,0.0,0.0,0.0,0.0,0.0,0.0,0.0,0.0,0.0,0.0,0.0,0.0,0.0,0.0,0.0,0.0,0.0,0.0,0.0,0.0,0.0,0.0,0.0,0.0,0.0,0.0,0.0,0.0,0.0,0.0,0.0,0.0,0.0,0.0,0.0,0.0,0.0,0.0,0.0,0.0,0.0,0.0,0.0,0.0,0.0,0.0,0.0,0.0,0.0,0.0,0.0,0.0,0.0,0.0,0.0,0.0,0.0,0.0,0.0,0.0,0.0,0.0,0.0,0.0,0.0,0.0,0.0,0.0,0.0,0.0,0.0,0.0,0.0,0.0,0.0,0.0,0.0,0.0,0.0,0.0,0.0,0.0,0.0,0.0,0.0,0.0,0.0,0.0,0.0,0.0,0.0,0.0,0.0,0.0,0.0,0.0,0.0,0.0,0.0,0.0,0.0,0.0,0.0,0.0,0.0,0.0,0.0,0.0,0.0,0.0,0.0,0.0,0.0,0.0,0.0,0.0,0.0,0.0,0.0,0.0,0.0,0.0,0.0,0.0,0.0,0.0,0.0,0.0,0.0,0.0,0.0,0.0,0.0,0.0,0.0,0.0,0.0,0.0,0.0,0.0,0.0,0.0,0.0,0.0,0.0,0.0,0.0,0.0,0.0,0.0,0.0,0.0,0.0,0.0,0.0,0.0,0.0,0.0,0.0,0.0,0.0,0.0,0.0,0.0,0.0,0.0,0.0,0.0,0.0,0.0,0.0,0.0,0.0,0.0,0.0,0.0,0.0,0.0,0.0,0.0,0.0,0.0,0.0,0.0,0.0,0.0,0.0,0.0,0.0,0.0,0.0,0.0,0.0,0.0,0.0,0.0,0.0,0.0,0.0,0.0,0.0,0.0,0.0,0.0,0.0,0.0,0.0,0.0,0.0,0.0,0.0,0.0,0.0,0.0,0.0,0.0,0.0,0.0,0.0,0.0,0.0,0.0,0.0,0.0,0.0,0.0,0.0,0.0,0.0,0.0,0.0,0.0,0.0,0.0,0.0,0.0,0.0,0.0,0.0,0.0,0.0,0.0,0.0,0.0,0.0,0.0,0.0,0.0,0.0,0.0,0.0,0.0,0.0,0.0,0.0,0.0,0.0,0.0,0.0,0.0,0.0,0.0,0.0,0.0,0.0,0.0,0.0,0.0,0.0,0.0,0.0,0.0,0.0,0.0,0.0,0.0,0.0,0.0,0.0,0.0,0.0,0.0,0.0,0.0,0.0,0.0,0.0,0.0,0.0,0.0,0.0,0.0,0.0,0.0,0.0,0.0,0.0,0.0,0.0,0.0,0.0,0.0,0.0,0.0,0.0,0.0,0.0,0.0,0.0,0.0,0.0,0.0,0.0,0.0,0.0,0.0,0.0,0.0,0.0,0.0,0.0,0.0,0.0,0.0,0.0,0.0,0.0,0.0,0.0,0.0,0.0,0.0,0.0,0.0,0.0,0.0,0.0,0.0,0.0,0.0,0.0,0.0,0.0,0.0,0.0,0.0,0.0,0.0,0.0,0.0,0.0,0.0,0.0,3.0432,0.0,0.0,0.0,0.0,0.0,0.0,0.0,0.0,0.0,0.0,0.0,0.0,0.0,0.0,0.0,0.0,0.0,0.0,0.0,0.0,0.0,0.0,0.0,0.0,0.0,0.0,0.0,0.0,0.0,0.0,0.0,0.0,0.0,0.0,0.0,0.0,0.0,0.0,0.0,0.0,0.0,0.0,0.0,0.0,0.0,0.0,0.0,0.0,0.0,0.0,0.0,0.0,0.0,0.0,0.0,0.0,0.0,0.0,0.0,0.0,0.0,0.0,0.0,0.0,0.0,0.0,0.0,0.0,0.0,0.0,0.0,0.0,0.0,0.0,0.0,0.0,0.0,0.0,0.0,0.0,0.0,0.0,0.0,0.0,0.0,0.0,0.0,0.0,0.0,0.0,0.0,0.0,0.0,0.0,0.0,0.0,0.0,0.0,0.0,0.0,0.0,0.0,0.0,0.0,0.0,0.0,0.0,0.0,0.0,0.0,3.4023,3.4023,3.3395,3.2258,3.0552,0.0,0.0,0.0,0.0,0.0,0.0,0.0,0.0,0.0,0.0,0.0,0.0,0.0,0.0,0.0,0.0,0.0,0.0,0.0,0.0,0.0,0.0,0.0,0.0,0.0,0.0,0.0,0.0,0.0,0.0,0.0,0.0,0.0,0.0,0.0,0.0,0.0,0.0,0.0,0.0,0.0,0.0,0.0,0.0,0.0,0.0,0.0,0.0,0.0,0.0,0.0,0.0,0.0,0.0,0.0,0.0,0.0,0.0,0.0,0.0,0.0,0.0,0.0,0.0,0.0,0.0,0.0,0.0,0.0,0.0,0.0,0.0,0.0,0.0,0.0,0.0,0.0,0.0,0.0,0.0,0.0,0.0,0.0,0.0,0.0,0.0,0.0,0.0,0.0,0.0,0.0,0.0,0.0,0.0,0.0,0.0,0.0,0.0,0.0,0.0,0.0,0.0,0.0,0.0,0.0,0.0,0.0,0.0,0.0,0.0,0.0,0.0,3.4292,3.2946,3.0821,0.0,0.0,0.0,0.0,0.0,0.0,0.0,0.0,0.0,0.0,0.0,0.0,0.0,0.0,0.0,0.0,0.0,0.0,0.0,0.0,0.0,0.0,0.0,0.0,0.0,0.0,0.0,0.0,0.0,0.0,0.0,0.0,0.0,0.0,0.0,0.0,0.0,0.0,0.0,0.0,0.0,0.0,0.0,0.0,0.0,0.0,0.0,0.0,0.0,0.0,0.0,0.0,0.0,0.0,0.0,0.0,0.0,0.0,0.0,0.0,0.0,0.0,0.0,0.0,0.0,0.0,0.0,0.0,0.0,0.0,0.0,0.0,0.0,0.0,0.0,0.0,0.0,0.0,0.0,0.0,0.0,0.0,0.0,0.0,0.0,0.0,0.0,0.0,0.0,0.0,0.0,0.0,0.0,0.0,0.0,0.0,0.0,0.0,0.0,0.0,0.0,0.0,0.0,0.0,0.0,0.0,0.0,0.0,0.0,0.0,3.5102,3.6237,3.5639,0.0,3.16,0.0,0.0,0.0,0.0,0.0,0.0,0.0,0.0,0.0,0.0,0.0,0.0,0.0,0.0,0.0,0.0,0.0,0.0,0.0,0.0,0.0,0.0,0.0,0.0,0.0,0.0,0.0,0.0,0.0,0.0,0.0,0.0,0.0,0.0,0.0,0.0,0.0,0.0,0.0,0.0,0.0,0.0,0.0,0.0,0.0,0.0,0.0,0.0,0.0,0.0,0.0,0.0,0.0,0.0,0.0,0.0,0.0,0.0,0.0,0.0,0.0,0.0,0.0,0.0,0.0,0.0,0.0,0.0,0.0,0.0,0.0,0.0,0.0,0.0,0.0,0.0,0.0,0.0,0.0,0.0,0.0,0.0,0.0,0.0,0.0,0.0,0.0,0.0,0.0,0.0,0.0,0.0,0.0,0.0,0.0,0.0,0.0,0.0,0.0,0.0,0.0,0.0,0.0,0.0,0.0,0.0,0.0,0.0,0.0,0.0,3.5743,3.6313,3.4618,3.2975,0.0,0.0,0.0,0.0,0.0,0.0,0.0,0.0,0.0,0.0,0.0,0.0,0.0,0.0,0.0,0.0,0.0,0.0,0.0,0.0,0.0,0.0,0.0,0.0,0.0,0.0,0.0,0.0,0.0,0.0,0.0,0.0,0.0,0.0,0.0,0.0,0.0,0.0,0.0,0.0,0.0,0.0,0.0,0.0,0.0,0.0,0.0,0.0,0.0,0.0,0.0,0.0,0.0,0.0,0.0,0.0,0.0,0.0,0.0,0.0,0.0,0.0,0.0,0.0,0.0,0.0,0.0,0.0,0.0,0.0,0.0,0.0,0.0,0.0,0.0,0.0,0.0,0.0,0.0,0.0,0.0,0.0,0.0,0.0,0.0,0.0,0.0,0.0,0.0,0.0,0.0,0.0,0.0,0.0,0.0,0.0,0.0,0.0,0.0,0.0,0.0,0.0,0.0,0.0,0.0,0.0,0.0,0.0,0.0,0.0,3.5785,3.6111,3.6022,3.4322,3.2575,3.0984,0.0,0.0,0.0,0.0,0.0,0.0,0.0,0.0,0.0,0.0,0.0,0.0,0.0,0.0,0.0,0.0,0.0,0.0,0.0,0.0,0.0,0.0,0.0,0.0,0.0,0.0,0.0,0.0,0.0,0.0,0.0,0.0,0.0,0.0,0.0,0.0,0.0,0.0,0.0,0.0,0.0,0.0,0.0,0.0,0.0,0.0,0.0,0.0,0.0,0.0,0.0,0.0,0.0,0.0,0.0,0.0,0.0,0.0,0.0,0.0,0.0,0.0,0.0,0.0,0.0,0.0,0.0,0.0,0.0,0.0,0.0,0.0,0.0,0.0,0.0,0.0,0.0,0.0,0.0,0.0,0.0,0.0,0.0,0.0,0.0,0.0,0.0,0.0,0.0,0.0,0.0,0.0,0.0,0.0,0.0,0.0,0.0,0.0,0.0,0.0,0.0,0.0,0.0,0.0,0.0,0.0,0.0,0.0,0.0,3.5751,3.6077,3.5967,3.5623,3.3779,0.0,0.0,0.0,0.0,0.0,0.0,0.0,0.0,0.0,0.0,0.0,0.0,0.0,0.0,0.0,0.0,0.0,0.0,0.0,0.0,0.0,0.0,0.0,0.0,0.0,0.0,0.0,0.0,0.0,0.0,0.0,0.0,0.0,0.0,0.0,0.0,0.0,0.0,0.0,0.0,0.0,0.0,0.0,0.0,0.0,0.0,0.0,0.0,0.0,0.0,0.0,0.0,0.0,0.0,0.0,0.0,0.0,0.0,0.0,0.0,0.0,0.0,0.0,0.0,0.0,0.0,0.0,0.0,0.0,0.0,0.0,0.0,0.0,0.0,0.0,0.0,0.0,0.0,0.0,0.0,0.0,0.0,0.0,0.0,0.0,0.0,0.0,0.0,0.0,0.0,0.0,0.0,0.0,0.0,0.0,0.0,0.0,0.0,0.0,0.0,0.0,0.0,0.0,0.0,0.0,0.0,0.0,0.0,0.0,3.4286,3.4845,3.5561,3.6396,3.3607,3.1338,0.0,0.0,0.0,0.0,0.0,0.0,0.0,0.0,0.0,0.0,0.0,0.0,0.0,0.0,0.0,0.0,0.0,0.0,0.0,0.0,0.0,0.0,0.0,0.0,0.0,0.0,0.0,0.0,0.0,0.0,0.0,0.0,0.0,0.0,0.0,0.0,0.0,0.0,0.0,0.0,0.0,0.0,0.0,0.0,0.0,0.0,0.0,0.0,0.0,0.0,0.0,0.0,0.0,0.0,0.0,0.0,0.0,0.0,0.0,0.0,0.0,0.0,0.0,0.0,0.0,0.0,0.0,0.0,0.0,0.0,0.0,0.0,0.0,0.0,0.0,0.0,0.0,0.0,0.0,0.0,0.0,0.0,0.0,0.0,0.0,0.0,0.0,0.0,0.0,0.0,0.0,0.0,0.0,0.0,0.0,0.0,0.0,0.0,0.0,0.0,0.0,0.0,0.0,0.0,0.0,0.0,0.0,0.0,0.0,3.4089,0.0,3.5003,0.0,3.2069,2.9713,0.0,0.0,0.0,0.0,0.0,0.0,0.0,0.0,0.0,0.0,0.0,0.0,0.0,0.0,0.0,0.0,0.0,0.0,0.0,0.0,0.0,0.0,0.0,0.0,0.0,0.0,0.0,0.0,0.0,0.0,0.0,0.0,0.0,0.0,0.0,0.0,0.0,0.0,0.0,0.0,0.0,0.0,0.0,0.0,0.0,0.0,0.0,0.0,0.0,0.0,0.0,0.0,0.0,0.0,0.0,0.0,0.0,0.0,0.0,0.0,0.0,0.0,0.0,0.0,0.0,0.0,0.0,0.0,0.0,0.0,0.0,0.0,0.0,0.0,0.0,0.0,0.0,0.0,0.0,0.0,0.0,0.0,0.0,0.0,0.0,0.0,0.0,0.0,0.0,0.0,0.0,0.0,0.0,0.0,0.0,0.0,0.0,0.0,0.0,0.0,0.0,0.0,0.0,0.0,0.0,0.0,0.0,0.0,3.258,3.4235,3.4986,3.4384,3.2264,3.1315,2.9248,0.0,0.0,0.0,0.0,0.0,0.0,0.0,0.0,0.0,0.0,0.0,0.0,0.0,0.0,0.0,0.0,0.0,0.0,0.0,0.0,0.0,0.0,0.0,0.0,0.0,0.0,0.0,0.0,0.0,0.0,0.0,0.0,0.0,0.0,0.0,0.0,0.0,0.0,0.0,0.0,0.0,0.0,0.0,0.0,0.0,0.0,0.0,0.0,0.0,0.0,0.0,0.0,0.0,0.0,0.0,0.0,0.0,0.0,0.0,0.0,0.0,0.0,0.0,0.0,0.0,0.0,0.0,0.0,0.0,0.0,0.0,0.0,0.0,0.0,0.0,0.0,0.0,0.0,0.0,0.0,0.0,0.0,0.0,0.0,0.0,0.0,0.0,0.0,0.0,0.0,0.0,0.0,0.0,0.0,0.0,0.0,0.0,0.0,0.0,0.0,0.0,0.0,0.0,0.0,0.0,0.0,0.0,0.0,0.0,3.2745,3.3242,3.3516,3.3436,3.0558,2.8486,0.0,0.0,0.0,0.0,0.0,0.0,0.0,0.0,0.0,0.0,0.0,0.0,0.0,0.0,0.0,0.0,0.0,0.0,0.0,0.0,0.0,0.0,0.0,0.0,0.0,0.0,0.0,0.0,0.0,0.0,0.0,0.0,0.0,0.0,0.0,0.0,0.0,0.0,0.0,0.0,0.0,0.0,0.0,0.0,0.0,0.0,0.0,0.0,0.0,0.0,0.0,0.0,0.0,0.0,0.0,0.0,0.0,0.0,0.0,0.0,0.0,0.0,0.0,0.0,0.0,0.0,0.0,0.0,0.0,0.0,0.0,0.0,0.0,0.0,0.0,0.0,0.0,0.0,0.0,0.0,0.0,0.0,0.0,0.0,0.0,0.0,0.0,0.0,0.0,0.0,0.0,0.0,0.0,0.0,0.0,0.0,0.0,0.0,0.0,0.0,0.0,0.0,0.0,0.0,0.0,0.0,0.0,0.0,0.0,3.2488,3.3275,3.3707,3.381,3.0708,2.8649,2.777,0.0,0.0,0.0,0.0,0.0,0.0,0.0,0.0,0.0,0.0,0.0,0.0,0.0,0.0,0.0,0.0,0.0,0.0,0.0,0.0,0.0,0.0,0.0,0.0,0.0,0.0,0.0,0.0,0.0,0.0,0.0,0.0,0.0,0.0,0.0,0.0,0.0,0.0,0.0,0.0,0.0,0.0,0.0,0.0,0.0,0.0,0.0,0.0,0.0,0.0,0.0,0.0,0.0,0.0,0.0,0.0,0.0,0.0,0.0,0.0,0.0,0.0,0.0,0.0,0.0,0.0,0.0,0.0,0.0,0.0,0.0,0.0,0.0,0.0,0.0,0.0,0.0,0.0,0.0,0.0,0.0,0.0,0.0,0.0,0.0,0.0,0.0,0.0,0.0,0.0,0.0,0.0,0.0,0.0,0.0,0.0,0.0,0.0,0.0,0.0,0.0,0.0,0.0,0.0,0.0,0.0,0.0,0.0,3.3169,3.4756,3.4901,3.3363,3.1612,2.9679,0.0,0.0,0.0,0.0,0.0,0.0,0.0,0.0,0.0,0.0,0.0,0.0,0.0,0.0,0.0,0.0,0.0,0.0,0.0,0.0,0.0,0.0,0.0,0.0,0.0,0.0,0.0,0.0,0.0,0.0,0.0,0.0,0.0,0.0,0.0,0.0,0.0,0.0,0.0,0.0,0.0,0.0,0.0,0.0,0.0,0.0,0.0,0.0,0.0,0.0,0.0,0.0,0.0,0.0,0.0,0.0,0.0,0.0,0.0,0.0,0.0,0.0,0.0,0.0,0.0,0.0,0.0,0.0,0.0,0.0,0.0,0.0,0.0,0.0,0.0,0.0,0.0,0.0,0.0,0.0,0.0,0.0,0.0,0.0,0.0,0.0,0.0,0.0,0.0,0.0,0.0,0.0,0.0,0.0,0.0,0.0,0.0,0.0,0.0,0.0,0.0,0.0,0.0,0.0,0.0,0.0,0.0,0.0,0.0,3.4299,3.6307,3.6759,3.555,3.3093,3.116,0.0,0.0,0.0,0.0,0.0,0.0,0.0,0.0,0.0,0.0,0.0,0.0,0.0,0.0,0.0,0.0,0.0,0.0,0.0,0.0,0.0,0.0,0.0,0.0,0.0,0.0,0.0,0.0,0.0,0.0,0.0,0.0,0.0,0.0,0.0,0.0,0.0,0.0,0.0,0.0,0.0,0.0,0.0,0.0,0.0,0.0,0.0,0.0,0.0,0.0,0.0,0.0,0.0,0.0,0.0,0.0,0.0,0.0,0.0,0.0,0.0,0.0,0.0,0.0,0.0,0.0,0.0,0.0,0.0,0.0,0.0,0.0,0.0,0.0,0.0,0.0,0.0,0.0,0.0,0.0,0.0,0.0,0.0,0.0,0.0,0.0,0.0,0.0,0.0,0.0,0.0,0.0,0.0,0.0,0.0,0.0,0.0,0.0,0.0,0.0,0.0,0.0,0.0,0.0,0.0,0.0,0.0,0.0,3.3972,3.5403,3.7563,3.8291,3.7486,3.4951,3.2767,0.0,0.0,0.0,0.0,0.0,0.0,0.0,0.0,0.0,0.0,0.0,0.0,0.0,0.0,0.0,0.0,0.0,0.0,0.0,0.0,0.0,0.0,0.0,0.0,0.0,0.0,0.0,0.0,0.0,0.0,0.0,0.0,0.0,0.0,0.0,0.0,0.0,0.0,0.0,0.0,0.0,0.0,0.0,0.0,0.0,0.0,0.0,0.0,0.0,0.0,0.0,0.0,0.0,0.0,0.0,0.0,0.0,0.0,0.0,0.0,0.0,0.0,0.0,0.0,0.0,0.0,0.0,0.0,0.0,0.0,0.0,0.0,0.0,0.0,0.0,0.0,0.0,0.0,0.0,0.0,0.0,0.0,0.0,0.0,0.0,0.0,0.0,0.0,0.0,0.0,0.0,0.0,0.0,0.0,0.0,0.0,0.0,0.0,0.0,0.0,0.0,0.0,0.0,0.0,0.0,0.0,0.0,0.0,3.5328,3.648,3.8567,3.9446,3.8969,3.6686,3.4229,0.0,0.0,0.0,0.0,0.0,0.0,0.0,0.0,0.0,0.0,0.0,0.0,0.0,0.0,0.0,0.0,0.0,0.0,0.0,0.0,0.0,0.0,0.0,0.0,0.0,0.0,0.0,0.0,0.0,0.0,0.0,0.0,0.0,0.0,0.0,0.0,0.0,0.0,0.0,0.0,0.0,0.0,0.0,0.0,0.0,0.0,0.0,0.0,0.0,0.0,0.0,0.0,0.0,0.0,0.0,0.0,0.0,0.0,0.0,0.0,0.0,0.0,0.0,0.0,0.0,0.0,0.0,0.0,0.0,0.0,0.0,0.0,0.0,0.0,0.0,0.0,0.0,0.0,0.0,0.0,0.0,0.0,0.0,0.0,0.0,0.0,0.0,0.0,0.0,0.0,0.0,0.0,0.0,0.0,0.0,0.0,0.0,0.0,0.0,0.0,0.0,0.0,0.0,0.0,0.0,0.0,0.0,0.0,3.5906,3.7059,3.8768,3.9647,3.9496,3.6887,3.4379,0.0,0.0,0.0,0.0,0.0,0.0,0.0,0.0,0.0,0.0,0.0,0.0,0.0,0.0,0.0,0.0,0.0,0.0,0.0,0.0,0.0,0.0,0.0,0.0,0.0,0.0,0.0,0.0,0.0,0.0,0.0,0.0,0.0,0.0,0.0,0.0,0.0,0.0,0.0,0.0,0.0,0.0,0.0,0.0,0.0,0.0,0.0,0.0,2.362,0.0,0.0,0.0,0.0,0.0,0.0,0.0,0.0,0.0,0.0,0.0,0.0,0.0,0.0,0.0,0.0,0.0,0.0,0.0,0.0,0.0,0.0,0.0,0.0,0.0,0.0,0.0,0.0,0.0,0.0,0.0,0.0,0.0,0.0,0.0,0.0,0.0,0.0,0.0,0.0,0.0,0.0,0.0,0.0,0.0,0.0,0.0,0.0,0.0,0.0,0.0,0.0,0.0,0.0,0.0,0.0,0.0,0.0,0.0,3.516,3.7489,3.7873,3.8198,3.845,3.611,3.4113,0.0,0.0,0.0,0.0,0.0,0.0,0.0,0.0,0.0,0.0,0.0,0.0,0.0,0.0,0.0,0.0,0.0,0.0,0.0,0.0,0.0,0.0,0.0,0.0,0.0,0.0,0.0,0.0,0.0,0.0,0.0,0.0,0.0,0.0,0.0,0.0,0.0,0.0,0.0,0.0,0.0,0.0,0.0,0.0,0.0,0.0,0.0,0.0,0.0,0.0,0.0,0.0,0.0,0.0,0.0,0.0,0.0,0.0,0.0,0.0,0.0,0.0,0.0,0.0,0.0,0.0,0.0,0.0,0.0,0.0,0.0,0.0,0.0,0.0,0.0,0.0,0.0,0.0,0.0,0.0,0.0,0.0,0.0,0.0,0.0,0.0,0.0,0.0,0.0,0.0,0.0,0.0,0.0,0.0,0.0,0.0,0.0,0.0,0.0,0.0,0.0,0.0,0.0,0.0,0.0,0.0,0.0,3.2486,3.4215,3.7517,3.6638,3.637,3.6896,3.4881,3.3332,3.25,0.0,0.0,0.0,0.0,0.0,0.0,0.0,0.0,0.0,0.0,0.0,0.0,0.0,0.0,0.0,0.0,0.0,0.0,0.0,0.0,0.0,0.0,0.0,0.0,0.0,0.0,0.0,0.0,0.0,0.0,0.0,0.0,0.0,0.0,0.0,0.0,0.0,0.0,2.3941,2.4259,0.0,0.0,0.0,0.0,0.0,0.0,0.0,0.0,2.2863,0.0,0.0,0.0,0.0,0.0,0.0,0.0,0.0,0.0,0.0,0.0,0.0,0.0,0.0,0.0,0.0,0.0,0.0,0.0,0.0,0.0,0.0,0.0,0.0,0.0,0.0,0.0,0.0,0.0,0.0,0.0,0.0,0.0,0.0,0.0,0.0,0.0,0.0,0.0,0.0,0.0,0.0,0.0,0.0,0.0,0.0,0.0,0.0,0.0,0.0,0.0,0.0,0.0,0.0,0.0,0.0,3.3473,3.3123,3.407,3.6377,3.5894,3.5573,3.5458,3.3874,3.2002,2.991,0.0,0.0,0.0,0.0,0.0,0.0,0.0,0.0,0.0,0.0,0.0,0.0,0.0,0.0,0.0,0.0,0.0,0.0,0.0,0.0,0.0,0.0,0.0,0.0,0.0,0.0,0.0,0.0,0.0,0.0,0.0,0.0,0.0,0.0,0.0,0.0,0.0,0.0,0.0,2.4143,2.4135,0.0,0.0,0.0,0.0,0.0,0.0,0.0,0.0,2.2026,0.0,0.0,0.0,0.0,0.0,0.0,0.0,0.0,0.0,0.0,0.0,0.0,0.0,0.0,0.0,0.0,0.0,0.0,0.0,0.0,0.0,0.0,0.0,0.0,0.0,0.0,0.0,0.0,0.0,0.0,0.0,0.0,0.0,0.0,0.0,0.0,0.0,0.0,0.0,0.0,0.0,0.0,0.0,0.0,0.0,0.0,0.0,0.0,0.0,0.0,0.0,0.0,0.0,0.0,0.0,3.1785,3.1528,3.2723,3.5435,3.4032,3.3378,3.3558,3.1489,2.9332,0.0,0.0,0.0,0.0,0.0,0.0,0.0,0.0,0.0,0.0,0.0,0.0,0.0,0.0,0.0,0.0,0.0,0.0,0.0,0.0,0.0,0.0,0.0,0.0,0.0,0.0,0.0,0.0,0.0,0.0,0.0,0.0,0.0,0.0,0.0,0.0,0.0,0.0,0.0,0.0,2.3872,2.3942,2.447,0.0,0.0,0.0,0.0,0.0,0.0,2.2077,2.1996,0.0,0.0,0.0,0.0,0.0,0.0,0.0,0.0,0.0,0.0,0.0,0.0,0.0,0.0,0.0,0.0,0.0,0.0,0.0,0.0,0.0,0.0,0.0,0.0,0.0,0.0,0.0,0.0,0.0,0.0,0.0,0.0,0.0,0.0,0.0,0.0,0.0,0.0,0.0,0.0,0.0,0.0,0.0,0.0,0.0,0.0,0.0,0.0,0.0,0.0,0.0,0.0,0.0,0.0,0.0,2.9738,2.9695,3.1114,3.394,3.203,3.1105,3.1545,2.9034,2.6976,0.0,0.0,0.0,0.0,0.0,0.0,0.0,0.0,0.0,0.0,0.0,0.0,0.0,0.0,0.0,0.0,0.0,0.0,0.0,0.0,0.0,0.0,0.0,0.0,0.0,0.0,0.0,0.0,0.0,0.0,0.0,0.0,0.0,0.0,0.0,0.0,0.0,0.0,0.0,0.0,0.0,2.3881,2.4435,2.3978,0.0,0.0,0.0,0.0,2.1977,2.1739,0.0,0.0,0.0,0.0,0.0,0.0,0.0,0.0,0.0,0.0,0.0,0.0,0.0,0.0,0.0,0.0,0.0,0.0,0.0,0.0,0.0,0.0,0.0,0.0,0.0,0.0,0.0,0.0,0.0,0.0,0.0,0.0,0.0,0.0,0.0,0.0,0.0,0.0,0.0,0.0,0.0,0.0,0.0,0.0,0.0,0.0,0.0,0.0,0.0,0.0,0.0,0.0,0.0,0.0,0.0,0.0,2.829,2.8796,2.9663,3.0915,3.0322,2.9862,2.9707,2.789,2.6355,0.0,0.0,0.0,0.0,0.0,0.0,0.0,0.0,0.0,0.0,0.0,0.0,0.0,0.0,0.0,0.0,0.0,0.0,0.0,0.0,0.0,0.0,0.0,0.0,0.0,0.0,0.0,0.0,0.0,0.0,0.0,0.0,0.0,0.0,0.0,0.0,0.0,0.0,0.0,0.0,0.0,2.3865,2.3186,2.3465,2.3411,0.0,0.0,2.1244,2.0898,2.0253,0.0,0.0,0.0,0.0,0.0,0.0,0.0,0.0,0.0,0.0,0.0,0.0,0.0,0.0,0.0,0.0,0.0,0.0,0.0,0.0,0.0,0.0,0.0,0.0,0.0,0.0,0.0,0.0,0.0,0.0,0.0,0.0,0.0,0.0,0.0,0.0,0.0,0.0,0.0,0.0,0.0,0.0,0.0,0.0,0.0,0.0,0.0,0.0,0.0,0.0,0.0,0.0,0.0,0.0,0.0,2.5727,2.6475,2.8076,2.9186,2.9839,2.9461,2.9233,2.9144,2.6979,2.554,0.0,0.0,0.0,0.0,0.0,0.0,0.0,0.0,0.0,0.0,0.0,0.0,0.0,0.0,0.0,0.0,0.0,0.0,0.0,0.0,0.0,0.0,0.0,0.0,0.0,0.0,0.0,0.0,0.0,0.0,0.0,0.0,0.0,0.0,0.0,0.0,0.0,0.0,0.0,0.0,0.0,0.0,2.2456,2.3023,0.0,0.0,0.0,2.144,2.0416,0.0,0.0,0.0,0.0,0.0,0.0,0.0,0.0,0.0,0.0,0.0,0.0,0.0,0.0,0.0,0.0,0.0,0.0,0.0,0.0,0.0,0.0,0.0,0.0,0.0,0.0,0.0,0.0,0.0,0.0,0.0,0.0,0.0,0.0,0.0,0.0,0.0,0.0,0.0,0.0,0.0,0.0,0.0,0.0,0.0,0.0,0.0,0.0,0.0,0.0,0.0,0.0,0.0,0.0,0.0,0.0,0.0,2.5137,2.7491,2.8715,2.8661,2.8423,2.8314,2.8276,2.5888,0.0,0.0,0.0,0.0,0.0,0.0,0.0,0.0,0.0,0.0,0.0,0.0,0.0,0.0,0.0,0.0,0.0,0.0,0.0,0.0,0.0,0.0,0.0,0.0,0.0,0.0,0.0,1.6706,0.0,0.0,0.0,0.0,0.0,0.0,0.0,0.0,0.0,0.0,0.0,0.0,0.0,0.0,2.1887,2.1695,2.2225,2.2179,0.0,0.0,2.1071,1.9729,1.9462,1.898,0.0,0.0,0.0,0.0,0.0,0.0,0.0,0.0,0.0,0.0,0.0,0.0,0.0,0.0,0.0,0.0,0.0,0.0,0.0,0.0,0.0,0.0,0.0,0.0,0.0,0.0,0.0,0.0,0.0,0.0,0.0,0.0,0.0,0.0,0.0,0.0,0.0,0.0,0.0,0.0,0.0,0.0,0.0,0.0,0.0,0.0,0.0,0.0,0.0,0.0,0.0,0.0,0.0,0.0,0.0,2.4815,2.7094,2.7783,2.6736,2.6682,2.6682,2.6609,2.4368,2.3435,0.0,0.0,0.0,0.0,0.0,0.0,0.0,0.0,0.0,0.0,0.0,0.0,0.0,0.0,0.0,0.0,0.0,0.0,0.0,0.0,0.0,0.0,0.0,0.0,0.0,0.0,0.0,0.0,0.0,0.0,0.0,0.0,0.0,0.0,0.0,0.0,0.0,0.0,0.0,0.0,0.0,2.1773,2.0639,2.0852,2.1096,0.0,0.0,1.8985,1.8629,1.8473,1.7878,1.6389,0.0,0.0,0.0,0.0,0.0,0.0,0.0,0.0,0.0,0.0,0.0,0.0,0.0,0.0,0.0,0.0,0.0,0.0,0.0,0.0,0.0,0.0,0.0,0.0,0.0,0.0,0.0,0.0,0.0,0.0,0.0,0.0,0.0,0.0,0.0,0.0,0.0,0.0,0.0,0.0,0.0,0.0,0.0,0.0,0.0,0.0,0.0,0.0,0.0,0.0,0.0,0.0,0.0,2.3607,2.3505,2.5167,2.5827,2.5406,2.5388,2.5406,2.5388,2.3859,2.28,0.0,0.0,0.0,0.0,0.0,0.0,0.0,0.0,0.0,0.0,0.0,0.0,0.0,0.0,0.0,0.0,0.0,0.0,0.0,0.0,0.0,0.0,0.0,0.0,0.0,0.0,0.0,0.0,1.6617,1.6492,1.6138,0.0,0.0,0.0,0.0,0.0,0.0,0.0,0.0,0.0,0.0,1.9698,1.9526,2.0055,0.0,0.0,1.9297,1.8977,1.8133,1.7766,1.7236,1.6274,1.6206,0.0,0.0,0.0,0.0,0.0,0.0,0.0,0.0,0.0,0.0,0.0,0.0,0.0,0.0,0.0,0.0,0.0,0.0,0.0,0.0,0.0,0.0,0.0,0.0,0.0,0.0,0.0,0.0,0.0,0.0,0.0,0.0,0.0,0.0,0.0,0.0,0.0,0.0,0.0,0.0,0.0,0.0,0.0,0.0,0.0,0.0,0.0,0.0,0.0,0.0,0.0,0.0,2.2913,2.2851,2.407,2.4505,2.4172,2.4189,2.4172,2.4156,2.2943,2.1991,0.0,0.0,0.0,0.0,0.0,0.0,0.0,0.0,0.0,0.0,0.0,0.0,0.0,0.0,0.0,0.0,0.0,0.0,0.0,0.0,0.0,0.0,0.0,0.0,0.0,0.0,0.0,0.0,1.637,1.6007,1.5462,0.0,0.0,0.0,0.0,0.0,0.0,0.0,0.0,0.0,0.0,1.7917,1.8117,1.859,1.8659,1.7756,1.8424,1.8644,1.7729,1.7171,1.6624,1.5893,0.0,0.0,0.0,0.0,0.0,0.0,0.0,0.0,0.0,0.0,0.0,0.0,0.0,0.0,0.0,0.0,0.0,0.0,0.0,0.0,0.0,0.0,0.0,0.0,0.0,0.0,0.0,0.0,0.0,0.0,2.0844,0.0,0.0,0.0,0.0,0.0,0.0,0.0,0.0,0.0,0.0,0.0,0.0,0.0,0.0,0.0,0.0,0.0,0.0,0.0,0.0,0.0,0.0,2.2869,2.3269,2.4139,2.4117,2.3087,2.303,2.303,2.303,2.1526,2.088,2.1117,0.0,0.0,0.0,0.0,0.0,0.0,0.0,0.0,0.0,0.0,0.0,0.0,0.0,0.0,0.0,0.0,0.0,0.0,0.0,0.0,0.0,0.0,0.0,0.0,0.0,0.0,1.5902,1.4797,1.3807,0.0,0.0,0.0,0.0,0.0,0.0,0.0,0.0,0.0,0.0,1.6692,1.6636,1.6429,1.6392,1.6405,1.6343,1.7167,1.7691,1.729,1.6689,1.5974,0.0,0.0,0.0,0.0,0.0,0.0,0.0,0.0,0.0,0.0,0.0,0.0,0.0,0.0,0.0,0.0,0.0,0.0,0.0,0.0,0.0,0.0,0.0,0.0,0.0,0.0,0.0,2.1227,2.0601,0.0,0.0,0.0,0.0,0.0,0.0,0.0,0.0,0.0,0.0,0.0,2.1274,2.1462,0.0,0.0,0.0,0.0,0.0,0.0,0.0,0.0,0.0,0.0,0.0,0.0,2.0801,2.1213,2.1922,2.2199,2.1816,2.1816,2.1816,2.1816,2.1107,2.0178,1.8982,0.0,0.0,0.0,0.0,0.0,0.0,0.0,0.0,0.0,0.0,0.0,0.0,0.0,0.0,0.0,0.0,0.0,0.0,0.0,0.0,0.0,0.0,0.0,0.0,0.0,1.4934,0.0,0.0,0.0,0.0,0.0,0.0,0.0,0.0,0.0,0.0,0.0,1.3967,1.4526,1.4917,1.5149,1.5303,1.5305,1.5305,0.0,0.0,0.0,0.0,0.0,0.0,0.0,0.0,0.0,0.0,0.0,0.0,0.0,0.0,1.0608,1.1188,1.1427,1.1584,1.1657,0.0,0.0,0.0,0.0,0.0,0.0,0.0,0.0,0.0,0.0,0.0,0.0,0.0,0.0,2.0764,0.0,2.0321,0.0,0.0,0.0,0.0,0.0,0.0,0.0,0.0,2.0633,2.1308,2.2004,2.2127,2.2332,0.0,2.2231,2.1123,0.0,0.0,0.0,0.0,0.0,0.0,0.0,0.0,1.9962,2.0304,2.0868,2.1203,2.1203,2.1203,2.0974,2.0558,1.9681,1.859,1.7105,1.6013,1.5055,0.0,0.0,0.0,0.0,0.0,0.0,0.0,0.0,0.0,0.0,0.0,0.0,0.0,0.0,0.0,0.0,0.0,0.0,0.0,0.0,0.0,0.0,0.0,1.3579,0.0,0.0,0.0,0.0,0.0,0.0,0.0,0.0,0.0,1.3333,1.2991,1.2873,1.3565,1.3708,1.3798,1.401,0.0,0.0,0.0,0.0,0.0,0.0,0.0,1.3449,1.3508,1.3032,1.2688,1.2699,1.2069,1.136,1.0897,0.0,0.0,1.077,1.0992,1.1128,1.1206,1.1304,1.1209,1.0822,1.0694,1.0538,0.0,0.0,0.0,0.0,0.0,0.0,0.0,0.0,2.1627,2.1394,0.0,2.1003,0.0,0.0,0.0,0.0,0.0,2.0146,0.0,0.0,2.2369,2.2883,2.2591,2.2374,2.2047,2.1764,2.1744,2.0917,1.947,2.019,0.0,0.0,0.0,0.0,0.0,0.0,2.0257,2.0632,2.0988,2.1146,2.1089,2.1146,2.05,1.9248,1.7503,1.6294,1.5725,1.4925,1.4064,1.3168,1.2758,0.0,0.0,0.0,0.0,0.0,0.0,0.0,0.0,0.0,0.0,0.0,0.0,0.0,0.0,0.0,0.0,0.0,0.0,0.0,0.0,1.2103,0.0,0.0,0.0,0.0,0.0,0.0,0.0,0.0,0.0,0.0,1.3115,1.3231,1.3352,1.3659,0.0,0.0,0.0,0.0,1.264,1.27,1.3559,1.4172,1.4184,1.3307,1.2603,1.2389,0.0,0.0,1.0412,1.0452,1.0508,1.0365,1.0272,1.0216,1.0095,1.0486,1.0794,1.0992,1.0737,1.0512,1.0404,0.9753,0.9143,2.0642,0.0,0.0,0.0,0.0,2.0196,2.0519,2.0341,2.0341,2.0048,1.9569,1.9174,0.0,0.0,0.0,0.0,0.0,0.0,1.9535,2.0266,2.1638,2.249,2.2879,2.2794,2.2589,2.2349,2.1888,2.1318,2.0648,2.0453,1.9821,1.8879,0.0,0.0,0.0,0.0,1.9338,1.9705,2.0424,2.0486,1.9853,1.9853,1.9261,1.7969,1.7094,1.6434,1.6054,1.5223,1.4469,1.3838,1.3126,0.0,0.0,0.0,0.0,0.0,0.0,0.0,0.0,0.0,0.0,0.0,0.0,0.0,0.0,0.0,0.0,0.0,0.0,0.0,1.169,1.1325,1.1057,0.0,0.0,0.0,0.0,0.0,0.0,0.0,0.0,0.0,1.2085,1.1843,1.1674,0.0,0.0,1.1629,1.1629,1.1629,1.1678,1.1845,0.0,0.0,0.0,1.1924,1.1609,1.154,1.1298,1.1019,1.0764,1.0283,1.0068,1.0435,1.003,0.9828,1.0304,1.0279,1.0264,1.0277,1.0238,1.0028,0.9684,0.9394,0.9233,1.9937,2.0026,1.9784,1.9274,1.873,1.9555,1.9903,1.9773,1.9739,1.9473,1.9096,1.8867,1.8055,1.6857,1.6293,0.0,0.0,0.0,1.8611,1.9338,2.0358,2.1122,2.159,2.1499,2.1224,2.0978,2.0477,1.9939,1.941,1.8987,1.835,1.7514,0.0,0.0,1.7513,1.7474,1.7605,1.7801,1.8634,1.8784,1.8202,1.7664,1.7079,1.6304,1.547,1.488,1.4587,1.3944,1.339,1.3018,1.2278,1.1748,0.0,0.0,0.0,0.0,0.0,0.0,0.0,0.0,0.0,0.0,0.0,1.0968,1.0278,0.0,0.0,0.0,1.0407,1.072,1.0942,1.0452,0.0,0.0,0.0,0.0,0.0,0.0,0.0,1.1395,1.1071,1.0896,1.1151,1.103,1.0956,1.1075,1.1093,1.1143,1.1244,0.0,1.134,1.1614,1.1463,1.1169,1.0777,1.0527,1.0297,1.0002,0.9953,0.9919,0.9769,0.9348,0.9123,0.9164,0.8942,0.8902,0.9366,0.9592,0.9857,1.0048,1.0051,0.9852,0.9403,0.9318,0.9318,1.9155,1.8838,1.8228,1.8319,1.8914,1.8839,1.9063,1.953,1.9382,1.9261,1.9217,1.9195,1.8539,1.7423,1.671,0.0,1.6892,1.7302,1.7796,1.8384,1.8789,1.9152,1.9426,1.9107,1.8777,1.8481,1.8239,1.7708,1.6936,1.6749,1.628,1.5693,1.6677,1.6876,1.6357,1.5821,1.5502,1.5558,1.6194,1.6421,1.6362,1.5074,1.448,1.4401,1.3153,1.2387,1.206,1.1757,1.1485,1.1283,1.0747,1.0263,0.9839,0.0,0.0,0.0,0.0,0.0,0.0,0.0,0.0,0.0,0.0,0.0,0.0,0.0,0.0,0.0,0.954,0.0,0.9849,0.9623,0.0,0.0,0.0,1.0042,0.9297,1.0081,1.0405,0.9877,0.0,0.0,1.0434,0.0,1.0854,1.0871,1.0897,1.1036,1.1295,1.1234,1.1295,1.1432,1.1286,1.0694,0.9505,0.9164,0.8803,0.8216,0.7925,0.8018,0.8011,0.7869,0.767,0.7453,0.7407,0.7614,0.7662,0.85,0.9381,0.9786,0.9997,0.99,0.9431,0.9318,0.9318,1.7279,1.7193,1.6892,1.6898,1.7344,1.8498,1.8461,1.7486,1.7362,1.7014,1.6494,1.633,1.5759,1.4806,1.4605,1.4649,1.4973,1.6126,1.6854,1.7171,1.8272,1.8807,1.885,1.8692,1.8335,1.8024,1.7974,1.7733,1.7374,1.7151,1.6776,1.6241,1.5524,1.5161,1.53,1.5552,1.5726,1.5715,1.6012,1.5784,1.5074,1.3775,1.3122,1.2976,1.2494,1.2126,1.1942,1.1696,1.1485,1.1291,1.0878,1.0477,1.0175,0.9313,0.0,0.0,0.0,0.0,0.0,0.0,0.0,0.0,0.0,0.9021,0.8402,0.0,0.8977,0.0,0.9072,0.9355,0.9763,0.9587,0.0,0.0,0.978,0.9853,0.9531,0.9887,1.0078,0.9921,1.0095,1.0294,1.0382,1.0473,1.0572,1.0696,1.0852,1.0932,1.0984,1.0256,0.9779,0.992,0.9109,0.8228,0.8011,0.7805,0.7564,0.7422,0.7372,0.7372,0.7372,0.6874,0.6625,0.7024,0.6758,0.6679,0.7168,0.7453,0.7502,0.7729,0.8997,1.0061,0.945,0.9277,0.9318,1.6584,1.6568,1.6462,1.651,1.6704,1.7396,1.7128,1.6338,1.6182,1.5951,1.5507,1.5319,1.4877,1.4367,1.4205,1.4188,1.4359,1.5156,1.5574,1.5745,1.6432,1.6764,1.6678,1.6563,1.6391,1.611,1.6015,1.592,1.5796,1.5596,1.5329,1.5005,1.4179,1.3816,1.388,1.3992,1.4023,1.4013,1.4083,1.3882,1.3435,1.2707,1.2218,1.2031,1.1844,1.1614,1.1351,1.0718,1.0485,1.079,1.0038,0.9551,0.9262,0.8629,0.7988,0.0,0.0,0.0,0.0,0.0,0.0,0.0,0.0,0.0,0.0,0.0,0.8344,0.8956,0.8776,0.894,0.981,0.981,0.9805,0.9896,0.9969,0.9945,0.9894,1.0011,1.0103,1.0049,1.0168,1.0322,1.042,1.0501,1.0582,1.068,1.0787,1.0875,1.0867,1.0014,0.9343,0.9467,0.8327,0.7147,0.6591,0.5866,0.5477,0.5727,0.5777,0.5777,0.5777,0.5432,0.5181,0.5377,0.5231,0.5231,0.5677,0.6223,0.648,0.6547,0.7589,0.8527,0.8472,0.8828,0.9145,1.6649,1.6649,1.6625,1.6617,1.6576,1.6081,1.5861,1.5829,1.5658,1.5569,1.5528,1.5187,1.5025,1.4984,1.4676,1.4521,1.4497,1.4497,1.4497,1.4497,1.4473,1.4391,1.4245,1.4196,1.4091,1.3928,1.3758,1.3606,1.3669,1.349,1.3303,1.31,1.3068,1.2889,1.2532,1.2077,1.1833,1.1809,1.1809,1.1874,1.1987,1.1809,1.1614,1.1435,1.1099,1.0795,1.0453,0.9219,0.8916,0.9698,0.8711,0.8069,0.7885,0.7539,0.6839,0.0,0.5522,0.0,0.0,0.0,0.0,0.0,0.0,0.0,0.0,0.7233,0.7809,0.9217,0.8527,0.8578,0.9937,1.0135,1.0212,1.0212,1.0212,1.0204,1.0188,1.0196,1.0204,1.018,1.029,1.0396,1.0404,1.055,1.0655,1.0615,1.0702,1.0694,1.0647,0.9709,0.9002,0.9173,0.7933,0.6215,0.517,0.4034,0.3481,0.388,0.4017,0.3874,0.3981,0.392,0.377,0.3428,0.3682,0.393,0.3883,0.488,0.5485,0.5359,0.5974,0.674,0.7375,0.8082,0.8702,1.7006,1.6998,1.686,1.6803,1.6779,1.6535,1.6341,1.6194,1.6016,1.5861,1.5707,1.5504,1.5333,1.5187,1.5114,1.5,1.4871,1.4862,1.4862,1.4862,1.4716,1.4635,1.4594,1.431,1.4164,1.4115,1.3937,1.3855,1.3847,1.3677,1.3425,1.31,1.2954,1.271,1.2369,0.0,0.0,0.0,1.1987,1.1931,1.1817,1.15,1.1248,1.1078,1.0107,0.0,0.9143,0.8053,0.7497,0.7598,0.7293,0.0,0.0,0.0,0.0,0.0,0.0,0.0,0.0,0.0,0.0,0.0,0.4993,0.5312,0.5739,0.6178,0.6935,0.8222,0.832,0.8806,1.0003,1.0171,1.0212,1.0212,1.0212,1.0155,1.0016,1.0079,1.0163,0.9957,1.0103,1.0269,1.0249,1.0371,1.0428,1.0392,1.0509,1.0233,0.9298,0.8291,0.7221,0.6216,0.505,0.4021,0.3635,0.338,0.3232,0.3327,0.3285,0.3326,0.3363,0.3332,0.3326,0.3162,0.3282,0.338,0.338,0.3581,0.3788,0.3614,0.4336,0.5469,0.7153,0.757,0.7835,1.7193,0.0,1.7015,1.6982,0.0,1.6787,1.6657,1.656,1.6292,1.6073,1.5894,1.5723,1.5585,1.5496,1.5415,1.5277,1.5098,1.5098,1.5049,1.496,1.4879,1.4789,1.47,1.4432,1.4261,1.4172,1.3985,1.3904,1.3896,1.3815,1.3587,1.323,1.3141,1.2921,1.258,1.2572,1.2475,1.2296,1.2207,1.2125,1.2028,1.1768,1.1157,1.0303,0.0,0.0,0.0,0.0,0.0,0.0,0.0,0.0,0.0,0.0,0.0,0.4638,0.426,0.4069,0.4069,0.4069,0.3967,0.3615,0.3594,0.4017,0.5067,0.5432,0.6112,0.7211,0.707,0.7357,0.8428,0.8648,0.8904,0.9448,0.9563,0.9739,1.0208,1.0363,1.0441,1.0314,1.0416,1.042,1.0428,1.0493,1.0526,1.0444,1.0,0.9327,0.8177,0.7445,0.6449,0.4649,0.3769,0.3232,0.3181,0.3181,0.3181,0.3173,0.313,0.3106,0.313,0.3136,0.3106,0.3136,0.3164,0.3136,0.3136,0.3136,0.3166,0.3152,0.3471,0.4227,0.5696,0.6245,0.6737,1.7283,1.7112,1.7112,1.7112,1.7104,1.6871,1.6877,1.6741,0.0,0.0,0.0,1.5886,1.5804,1.5764,1.5626,1.5439,1.5166,1.5236,1.5139,1.5045,1.5045,1.4887,1.4749,1.4562,1.4391,1.4221,1.4042,1.3928,1.3904,1.3904,1.3742,1.3372,1.3316,1.3054,1.2658,1.2708,1.2628,1.2483,1.2346,1.2288,1.2255,1.1797,1.0861,0.9432,0.8993,0.8061,0.6523,0.5473,0.5173,0.5719,0.495,0.4482,0.4468,0.4264,0.3773,0.2981,0.2664,0.2504,0.2504,0.2504,0.2508,0.2514,0.2522,0.3092,0.4445,0.4552,0.5022,0.6153,0.5593,0.5691,0.673,0.7029,0.747,0.8478,0.8589,0.8961,0.9819,1.0038,0.989,1.0,0.9845,1.0039,1.0186,1.0272,1.0405,1.0427,0.9869,0.8554,0.7348,0.6611,0.5556,0.3897,0.3311,0.3181,0.3181,0.3181,0.3181,0.3179,0.313,0.3093,0.3131,0.309,0.3102,0.3108,0.3093,0.3117,0.3123,0.3123,0.312,0.3061,0.303,0.3215,0.3905,0.4622,0.5364,1.7283,1.7112,1.7112,1.7112,1.7104,1.7088,1.699,1.6828,1.6462,1.6202,1.5966,1.6016,1.5918,1.5772,1.5748,1.5553,1.5244,1.5236,1.5139,0.0,1.5045,1.4952,1.4919,1.4749,1.4578,1.4391,1.4221,1.4058,1.3912,1.3904,1.3657,1.3192,1.2966,1.258,1.2005,1.2239,1.2231,1.1937,1.2154,1.2231,1.2007,1.0589,0.9557,0.8897,0.7059,0.5638,0.4793,0.3904,0.3298,0.3082,0.2961,0.2911,0.2868,0.2863,0.2711,0.2611,0.2558,0.2504,0.2504,0.2504,0.252,0.256,0.2652,0.2766,0.2882,0.2937,0.3449,0.465,0.4838,0.5456,0.6559,0.685,0.7027,0.7304,0.736,0.7381,0.7563,0.7551,0.751,0.7363,0.7152,0.7653,0.8548,0.8843,0.9248,1.0012,0.9639,0.9425,0.711,0.5214,0.3906,0.344,0.3311,0.3189,0.3181,0.3181,0.3181,0.3181,0.313,0.309,0.309,0.3085,0.3094,0.3094,0.3102,0.3108,0.3108,0.3111,0.3091,0.3008,0.3016,0.3072,0.3189,0.3286,0.3707,1.7364,1.712,1.7112,1.7112,1.7112,1.7112,1.7015,1.675,1.6568,1.6349,1.6178,1.6006,1.5999,1.5926,1.5918,1.5723,1.539,1.539,1.5236,1.4976,1.5045,1.5045,1.4952,1.4562,1.4311,1.4128,1.3741,1.3496,1.334,1.3325,1.3097,1.2795,1.2475,1.215,1.1791,1.1167,1.0763,1.0631,1.1758,1.1683,1.0538,0.9771,0.852,0.6705,0.56,0.4613,0.3566,0.3139,0.2811,0.2578,0.2572,0.2615,0.2542,0.2432,0.2333,0.2355,0.2193,0.2138,0.2082,0.2138,0.2145,0.2163,0.2178,0.2181,0.2165,0.2496,0.2892,0.3469,0.3642,0.3918,0.4474,0.4641,0.4975,0.5639,0.5695,0.5899,0.6413,0.6513,0.6488,0.6389,0.6379,0.6596,0.7137,0.7296,0.7477,0.796,0.769,0.6603,0.5,0.3656,0.2932,0.3236,0.3289,0.3189,0.3181,0.3181,0.3181,0.3181,0.313,0.3095,0.3085,0.3068,0.3058,0.3047,0.3047,0.3047,0.3047,0.3047,0.303,0.3016,0.2975,0.2939,0.2828,0.2728,0.3118,1.7396,1.7112,1.7112,1.7024,1.6928,1.6928,1.6769,1.6546,1.6331,1.6164,1.6013,1.5889,1.5801,1.5711,1.5711,1.552,1.5225,1.5194,1.5003,1.4753,1.4737,1.4737,1.4653,1.4213,1.3898,1.3698,1.3265,1.2954,1.2775,1.2753,1.2678,1.2359,1.2025,1.1731,1.157,1.0187,0.9431,0.9431,1.0498,1.0359,0.8927,0.8533,0.7176,0.4908,0.4514,0.3826,0.2664,0.2616,0.2574,0.2427,0.2396,0.2431,0.2423,0.2208,0.2111,0.2074,0.1908,0.1794,0.1794,0.1794,0.1794,0.1794,0.1794,0.1794,0.1851,0.2188,0.2524,0.2524,0.258,0.2636,0.2748,0.2748,0.3085,0.3971,0.4083,0.4418,0.525,0.5417,0.5417,0.5417,0.5417,0.5468,0.575,0.5806,0.5964,0.6102,0.511,0.3956,0.3148,0.2702,0.2664,0.2932,0.3066,0.298,0.3027,0.3027,0.2977,0.3027,0.2944,0.2914,0.2887,0.2859,0.2841,0.2785,0.281,0.2803,0.28,0.2846,0.2846,0.2838,0.2859,0.2853,0.2777,0.2698,0.288,1.7299,1.7128,1.7024,1.6841,1.6489,1.6489,1.6217,1.5813,1.544,1.5298,1.533,1.5446,1.5216,1.4878,1.4878,1.4705,1.4403,1.4308,1.4215,1.3929,1.3821,1.3814,1.3898,1.3799,1.3558,1.329,1.3163,1.2985,1.2783,1.276,1.2529,1.2022,1.1504,1.1132,1.0853,0.9698,0.8967,0.864,0.7897,0.7459,0.7326,0.6166,0.5196,0.4487,0.3517,0.271,0.2045,0.2223,0.2185,0.1894,0.1891,0.1875,0.1854,0.1874,0.1821,0.1856,0.1797,0.1794,0.1795,0.1794,0.1797,0.1794,0.1798,0.1798,0.1798,0.1853,0.1908,0.1967,0.2133,0.2244,0.23,0.2524,0.2748,0.2917,0.2917,0.2917,0.3141,0.3029,0.3029,0.3029,0.325,0.3418,0.4362,0.4582,0.4972,0.5635,0.4775,0.401,0.3733,0.2959,0.2428,0.2534,0.2502,0.2477,0.2523,0.2473,0.2574,0.2521,0.2469,0.2498,0.2509,0.2463,0.2368,0.2469,0.2326,0.235,0.239,0.2386,0.2525,0.2578,0.2695,0.2842,0.2738,0.2647,0.2926,1.6476,1.6233,1.6233,1.6145,1.5969,1.5969,1.5881,1.5675,1.5362,1.5049,1.4834,1.4703,1.4638,1.4713,1.4713,1.4586,1.4378,1.4273,1.4109,1.3893,1.3712,1.3667,1.3667,1.3428,1.3235,1.3018,1.27,1.2469,1.2264,1.2086,1.1895,1.153,1.0468,0.9847,0.9505,0.7431,0.6183,0.6034,0.4793,0.4136,0.4257,0.4503,0.4063,0.3092,0.2576,0.2263,0.2015,0.2036,0.2012,0.1894,0.1877,0.1862,0.185,0.1861,0.1862,0.185,0.1849,0.1849,0.1849,0.1849,0.1849,0.1849,0.1849,0.1849,0.1849,0.1849,0.1849,0.1902,0.1931,0.1964,0.1964,0.2076,0.2188,0.2188,0.2188,0.2188,0.2188,0.2188,0.2188,0.2188,0.2188,0.23,0.2744,0.2912,0.308,0.3517,0.3143,0.295,0.2835,0.2354,0.2103,0.2028,0.201,0.2145,0.2328,0.2421,0.2421,0.2421,0.2421,0.2408,0.2342,0.2333,0.2284,0.2263,0.2204,0.2161,0.2247,0.2244,0.2334,0.2334,0.2332,0.2445,0.2373,0.2335,0.2447,1.5809,1.5712,1.5704,1.5616,1.5528,1.5528,1.544,1.5308,1.4923,1.4614,1.433,1.4034,1.4059,1.4307,1.4383,1.4303,1.415,1.3989,1.3829,1.3597,1.3431,1.3358,1.3351,1.3042,1.2888,1.2657,1.2353,1.1965,1.1782,1.1674,1.1344,1.0722,0.9579,0.8756,0.7966,0.5563,0.4314,0.4203,0.2846,0.2091,0.2248,0.3073,0.3101,0.2106,0.2038,0.2038,0.1975,0.1947,0.1871,0.187,0.191,0.1895,0.1887,0.1894,0.1895,0.1887,0.1885,0.1885,0.1885,0.1885,0.1885,0.1885,0.1885,0.1885,0.1885,0.1885,0.1885,0.1881,0.1846,0.1821,0.182,0.182,0.1816,0.1809,0.1808,0.1805,0.1797,0.1794,0.1794,0.1794,0.1851,0.1794,0.1794,0.185,0.1962,0.1959,0.1887,0.1818,0.1814,0.1791,0.1763,0.174,0.1728,0.1803,0.2129,0.212,0.217,0.217,0.212,0.212,0.2167,0.2108,0.2057,0.19,0.1984,0.199,0.1887,0.193,0.211,0.2155,0.2198,0.2183,0.2176,0.2051,0.2006,1.5712,1.5704,1.5704,1.544,1.4999,1.4999,1.4822,1.4434,1.406,1.3838,1.3875,1.3616,1.348,1.348,1.3562,1.3404,1.3254,1.3198,1.3047,1.2817,1.2661,1.2585,1.2579,1.2501,1.2433,1.2374,1.221,1.1918,1.1653,1.1548,1.0815,0.9485,0.8976,0.8169,0.6741,0.5027,0.427,0.3968,0.2768,0.2082,0.2031,0.2086,0.2134,0.2043,0.2038,0.2038,0.1974,0.1948,0.1871,0.1871,0.187,0.1917,0.1894,0.1914,0.1917,0.1894,0.1888,0.1888,0.1889,0.1891,0.1891,0.1888,0.1894,0.1888,0.1895,0.1895,0.1895,0.1888,0.1888,0.1881,0.1881,0.1874,0.1864,0.1842,0.1782,0.1825,0.1801,0.1801,0.1795,0.1797,0.1797,0.1795,0.1794,0.1794,0.1794,0.1794,0.1793,0.179,0.1785,0.1819,0.1802,0.1785,0.1753,0.1705,0.1676,0.1768,0.1718,0.1718,0.1817,0.1718,0.1656,0.1641,0.161,0.1577,0.1636,0.1603,0.1535,0.1615,0.1884,0.1975,0.2065,0.2045,0.1934,0.1969,0.1886,1.4829,1.4829,1.4829,1.4741,1.4564,1.4564,1.4421,1.4136,1.3933,1.379,1.3682,1.3492,1.3397,1.3397,1.3397,1.337,1.3308,1.3166,1.3017,1.2868,1.2718,1.2596,1.2508,1.2501,1.2481,1.24,1.2176,1.1911,1.1489,1.0584,0.9792,0.9027,0.7147,0.5873,0.515,0.3747,0.2952,0.2935,0.2363,0.2068,0.2048,0.2029,0.2005,0.204,0.2038,0.2038,0.2038,0.1966,0.196,0.196,0.196,0.1955,0.1947,0.1954,0.1956,0.1945,0.1944,0.1944,0.1944,0.1944,0.1944,0.1944,0.1944,0.1943,0.1944,0.2005,0.1944,0.1943,0.1944,0.1944,0.1936,0.191,0.1881,0.1873,0.1869,0.1865,0.1853,0.1836,0.1824,0.1821,0.1808,0.1795,0.1795,0.1794,0.1794,0.1794,0.1794,0.1794,0.1794,0.1785,0.1826,0.1808,0.1785,0.1754,0.1702,0.1628,0.1617,0.1617,0.1617,0.1617,0.161,0.1594,0.1614,0.1586,0.1506,0.1474,0.1449,0.148,0.1705,0.1705,0.1749,0.1791,0.1644,0.1691,0.166,1.4299,1.4299,1.4299,1.4299,1.4299,1.4299,1.4217,1.4061,1.3905,1.3756,1.362,1.3471,1.3397,1.3397,1.3397,1.3397,1.3383,1.3241,1.3098,1.2956,1.28,1.2644,1.2522,1.2501,1.2501,1.2377,1.1668,1.094,1.0107,0.899,0.826,0.7563,0.5581,0.4327,0.3744,0.2723,0.2218,0.22,0.2098,0.2071,0.2052,0.203,0.2005,0.2044,0.2038,0.2038,0.2038,0.2038,0.2038,0.2038,0.2038,0.2038,0.2038,0.2038,0.2038,0.2038,0.2038,0.2038,0.2038,0.2038,0.1977,0.2038,0.2038,0.2038,0.2038,0.2038,0.2038,0.2038,0.2038,0.2038,0.2031,0.1939,0.1911,0.1903,0.19,0.1896,0.1887,0.1868,0.1851,0.1782,0.1823,0.1808,0.1798,0.1795,0.1794,0.1794,0.1794,0.1794,0.1794,0.1794,0.179,0.1823,0.1809,0.1785,0.1747,0.1665,0.1629,0.1622,0.1566,0.1566,0.1562,0.1595,0.1573,0.1545,0.1512,0.1479,0.141,0.1396,0.1391,0.1391,0.148,0.1569,0.1466,0.1452,0.1423,1.421,1.4027,1.421,1.4027,1.3761,1.3761,1.3947,1.36,1.3468,1.3147,1.2829,1.3125,1.2899,1.3231,1.281,1.3148,1.3121,1.2762,1.2781,1.2956,1.2813,1.2579,1.2269,1.2249,1.2075,1.1895,1.0509,0.878,0.7425,0.7098,0.6267,0.4991,0.465,0.3688,0.2269,0.2242,0.221,0.2121,0.2109,0.208,0.2029,0.2023,0.2009,0.2044,0.2043,0.2041,0.2038,0.2038,0.2038,0.2038,0.2038,0.2038,0.2038,0.2038,0.2038,0.2038,0.2038,0.2038,0.2038,0.2038,0.2038,0.2038,0.2038,0.2038,0.2038,0.2038,0.2038,0.2038,0.2038,0.2038,0.2038,0.1971,0.1958,0.1937,0.1932,0.1921,0.19,0.1888,0.1874,0.1851,0.1783,0.1828,0.1806,0.1801,0.1801,0.1797,0.1794,0.1794,0.1794,0.1794,0.1794,0.1789,0.1774,0.1807,0.1783,0.1756,0.1662,0.1629,0.1621,0.1566,0.1566,0.1605,0.159,0.1562,0.152,0.1487,0.1414,0.1401,0.1392,0.1391,0.1391,0.1391,0.1383,0.1414,0.1389,1.1527,1.0639,1.1799,1.1527,1.0461,1.0372,1.0268,1.0096,1.0047,0.9938,0.979,0.9653,1.0388,1.1059,1.0304,1.0388,1.1386,1.034,1.0809,1.2581,1.2828,1.2029,1.0958,1.0774,1.0069,0.9,0.8328,0.7699,0.684,0.586,0.5009,0.4488,0.3454,0.2716,0.22,0.2189,0.217,0.2142,0.212,0.2098,0.2079,0.206,0.2035,0.2009,0.2005,0.1997,0.204,0.2038,0.2038,0.2038,0.2038,0.2038,0.2038,0.2038,0.2038,0.2038,0.2038,0.2038,0.2038,0.2038,0.2038,0.2038,0.2038,0.2038,0.2038,0.2038,0.2038,0.2038,0.2038,0.2038,0.2038,0.2038,0.1971,0.1963,0.1962,0.1958,0.1944,0.1929,0.1904,0.1879,0.1872,0.1858,0.1835,0.1825,0.1816,0.18,0.1795,0.1794,0.1794,0.1794,0.1794,0.1793,0.178,0.1716,0.164,0.1511,0.1431,0.1398,0.1431,0.1417,0.1467,0.1463,0.15,0.1475,0.1483,0.145,0.1425,0.1405,0.1395,0.1391,0.1391,0.1391,0.1389,0.1332,0.1269,0.9655,0.8765,0.9833,0.9744,0.8676,0.8587,0.8485,0.833,0.8313,0.8211,0.8076,0.8052,0.8637,0.9304,0.8465,0.8632,0.9471,0.8465,0.9132,1.0854,1.1028,1.0316,0.9158,0.9039,0.8112,0.6679,0.6326,0.5975,0.5256,0.4286,0.366,0.3282,0.2471,0.2021,0.1994,0.1983,0.2036,0.2153,0.2136,0.2055,0.1976,0.2025,0.2001,0.1847,0.1961,0.2011,0.1993,0.2044,0.2038,0.2038,0.2038,0.2038,0.2038,0.2038,0.2038,0.2038,0.2038,0.2038,0.2038,0.2038,0.2038,0.2038,0.2038,0.2038,0.2038,0.2038,0.2038,0.2038,0.2038,0.2038,0.2038,0.2038,0.2038,0.2038,0.1975,0.2038,0.1974,0.196,0.1936,0.1911,0.1903,0.1887,0.1866,0.1786,0.1778,0.1814,0.1801,0.1794,0.1794,0.1682,0.1626,0.157,0.1456,0.1391,0.1438,0.1312,0.1188,0.1162,0.1191,0.1175,0.1165,0.1162,0.1206,0.1181,0.12,0.1271,0.1248,0.1361,0.1391,0.1391,0.1256,0.1211,0.1121,0.1076,0.1019,0.8409,0.8319,0.8409,0.823,0.7963,0.7955,0.7769,0.7811,0.7698,0.7522,0.7402,0.7216,0.755,0.7797,0.7383,0.7383,0.7797,0.7379,0.7085,0.7409,0.7406,0.7278,0.7321,0.7018,0.6065,0.4888,0.4659,0.3871,0.2754,0.2497,0.203,0.186,0.1765,0.1602,0.1582,0.156,0.1752,0.1953,0.2085,0.187,0.1587,0.1848,0.1835,0.1486,0.1724,0.1837,0.183,0.1876,0.1922,0.1978,0.2038,0.2038,0.2038,0.2038,0.2038,0.2038,0.2038,0.2038,0.2038,0.2038,0.2038,0.2038,0.2043,0.2041,0.1984,0.199,0.2055,0.1992,0.1986,0.2044,0.2044,0.204,0.204,0.2038,0.2038,0.2038,0.2038,0.1975,0.1959,0.194,0.1932,0.1922,0.1894,0.1808,0.1736,0.1719,0.1701,0.1636,0.157,0.1402,0.129,0.1234,0.1121,0.1119,0.1168,0.0997,0.0821,0.0807,0.0841,0.0877,0.0914,0.0961,0.0958,0.094,0.0969,0.1044,0.1119,0.1192,0.1218,0.1122,0.1032,0.0942,0.0897,0.0852,0.085,0.5644,0.4572,0.5912,0.5644,0.4478,0.436,0.4312,0.4255,0.4304,0.4429,0.421,0.4117,0.4954,0.5873,0.4703,0.4787,0.5538,0.4787,0.3842,0.3551,0.3513,0.444,0.4927,0.4072,0.3222,0.2741,0.2567,0.1958,0.1506,0.156,0.1462,0.1288,0.1272,0.1255,0.1237,0.1221,0.128,0.1346,0.1414,0.1345,0.1273,0.1338,0.1263,0.1181,0.1239,0.1294,0.1284,0.1278,0.1513,0.1979,0.2038,0.2038,0.1981,0.1981,0.2044,0.2044,0.2041,0.204,0.204,0.204,0.204,0.2041,0.1997,0.2008,0.2008,0.2029,0.2102,0.2037,0.2023,0.2007,0.2004,0.1989,0.2041,0.2038,0.2038,0.2038,0.2038,0.2038,0.1973,0.1966,0.1963,0.1948,0.1866,0.1669,0.1533,0.1448,0.1373,0.1192,0.1182,0.1121,0.0953,0.1009,0.0953,0.0953,0.084,0.067,0.0554,0.0491,0.0481,0.0469,0.0615,0.0809,0.0808,0.0852,0.0786,0.0867,0.0853,0.0886,0.0827,0.0857,0.0808,0.0763,0.0763,0.0718,0.0718,0.3857,0.2964,0.4037,0.3859,0.2959,0.2841,0.2811,0.2781,0.2751,0.2721,0.2612,0.244,0.2942,0.378,0.269,0.269,0.3444,0.2606,0.2011,0.1831,0.1803,0.2391,0.2864,0.1998,0.161,0.1536,0.1286,0.1206,0.1207,0.1196,0.1102,0.0938,0.0921,0.0839,0.0832,0.0883,0.0943,0.1077,0.1077,0.101,0.0875,0.101,0.0939,0.0864,0.0926,0.0982,0.1034,0.1031,0.1215,0.1515,0.1699,0.1762,0.1824,0.1951,0.2014,0.2012,0.2003,0.1999,0.2008,0.2003,0.2001,0.2012,0.203,0.2035,0.2039,0.2056,0.2128,0.2124,0.2046,0.2039,0.2033,0.2011,0.199,0.2041,0.2038,0.2038,0.2038,0.2038,0.2038,0.1977,0.1852,0.1787,0.1707,0.1394,0.1253,0.1169,0.1096,0.0969,0.0901,0.0786,0.0673,0.0673,0.0,0.0,0.0,0.0,0.0,0.0,0.0,0.0,0.0,0.0,0.0,0.0,0.0,0.0636,0.0626,0.0615,0.0694,0.0684,0.0588,0.0539,0.0494,0.0,0.0,0.2874,0.2874,0.2874,0.2874,0.2779,0.275,0.2632,0.2606,0.2487,0.2461,0.2358,0.2103,0.2018,0.1934,0.1682,0.143,0.143,0.1514,0.1341,0.1248,0.1148,0.1282,0.133,0.13,0.1151,0.1161,0.1133,0.0979,0.0907,0.0975,0.0889,0.0583,0.0499,0.0492,0.0488,0.0479,0.0675,0.0808,0.0875,0.0741,0.0539,0.0673,0.0672,0.0537,0.0666,0.079,0.0783,0.0844,0.0907,0.0907,0.1227,0.1414,0.148,0.1804,0.1932,0.1862,0.1846,0.1843,0.1924,0.1843,0.1906,0.1861,0.1934,0.2005,0.1877,0.1883,0.1889,0.2019,0.2007,0.2001,0.1926,0.197,0.1884,0.1804,0.1858,0.1915,0.1915,0.1915,0.1915,0.1915,0.1606,0.1483,0.1354,0.1159,0.0842,0.0889,0.076,0.0633,0.0568,0.045,0.0393,0.0393,0.0,0.0,0.0,0.0,0.0,0.0,0.0,0.0,0.0,0.0,0.0,0.0,0.0,0.0346,0.0342,0.0383,0.0,0.0415,0.0365,0.0226,0.0,0.0,0.0,0.2874,0.2874,0.2874,0.2694,0.2417,0.2289,0.2091,0.1736,0.1703,0.1687,0.1599,0.1514,0.143,0.143,0.1262,0.1346,0.1262,0.1176,0.1168,0.0819,0.0408,0.0,0.0,0.0613,0.0764,0.0693,0.0381,0.0,0.0,0.0,0.0,0.0,0.0,0.0,0.0,0.0,0.0,0.0,0.0,0.0,0.0,0.0,0.0,0.0,0.0,0.0,0.0,0.02,0.02,0.0332,0.0719,0.1036,0.11,0.1229,0.1294,0.1293,0.1288,0.1222,0.1224,0.1288,0.1221,0.1293,0.1371,0.1247,0.1248,0.1325,0.1465,0.1597,0.1717,0.1699,0.1616,0.1591,0.1514,0.138,0.1305,0.1297,0.1297,0.1421,0.1483,0.1297,0.1174,0.1112,0.1112,0.0801,0.0609,0.0541,0.0,0.0,0.0,0.0,0.0,0.0,0.0,0.0,0.0,0.0,0.0,0.0,0.0,0.0,0.0,0.0,0.0,0.0,0.0,0.0,0.0,0.0,0.0,0.0,0.0,0.0,0.0,0.0,0.0,0.2156,0.2156,0.2156,0.206,0.1867,0.1751,0.1647,0.1377,0.1356,0.1346,0.1262,0.1093,0.101,0.101,0.0757,0.0673,0.0673,0.0673,0.0582,0.0327,0.0,0.0,0.0,0.0154,0.0305,0.0,0.0153,0.0,0.0,0.0,0.0,0.0,0.0,0.0,0.0,0.0,0.0,0.0,0.0,0.0,0.0,0.0,0.0,0.0,0.0,0.0,0.0,0.0,0.0,0.0,0.0,0.0592,0.0789,0.0921,0.1053,0.1053,0.098,0.1048,0.105,0.1047,0.1046,0.1052,0.1061,0.1064,0.1066,0.1073,0.1144,0.1277,0.1336,0.1323,0.1239,0.1286,0.1147,0.1072,0.0997,0.0927,0.0864,0.105,0.1236,0.0988,0.0864,0.0803,0.0679,0.0494,0.0,0.0,0.0,0.0,0.0,0.0,0.0,0.0,0.0,0.0,0.0,0.0,0.0,0.0,0.0,0.0,0.0,0.0,0.0,0.0,0.0,0.0,0.0,0.0,0.0,0.0,0.0,0.0,0.0,0.0,0.0,0.1436,0.1436,0.1434,0.1336,0.1324,0.1308,0.1208,0.1112,0.1099,0.101,0.1009,0.0758,0.0589,0.0505,0.0253,0.0,0.0,0.0,0.0,0.0,0.0,0.0,0.0,0.0,0.0,0.0,0.0,0.0,0.0,0.0,0.0,0.0,0.0,0.0,0.0,0.0,0.0,0.0,0.0,0.0,0.0,0.0,0.0,0.0,0.0,0.0,0.0,0.0,0.0,0.0,0.0,0.0,0.0404,0.0741,0.0943,0.0874,0.0798,0.0731,0.0734,0.0798,0.0797,0.0942,0.0942,0.0875,0.0875,0.0874,0.0875,0.101,0.1074,0.107,0.0926,0.0914,0.0901,0.0826,0.0813,0.0681,0.0556,0.0679,0.0741,0.0741,0.0556,0.0432,0.037,0.0,0.0,0.0,0.0,0.0,0.0,0.0,0.0,0.0,0.0,0.0,0.0,0.0,0.0,0.0,0.0,0.0,0.0,0.0,0.0,0.0,0.0,0.0,0.0,0.0,0.0,0.0,0.0,0.0,0.0,0.0,0.0,0.1436,0.1436,0.1423,0.115,0.0881,0.0778,0.06,0.0256,0.0,0.0,0.0,0.0,0.0,0.0,0.0,0.0,0.0,0.0,0.0,0.0,0.0,0.0,0.0,0.0,0.0,0.0,0.0,0.0,0.0,0.0,0.0,0.0,0.0,0.0,0.0,0.0,0.0,0.0,0.0,0.0,0.0,0.0,0.0,0.0,0.0,0.0,0.0,0.0,0.0,0.0,0.0,0.0,0.0,0.0,0.0,0.0,0.0,0.0,0.0,0.0,0.0,0.0202,0.0,0.0,0.0,0.0,0.0404,0.0606,0.0808,0.0941,0.0604,0.0595,0.0457,0.0322,0.0,0.0,0.0,0.0,0.0,0.0,0.0,0.0,0.0,0.0,0.0,0.0,0.0,0.0,0.0,0.0,0.0,0.0,0.0,0.0,0.0,0.0,0.0,0.0,0.0,0.0,0.0,0.0,0.0,0.0,0.0,0.0,0.0,0.0,0.0,0.0,0.0,0.0,0.0,0.0,0.0,0.071,0.0706,0.0703,0.0524,0.0347,0.0344,0.0256,0.0,0.0,0.0,0.0,0.0,0.0,0.0,0.0,0.0,0.0,0.0,0.0,0.0,0.0,0.0,0.0,0.0,0.0,0.0,0.0,0.0,0.0,0.0,0.0,0.0,0.0,0.0,0.0,0.0,0.0,0.0,0.0,0.0,0.0,0.0,0.0,0.0,0.0,0.0,0.0,0.0,0.0,0.0,0.0,0.0,0.0,0.0,0.0,0.0,0.0,0.0,0.0,0.0,0.0,0.0,0.0,0.0,0.0,0.0,0.0,0.0,0.0,0.0471,0.0269,0.0,0.0197,0.0,0.0,0.0,0.0,0.0,0.0,0.0,0.0,0.0,0.0,0.0,0.0,0.0,0.0,0.0,0.0,0.0,0.0,0.0,0.0,0.0,0.0,0.0,0.0,0.0,0.0,0.0,0.0,0.0,0.0,0.0,0.0,-0.0152,0.0,0.0,0.0,-0.0349,0.0,0.0,0.0,0.0,-0.0371,0.0,0.0,0.0,0.0,0.0,0.0,0.0,0.0,0.0,0.0,0.0,0.0,0.0,0.0,0.0,0.0,0.0,0.0,0.0,0.0,0.0,0.0,0.0,0.0,0.0,0.0,0.0,0.0,0.0,0.0,0.0,0.0,0.0,0.0,0.0,0.0,0.0,0.0,0.0,0.0,0.0,0.0,0.0,0.0,0.0,0.0,0.0,0.0,0.0,0.0,0.0,0.0,0.0,0.0,0.0,0.0,0.0,0.0,0.0,0.0,0.0,0.0,0.0,0.0,0.0,0.0,0.0,0.0,0.0,0.0,0.0,0.0,0.0,0.0,0.0,0.0,0.0,0.0,0.0,0.0,0.0,0.0,0.0,0.0,0.0,0.0,0.0,0.0,0.0,0.0,0.0,0.0,0.0,0.0,0.0,0.0,0.0,0.0,0.0,0.0,-0.0383,0.0,-0.069,-0.0782,-0.0618,-0.0409,-0.0457,-0.0505,-0.0554,-0.0601,-0.0746,-0.0738,-0.0679,-0.0622,-0.0613,0.0,0.0,0.0,0.0,0.0,0.0,0.0,0.0,0.0,0.0,0.0,0.0,0.0,0.0,0.0,0.0,0.0,0.0,0.0,0.0,0.0,0.0,0.0,0.0,0.0,0.0,0.0,0.0,0.0,0.0,0.0,0.0,0.0,0.0,0.0,0.0,0.0,0.0,0.0,0.0,0.0,0.0,0.0,0.0,0.0,0.0,0.0,0.0,0.0,0.0,0.0,0.0,0.0,0.0,0.0,0.0,0.0,0.0,0.0,0.0,0.0,0.0,0.0,0.0,0.0,0.0,0.0,0.0,0.0,0.0,0.0,0.0,0.0,0.0,0.0,0.0,0.0,0.0,0.0,0.0,0.0,0.0,0.0,0.0,0.0,0.0,0.0,0.0,0.0,0.0,0.0,0.0,0.0,0.0,0.0,0.0,0.0,0.0,-0.0392,-0.0447,-0.0663,-0.0818,-0.0857,-0.0895,-0.078,-0.077,-0.0812,-0.0858,-0.0808,-0.0856,-0.1002,-0.0894,-0.0787,-0.0825,-0.091,0.0,0.0,0.0,0.0,0.0,0.0,0.0,0.0,0.0,0.0,0.0,0.0,0.0,0.0,0.0,0.0,0.0,0.0,0.0,0.0,0.0,0.0,0.0,0.0,0.0,0.0,0.0,0.0,0.0,0.0,0.0,0.0,0.0,0.0,0.0,0.0,0.0,0.0,0.0,0.0,0.0,0.0,0.0,0.0,0.0,0.0,0.0,0.0,0.0,0.0,0.0,0.0,0.0,0.0,0.0,0.0,0.0,0.0,0.0,0.0,0.0,0.0,0.0,0.0,0.0,0.0,0.0,0.0,0.0,0.0,0.0,0.0,0.0,0.0,0.0,0.0,0.0,0.0,0.0,0.0,0.0,0.0,0.0,0.0,0.0,0.0,0.0,0.0,0.0,0.0,0.0,0.0,0.0,0.0,0.0,0.0,0.0,-0.0673,-0.0673,-0.0783,-0.1001,-0.1153,-0.1189,-0.1275,-0.1308,-0.129,-0.1219,-0.1162,-0.1061,-0.1162,-0.1262,-0.1152,-0.1143,-0.1228,-0.1306,0.0,0.0,0.0,0.0,0.0,0.0,0.0,0.0,0.0,0.0,0.0,0.0,0.0,0.0,0.0,0.0,0.0,0.0,0.0,0.0,0.0,0.0,0.0,0.0,0.0,0.0,0.0,0.0,0.0,0.0,0.0,0.0,0.0,0.0,0.0,0.0,0.0,0.0,0.0,0.0,0.0,0.0,0.0,0.0,0.0,0.0,0.0,0.0,0.0,0.0,0.0,0.0,0.0,0.0,0.0,0.0,0.0,0.0,0.0,0.0,0.0,0.0,0.0,0.0,0.0,0.0,0.0,0.0,0.0,0.0,0.0,0.0,0.0,0.0,0.0,0.0,0.0,0.0,0.0,0.0,0.0,0.0,0.0,0.0,0.0,0.0,0.0,-0.0123,0.0,0.0,0.0,-0.0601,-0.0594,-0.064,-0.0688,-0.0853,-0.0904,-0.1011,-0.101,-0.1121,-0.1338,-0.1442,-0.148,-0.1616,-0.169,-0.1614,-0.144,-0.1376,-0.1364,-0.1364,-0.1415,-0.1516,-0.1506,-0.1638,-0.1664,0.0,0.0,0.0,0.0,0.0,0.0,0.0,0.0,0.0,0.0,0.0,0.0,0.0,0.0,0.0,0.0,0.0,0.0,0.0,0.0,0.0,0.0,0.0,0.0,0.0,0.0,0.0,0.0,0.0,0.0,0.0,0.0,0.0,0.0,0.0,0.0,0.0,0.0,0.0,0.0,0.0,0.0,0.0,0.0,0.0,0.0,0.0,0.0,0.0,0.0,0.0,0.0,0.0,0.0,0.0,0.0,0.0,0.0,0.0,0.0,0.0,0.0,0.0,0.0,0.0,0.0,0.0,0.0,0.0,0.0,0.0,0.0,0.0,0.0,0.0,0.0,0.0,0.0,0.0,0.0,-0.0503,-0.0563,-0.0621,-0.062,-0.0556,-0.0494,-0.0494,-0.0494,-0.0679,0.0,0.0,-0.0971,-0.0966,-0.0949,-0.0926,-0.1032,-0.1195,-0.1243,-0.1294,-0.146,-0.1625,-0.1725,-0.166,-0.1692,-0.1769,-0.1689,-0.1769,-0.1901,-0.1933,-0.167,-0.1667,-0.207,-0.2314,-0.2491,-0.232,0.0,0.0,0.0,0.0,0.0,0.0,0.0,0.0,0.0,0.0,0.0,0.0,0.0,0.0,-0.0337,-0.0421,-0.0505,0.0,-0.0747,-0.0822,0.0,-0.0795,-0.0781,-0.0693,0.0,-0.0685,-0.069,-0.0695,0.0,-0.0703,-0.0549,0.0,-0.0157,0.0,0.0,0.0,0.0,0.0,0.0,0.0,0.0,0.0,0.0,0.0,0.0,0.0,0.0,0.0,0.0,0.0,0.0,0.0,0.0,0.0,0.0,0.0,0.0,0.0,0.0,0.0,0.0,0.0,0.0,0.0,0.0,0.0,0.0,0.0,0.0,0.0,0.0,0.0,0.0,0.0,-0.0334,-0.0399,-0.0462,-0.0459,-0.0585,-0.0771,-0.0825,-0.0819,-0.0876,-0.0932,-0.0929,-0.0864,-0.0864,-0.0864,-0.105,-0.1112,-0.1228,-0.1283,-0.1277,-0.139,-0.1358,-0.1397,-0.1493,-0.1537,-0.1581,-0.1687,-0.1794,-0.1794,-0.1782,-0.1759,-0.1954,-0.2137,-0.2365,-0.2587,-0.2506,-0.2281,-0.2523,-0.2972,-0.3162,-0.3349,-0.3276,-0.2016,-0.2017,-0.2016,-0.1178,0.0,0.0,-0.0084,-0.0168,0.0,-0.0253,-0.0421,-0.0421,-0.0421,-0.0505,-0.0674,-0.0842,-0.0926,-0.1092,-0.1249,-0.1237,-0.1221,-0.1281,-0.1256,-0.1235,-0.1068,-0.1215,-0.1215,-0.1144,-0.1074,-0.1243,-0.1013,-0.0781,0.0,0.0,0.0,0.0,0.0,0.0,0.0,0.0,0.0,0.0,0.0,0.0,0.0,0.0,0.0,0.0,0.0,0.0,0.0,0.0,0.0,0.0,0.0,-0.0135,-0.0135,-0.0202,-0.0269,0.0,0.0,0.0,0.0,0.0,0.0,-0.0067,0.0,0.0,0.0,-0.0337,-0.0269,-0.0404,-0.0471,-0.0672,-0.0672,-0.0736,-0.0867,-0.0928,-0.1052,-0.1171,-0.1225,-0.1278,-0.1443,-0.1495,-0.1486,-0.1421,-0.1359,-0.1359,-0.1421,-0.1544,-0.1543,-0.1598,-0.1592,-0.1702,-0.1808,-0.1774,-0.1682,-0.1658,-0.1701,-0.1743,-0.1794,-0.1906,-0.1905,-0.1832,-0.2083,-0.2592,-0.3029,-0.3453,-0.324,-0.2881,-0.3377,-0.3974,-0.4175,-0.4357,-0.4595,-0.6369,-0.6533,-0.6366,-0.3944,0.0,0.0,-0.0505,-0.1262,-0.1178,-0.1346,-0.1765,-0.1681,-0.1681,-0.1681,-0.2102,-0.227,-0.2186,-0.2016,-0.2081,-0.2296,-0.2604,-0.1913,-0.1872,-0.2069,-0.2509,-0.1435,-0.1884,-0.2262,-0.1741,-0.2228,-0.193,-0.1628,-0.1717,0.0,0.0,0.0,0.0,0.0,0.0,0.0,0.0,0.0,0.0,0.0,0.0,0.0,0.0,0.0,0.0,0.0,0.0,0.0,0.0,0.0,-0.0202,-0.0471,-0.0471,-0.0673,-0.0943,-0.0404,0.0,0.0,0.0,0.0,0.0,-0.0269,-0.0471,-0.0539,-0.0741,-0.0943,-0.101,-0.101,-0.101,-0.1346,-0.148,-0.1814,-0.2009,-0.2339,-0.2716,-0.2894,-0.2231,-0.1824,-0.197,-0.2122,-0.2107,-0.2038,-0.1915,-0.1915,-0.1915,-0.1853,-0.1791,-0.1789,-0.1844,-0.1838,-0.1943,-0.1906,-0.1873,-0.1846,-0.2047,-0.2309,-0.252,-0.2744,-0.2573,-0.2178,-0.2879,-0.3875,-0.4193,-0.4443,-0.4703,-0.5052,-0.4634,-0.4977,-0.5127,-0.5522,-0.5951,-0.6703,-0.6703,-0.6703,-0.5867,-0.4528,-0.4444,-0.453,-0.4698,-0.4698,-0.4782,-0.4863,-0.4863,-0.4863,-0.4947,-0.5033,-0.5117,-0.52,-0.5703,-0.5731,-0.5499,-0.5288,-0.5617,-0.5344,-0.4932,-0.5024,-0.5214,-0.5107,-0.4851,-0.5218,-0.4712,-0.4836,-0.4781,-0.3424,-0.2194,0.0,-0.0849,0.0,0.0,0.0,0.0,-0.0789,-0.057,-0.0424,-0.0419,-0.0209,0.0,0.0,0.0,0.0,-0.0337,-0.027,-0.0404,-0.0673,-0.0673,-0.074,-0.0942,-0.0942,-0.0943,-0.1346,-0.1412,-0.1614,-0.1211,-0.0942,-0.1009,-0.0807,-0.0808,-0.0875,-0.1076,-0.148,-0.1547,-0.1077,-0.1144,-0.1413,-0.2689,-0.3224,-0.3959,-0.4356,-0.4754,-0.5069,-0.5179,-0.4832,-0.4415,-0.438,-0.3886,-0.3668,-0.3271,-0.3207,-0.259,-0.2407,-0.2099,-0.1977,-0.1977,-0.1974,-0.197,-0.2016,-0.2577,-0.2892,-0.3088,-0.3314,-0.3535,-0.3636,-0.3748,-0.3968,-0.4018,-0.4609,-0.5245,-0.5854,-0.6479,-0.722,-0.7485,-0.672,-0.6492,-0.688,-0.7329,-0.777,-0.904,-0.904,-0.904,-0.904,-0.879,-0.7368,-0.6787,-0.6954,-0.7121,-0.7121,-0.7125,-0.7125,-0.7041,-0.7208,-0.7459,-0.763,-0.7626,-0.7758,-0.7867,-0.7782,-0.769,-0.7346,-0.7323,-0.7615,-0.6899,-0.7368,-0.7319,-0.7049,-0.6681,-0.7105,-0.688,-0.6312,-0.5755,-0.4771,-0.3669,-0.302,-0.26,-0.2642,-0.275,-0.2128,-0.1811,-0.1438,-0.0787,-0.078,-0.0635,0.0,0.0,-0.0482,-0.0548,-0.0747,-0.1012,-0.1279,-0.1682,-0.2084,-0.2286,-0.262,-0.2888,-0.3023,-0.3423,-0.3758,-0.3892,-0.3356,-0.2754,-0.262,-0.262,-0.2956,-0.3023,-0.2956,-0.2754,-0.2821,-0.2821,-0.2754,-0.3224,-0.4562,-0.4897,-0.5633,-0.59,-0.6231,-0.6297,-0.6539,-0.6647,-0.6506,-0.637,-0.5922,-0.543,-0.4957,-0.4493,-0.3817,-0.3266,-0.3081,-0.3022,-0.3022,-0.3207,-0.3507,-0.3666,-0.3798,-0.4103,-0.4294,-0.461,-0.4841,-0.4916,-0.5027,-0.5417,-0.5806,-0.6232,-0.6853,-0.784,-0.8533,-0.8622,-0.8584,-0.8247,-0.8256,-0.8649,-0.8783,-0.8924,-1.3314,-1.3397,-1.3397,-1.3148,-1.2561,-0.8957,-0.7539,-0.771,-0.8127,-0.8294,-0.8303,-0.8549,-0.8716,-0.8382,-0.8382,-0.854,-0.8689,-0.8532,-0.8521,-0.8428,-0.8739,-0.84,-0.8232,-0.8293,-0.854,-0.8112,-0.8053,-0.8496,-0.7577,-0.8192,-0.8134,-0.7608,-0.7468,-0.7111,-0.6396,-0.5646,-0.5044,-0.4979,-0.4561,-0.3981,-0.3708,-0.2615,-0.2311,-0.2151,-0.2001,-0.1916,-0.1896,-0.1877,-0.1724,-0.2051,-0.2575,-0.3032,-0.3694,-0.4629,-0.5299,-0.5767,-0.5897,-0.5763,-0.5763,-0.5897,-0.6297,-0.583,-0.583,-0.5629,-0.5228,-0.4964,-0.4897,-0.5098,-0.5095,-0.5563,-0.5897,-0.583,-0.5763,-0.6231,-0.6364,-0.6698,-0.6902,-0.7036,-0.7036,-0.716,-0.7227,-0.7187,-0.7295,-0.7005,-0.7103,-0.696,-0.6601,-0.6512,-0.5839,-0.4981,-0.492,-0.492,-0.5104,-0.5468,-0.5487,-0.5136,-0.542,-0.5643,-0.5956,-0.6233,-0.6247,-0.6478,-0.6916,-0.736,-0.7692,-0.8297,-0.8993,-0.9328,-0.9399,-0.9302,-0.9071,-0.8937,-0.9019,-0.9088,-0.9229,-1.3397,-1.3397,-1.3397,-1.3397,-1.3231,-1.1967,-1.1552,-1.1712,-1.1717,-1.1712,-1.189,-1.1807,-1.1469,-1.1813,-1.189,-1.1665,-1.1593,-1.1679,-1.1535,-1.1249,-1.0668,-1.0968,-1.0969,-1.0732,-1.091,-1.0773,-1.069,-1.0358,-1.0429,-1.0414,-0.9785,-0.929,-0.9248,-0.9289,-0.8959,-0.8424,-0.7714,-0.7026,-0.6447,-0.6061,-0.5766,-0.4944,-0.4635,-0.4482,-0.4258,-0.4157,-0.4188,-0.4163,-0.4192,-0.4667,-0.4712,-0.5021,-0.5566,-0.57,-0.59,-0.6168,-0.6297,-0.6364,-0.6569,-0.7369,-0.7984,-0.8189,-0.8446,-0.7702,-0.6969,-0.6439,-0.6573,-0.6836,-0.6902,-0.7169,-0.7236,-0.7236,-0.7503,-0.7769,-0.7969,-0.8174,-0.844,-0.8706,-0.8706,-0.864,-0.8706,-0.8635,-0.8593,-0.8672,-0.8815,-0.8759,-0.867,-0.8555,-0.8221,-0.724,-0.6813,-0.6813,-0.6752,-0.6996,-0.6476,-0.606,-0.656,-0.7046,-0.7421,-0.7885,-0.8227,-0.8504,-0.865,-0.8809,-0.8975,-0.9392,-0.9977,-1.0075,-0.9953,-0.9923,-0.9733,-0.9524,-0.9398,-0.9424,-0.9434,-1.3397,-1.339,-1.3336,-1.3315,-1.3302,-1.3254,-1.3281,-1.3363,-1.3302,-1.3322,-1.339,-1.3314,-1.337,-1.3144,-1.313,-1.3063,-1.2923,-1.2588,-1.2476,-1.239,-1.2671,-1.2349,-1.2444,-1.2494,-1.2216,-1.2393,-1.2332,-1.1845,-1.202,-1.1918,-1.1364,-1.0818,-1.0833,-1.0922,-1.0916,-1.0703,-1.0193,-0.9312,-0.8607,-0.8131,-0.7688,-0.7187,-0.6753,-0.6753,-0.6463,-0.6425,-0.6388,-0.6365,-0.6348,-0.6607,-0.6448,-0.7056,-0.7507,-0.7603,-0.7907,-0.8307,-0.8307,-0.8405,-0.8633,-0.9001,-0.9375,-0.974,-1.0245,-0.9685,-0.9012,-0.8483,-0.8456,-0.844,-0.8307,-0.824,-0.8174,-0.8235,-0.8773,-0.931,-0.9576,-0.9782,-1.018,-1.0518,-1.0585,-1.0518,-1.0485,-1.0359,-1.0377,-1.0436,-1.0285,-0.9928,-0.9733,-0.9714,-0.9505,-0.9019,-0.8708,-0.8708,-0.8465,-0.8337,-0.7812,-0.7538,-0.8176,-0.8803,-0.9156,-0.9652,-1.0122,-1.0065,-0.9835,-0.9964,-1.0194,-1.0389,-1.0425,-1.048,-1.0385,-1.0306,-1.0168,-0.9967,-0.9748,-0.9572,-0.9581,-1.3397,-1.339,-1.3247,-1.32,-1.3159,-1.3078,-1.3166,-1.337,-1.3356,-1.3376,-1.337,-1.3376,-1.3288,-1.318,-1.3152,-1.3071,-1.2949,-1.284,-1.2773,-1.2705,-1.2596,-1.2515,-1.2508,-1.2501,-1.2481,-1.2494,-1.2454,-1.2325,-1.2142,-1.2054,-1.2033,-1.2088,-1.2172,-1.2139,-1.1978,-1.1996,-1.1536,-1.1046,-1.0172,-0.954,-0.9184,-0.8275,-0.7331,-0.7548,-0.7621,-0.7539,-0.7522,-0.7406,-0.7274,-0.7733,-0.8238,-0.9032,-0.933,-0.9679,-1.0238,-1.0365,-1.0117,-1.0076,-1.0126,-1.0315,-1.0576,-1.0738,-1.0914,-1.0598,-1.0114,-0.9837,-0.9728,-0.9715,-0.951,-0.951,-0.951,-0.951,-0.9848,-1.0047,-1.018,-1.0319,-1.0452,-1.0717,-1.0784,-1.0784,-1.0836,-1.0847,-1.0902,-1.0884,-1.0714,-1.0592,-1.0483,-1.0504,-1.0482,-1.0179,-1.0119,-1.0112,-0.9808,-0.9566,-0.9734,-0.9633,-1.0074,-1.0539,-1.065,-1.0628,-1.0521,-1.0667,-1.0867,-1.073,-1.0523,-1.0578,-1.0655,-1.0639,-1.059,-1.0493,-1.0379,-1.0331,-1.0152,-0.9916,-0.977,-1.3397,-1.3397,-1.3363,-1.3281,-1.3193,-1.3261,-1.3254,-1.3227,-1.3227,-1.3227,-1.3227,-1.3214,-1.3146,-1.3024,-1.301,-1.2929,-1.2793,-1.2732,-1.2657,-1.2603,-1.2515,-1.2501,-1.2501,-1.2501,-1.2501,-1.2501,-1.2467,-1.2372,-1.2196,-1.2054,-1.202,-1.2203,-1.2345,-1.2366,-1.2359,-1.2291,-1.2149,-1.1878,-1.1457,-1.091,-1.0684,-1.0815,-1.0521,-1.0377,-1.0305,-1.0161,-1.0144,-1.0281,-1.0333,-1.0549,-1.0588,-1.0766,-1.0705,-1.0833,-1.0894,-1.1009,-1.0941,-1.0948,-1.0975,-1.1002,-1.1056,-1.105,-1.1016,-1.0995,-1.0867,-1.0799,-1.0731,-1.0724,-1.0717,-1.0717,-1.0717,-1.0717,-1.0717,-1.0717,-1.0717,-1.0717,-1.0784,-1.085,-1.085,-1.0982,-1.1049,-1.1139,-1.1264,-1.125,-1.1146,-1.101,-1.0797,-1.0793,-1.1035,-1.0906,-1.0732,-1.0725,-1.0664,-1.0604,-1.0906,-1.102,-1.1086,-1.1085,-1.1118,-1.1007,-1.0924,-1.0875,-1.085,-1.0761,-1.0688,-1.0688,-1.0688,-1.0688,-1.0639,-1.0582,-1.0696,-1.0667,-1.0531,-1.0377,-1.01,-1.3207,-1.32,-1.3132,-1.3057,-1.3003,-1.3071,-1.3091,-1.3085,-1.3078,-1.3037,-1.2996,-1.303,-1.2996,-1.2874,-1.2854,-1.2779,-1.2657,-1.263,-1.2583,-1.2522,-1.2501,-1.2501,-1.2501,-1.2501,-1.2501,-1.2488,-1.2345,-1.223,-1.2176,-1.1999,-1.1959,-1.2121,-1.2189,-1.2284,-1.2284,-1.223,-1.2121,-1.1952,-1.183,-1.1735,-1.1647,-1.1619,-1.1619,-1.1619,-1.1619,-1.1619,-1.1619,-1.1619,-1.1572,-1.1413,-1.1359,-1.1291,-1.1177,-1.1055,-1.109,-1.1104,-1.109,-1.1077,-1.1124,-1.1151,-1.1199,-1.1206,-1.1124,-1.1104,-1.1056,-1.0928,-1.0785,-1.0772,-1.0724,-1.0717,-1.0717,-1.0717,-1.0717,-1.0717,-1.0916,-1.1049,-1.1181,-1.1314,-1.138,-1.138,-1.1446,-1.1505,-1.1534,-1.1342,-1.1314,-1.1406,-1.1241,-1.1171,-1.1398,-1.1458,-1.1337,-1.1216,-1.1156,-1.1216,-1.1345,-1.1458,-1.1434,-1.1483,-1.1487,-1.1294,-1.1142,-1.0972,-1.0873,-1.0808,-1.0767,-1.0688,-1.0688,-1.0907,-1.0743,-1.0647,-1.0824,-1.0991,-1.096,-1.1141,-1.1308,-1.305,-1.2935,-1.2827,-1.2766,-1.2759,-1.2766,-1.2847,-1.2949,-1.2942,-1.2861,-1.2773,-1.2861,-1.2807,-1.2739,-1.2698,-1.2603,-1.2549,-1.2549,-1.2508,-1.2501,-1.2501,-1.2501,-1.2501,-1.2501,-1.2501,-1.242,-1.2277,-1.2196,-1.2142,-1.1986,-1.1918,-1.1938,-1.2081,-1.2271,-1.2318,-1.2325,-1.2244,-1.204,-1.1904,-1.183,-1.1728,-1.1619,-1.1619,-1.1619,-1.1619,-1.1619,-1.1619,-1.1619,-1.1619,-1.1579,-1.1504,-1.1457,-1.1382,-1.1287,-1.126,-1.1253,-1.1226,-1.126,-1.1314,-1.1294,-1.1389,-1.1423,-1.1287,-1.1268,-1.1227,-1.1111,-1.0968,-1.0912,-1.0871,-1.0784,-1.0784,-1.0784,-1.0784,-1.0916,-1.1181,-1.138,-1.1578,-1.1776,-1.1776,-1.1784,-1.185,-1.185,-1.1788,-1.1592,-1.1568,-1.1728,-1.1705,-1.1715,-1.1647,-1.1647,-1.1587,-1.1587,-1.1526,-1.1655,-1.1716,-1.1708,-1.1692,-1.1683,-1.1611,-1.1524,-1.1338,-1.1078,-1.0939,-1.0849,-1.0808,-1.1088,-1.1236,-1.1391,-1.1181,-1.1227,-1.1901,-1.245,-1.2538,-1.2772,-1.3085,-1.3043,-1.3036,-1.2929,-1.2988,-1.2988,-1.2988,-1.2935,-1.3015,-1.282,-1.2752,-1.2705,-1.261,-1.2562,-1.2549,-1.2542,-1.2515,-1.2515,-1.2501,-1.2501,-1.2501,-1.2501,-1.2501,-1.2501,-1.2501,-1.2501,-1.242,-1.2325,-1.2264,-1.2169,-1.2067,-1.2074,-1.2162,-1.2054,-1.2169,-1.2271,-1.225,-1.2149,-1.1993,-1.1911,-1.1823,-1.1694,-1.1619,-1.1619,-1.1619,-1.1619,-1.1619,-1.1619,-1.1619,-1.1619,-1.1606,-1.1586,-1.1558,-1.1511,-1.1436,-1.1409,-1.1416,-1.1389,-1.1375,-1.1402,-1.145,-1.1545,-1.147,-1.1432,-1.1545,-1.1532,-1.153,-1.1429,-1.1364,-1.1314,-1.1049,-1.1049,-1.1115,-1.1181,-1.1446,-1.171,-1.1718,-1.185,-1.1916,-1.1982,-1.2114,-1.218,-1.2289,-1.2439,-1.2226,-1.1996,-1.1995,-1.1803,-1.1825,-1.1776,-1.1776,-1.1837,-1.1837,-1.1837,-1.1837,-1.1776,-1.1776,-1.1768,-1.1776,-1.1864,-1.1784,-1.1586,-1.1208,-1.1093,-1.1646,-1.1753,-1.191,-1.2001,-1.2309,-1.2526,-1.2797,-1.3609,-1.4126,-1.4169,-1.4297,-1.4593]},{"header":{"parameterUnit":"m.s-1","parameterCategory":1,"la1":31.0,"la2":29.5877,"lo1":-88.7671,"lo2":-86.6584,"dy":0.0162,"dx":0.0185,"nx":115,"ny":88,"refTime":"2026-04-29T12:00:00:Z","depth":0,"parameterNumber":3,"parameterNumberName":"V-component_of_WINDS"},"data":[0.0,0.0,0.0,0.0,0.0,0.0,0.0,0.0,0.0,0.0,0.0,0.0,0.0,0.0,0.0,0.0,0.0,0.0,0.0,0.0,0.0,0.0,0.0,0.0,0.0,0.0,0.0,0.0,0.0,0.0,0.0,0.0,0.0,0.0,0.0,0.0,0.0,0.0,0.0,0.0,0.0,0.0,0.0,0.0,0.0,0.0,0.0,0.0,0.0,0.0,0.0,0.0,0.0,0.0,0.0,0.0,0.0,0.0,0.0,0.0,0.0,0.0,0.0,0.0,0.0,0.0,0.0,0.0,0.0,0.0,0.0,0.0,0.0,0.0,0.0,0.0,0.0,0.0,0.0,0.0,0.0,0.0,0.0,0.0,0.0,0.0,0.0,0.0,0.0,0.0,0.0,0.0,0.0,0.0,0.0,0.0,0.0,0.0,0.0,0.0,0.0,0.0,0.0,0.0,0.0,0.0,0.0,0.0,0.0,0.0,0.0,0.0,0.0,0.0,0.0,0.0,0.0,0.0,0.0,0.0,0.0,0.0,0.0,0.0,0.0,0.0,0.0,0.0,0.0,0.0,0.0,0.0,0.0,0.0,0.0,0.0,0.0,0.0,0.0,0.0,0.0,0.0,0.0,0.0,0.0,0.0,0.0,0.0,0.0,0.0,0.0,0.0,0.0,0.0,0.0,0.0,0.0,0.0,0.0,0.0,0.0,0.0,0.0,0.0,0.0,0.0,0.0,0.0,0.0,0.0,0.0,0.0,0.0,0.0,0.0,0.0,0.0,0.0,0.0,0.0,0.0,0.0,0.0,0.0,0.0,0.0,0.0,0.0,0.0,0.0,0.0,0.0,0.0,0.0,0.0,0.0,0.0,0.0,0.0,0.0,0.0,0.0,0.0,0.0,0.0,0.0,0.0,0.0,0.0,0.0,0.0,0.0,0.0,0.0,0.0,0.0,0.0,0.0,0.0,0.0,0.0,0.0,0.0,0.0,0.0,0.0,0.0,0.0,0.0,0.0,0.0,0.0,0.0,0.0,0.0,0.0,0.0,0.0,0.0,0.0,0.0,0.0,0.0,0.0,0.0,0.0,0.0,0.0,0.0,0.0,0.0,0.0,0.0,0.0,0.0,0.0,0.0,0.0,0.0,0.0,0.0,0.0,0.0,0.0,0.0,0.0,0.0,0.0,0.0,0.0,0.0,0.0,0.0,0.0,0.0,0.0,0.0,0.0,0.0,0.0,0.0,0.0,0.0,0.0,0.0,0.0,0.0,0.0,0.0,0.0,0.0,0.0,0.0,0.0,0.0,0.0,0.0,0.0,0.0,0.0,0.0,0.0,0.0,0.0,0.0,0.0,0.0,0.0,0.0,0.0,0.0,0.0,0.0,0.0,0.0,0.0,0.0,0.0,0.0,0.0,0.0,0.0,0.0,0.0,0.0,0.0,0.0,0.0,0.0,0.0,0.0,0.0,0.0,0.0,0.0,0.0,0.0,0.0,0.0,0.0,0.0,0.0,0.0,0.0,0.0,0.0,0.0,0.0,0.0,0.0,0.0,0.0,0.0,0.0,0.0,0.0,0.0,0.0,0.0,0.0,0.0,0.0,0.0,0.0,0.0,0.0,0.0,0.0,0.0,0.0,0.0,0.0,0.0,0.0,0.0,0.0,0.0,0.0,0.0,0.0,0.0,0.0,0.0,0.0,0.0,0.0,0.0,0.0,0.0,0.0,0.0,0.0,0.0,0.0,0.0,0.0,0.0,0.0,0.0,0.0,0.0,0.0,0.0,0.0,0.0,0.0,0.0,0.0,0.0,0.0,0.0,0.0,0.0,0.0,0.0,0.0,0.0,0.0,0.0,0.0,0.0,0.0,0.0,0.0,0.0,0.0,0.0,0.0,0.0,0.0,0.0,0.0,0.0,0.0,0.0,0.0,0.0,0.0,0.0,0.0,0.0,0.0,0.0,0.0,0.0,0.0,0.0,0.0,0.0,0.0,0.0,0.0,0.0,0.0,0.0,0.0,0.0,0.0,0.0,0.0,0.0,0.0,0.0,0.0,0.0,0.0,0.0,0.0,0.0,0.0,0.0,0.0,0.0,0.0,0.0,0.0,0.0,0.0,0.0,0.0,0.0,0.0,0.0,0.0,0.0,0.0,0.0,0.0,0.0,0.0,0.0,0.0,0.0,0.0,0.0,0.0,0.0,0.0,0.0,0.0,0.0,0.0,0.0,0.0,0.0,0.0,0.0,0.0,0.0,0.0,0.0,0.0,0.0,0.0,0.0,0.0,0.0,0.0,0.0,0.0,0.0,0.0,0.0,0.0,0.0,0.0,0.0,0.0,0.0,0.0,0.0,0.0,0.0,0.0,0.0,0.0,0.0,0.0,0.0,0.0,0.0,0.0,0.0,0.0,0.0,0.0,0.0,0.0,0.0,0.0,0.0,0.0,0.0,0.0,0.0,0.0,0.0,0.0,0.0,0.0,0.0,0.0,0.0,0.0,0.0,0.0,0.0,0.0,0.0,0.0,0.0,0.0,0.0,0.0,0.0,0.0,0.0,0.0,0.0,0.0,0.0,0.0,0.0,0.0,0.0,0.0,0.0,0.0,0.0,0.0,0.0,0.0,0.0,0.0,0.0,0.0,0.0,0.0,0.0,0.0,0.0,0.0,0.0,0.0,0.0,0.0,0.0,0.0,0.0,0.0,0.0,0.0,0.0,0.0,0.0,0.0,0.0,0.0,0.0,0.0,0.0,0.0,0.0,0.0,0.0,0.0,0.0,0.0,0.0,0.0,0.0,0.0,0.0,0.0,0.0,0.0,0.0,0.0,0.0,0.0,0.0,0.0,0.0,0.0,0.0,0.0,0.0,0.0,0.0,0.0,0.0,0.0,0.0,0.0,0.0,0.0,0.0,0.0,0.0,0.0,0.0,0.0,0.0,0.0,0.0,0.0,0.0,0.0,0.0,0.0,0.0,0.0,0.0,0.0,0.0,0.0,0.0,0.0,0.0,0.0,0.0,0.0,0.0,0.0,0.0,0.0,0.0,0.0,0.0,0.0,0.0,0.0,0.0,0.0,0.0,0.0,0.0,0.0,0.0,0.0,0.0,0.0,0.0,0.0,0.0,0.0,0.0,0.0,0.0,0.0,0.0,0.0,0.0,0.0,0.0,0.0,0.0,0.0,0.0,0.0,0.0,0.0,0.0,0.0,0.0,0.0,0.0,0.0,0.0,0.0,0.0,0.0,0.0,0.0,0.0,0.0,0.0,0.0,0.0,0.0,0.0,0.0,0.0,0.0,0.0,0.0,0.0,0.0,0.0,0.0,0.0,0.0,0.0,0.0,0.0,0.0,0.0,0.0,0.0,0.0,0.0,0.0,0.0,0.0,0.0,0.0,0.0,0.0,0.0,0.0,0.0,0.0,0.0,0.0,0.0,0.0,0.0,0.0,0.0,0.0,0.0,0.0,0.0,0.0,0.0,0.0,0.0,0.0,0.0,0.0,0.0,0.0,0.0,0.0,0.0,0.0,0.0,0.0,0.0,0.0,0.0,0.0,0.0,0.0,0.0,0.0,0.0,0.0,0.0,0.0,0.0,0.0,0.0,0.0,0.0,0.0,0.0,0.0,0.0,0.0,0.0,0.0,0.0,0.0,0.0,0.0,0.0,0.0,0.0,0.0,0.0,0.0,0.0,0.0,0.0,0.0,0.0,0.0,0.0,0.0,0.0,0.0,0.0,0.0,0.0,0.0,0.0,0.0,0.0,0.0,0.0,0.0,0.0,0.0,0.0,0.0,0.0,0.0,0.0,0.0,0.0,0.0,0.0,0.0,0.0,0.0,0.0,0.0,0.0,0.0,0.0,0.0,0.0,0.0,0.0,0.0,0.0,0.0,0.0,0.0,0.0,0.0,0.0,0.0,0.0,0.0,0.0,0.0,0.0,0.0,0.0,0.0,0.0,0.0,0.0,0.0,0.0,0.0,0.0,0.0,0.0,0.0,0.0,0.0,0.0,0.0,0.0,0.0,0.0,0.0,0.0,0.0,0.0,0.0,0.0,0.0,0.0,0.0,0.0,0.0,0.0,0.0,0.0,0.0,0.0,0.0,0.0,0.0,0.0,0.0,0.0,0.0,0.0,0.0,0.0,0.0,0.0,0.0,0.0,0.0,0.0,0.0,0.0,0.0,0.0,0.0,0.0,0.0,0.0,0.0,0.0,0.0,0.0,0.0,0.0,0.0,0.0,0.0,0.0,0.0,0.0,0.0,0.0,0.0,0.0,0.0,2.5536,0.0,0.0,0.0,0.0,0.0,0.0,0.0,0.0,0.0,0.0,0.0,0.0,0.0,0.0,0.0,0.0,0.0,0.0,0.0,0.0,0.0,0.0,0.0,0.0,0.0,0.0,0.0,0.0,0.0,0.0,0.0,0.0,0.0,0.0,0.0,0.0,0.0,0.0,0.0,0.0,0.0,0.0,0.0,0.0,0.0,0.0,0.0,0.0,0.0,0.0,0.0,0.0,0.0,0.0,0.0,0.0,0.0,0.0,0.0,0.0,0.0,0.0,0.0,0.0,0.0,0.0,0.0,0.0,0.0,0.0,0.0,0.0,0.0,0.0,0.0,0.0,0.0,0.0,0.0,0.0,0.0,0.0,0.0,0.0,0.0,0.0,0.0,0.0,0.0,0.0,0.0,0.0,0.0,0.0,0.0,0.0,0.0,0.0,0.0,0.0,0.0,0.0,0.0,0.0,0.0,0.0,0.0,0.0,0.0,0.0,2.8549,2.8549,2.8021,2.7067,2.5636,0.0,0.0,0.0,0.0,0.0,0.0,0.0,0.0,0.0,0.0,0.0,0.0,0.0,0.0,0.0,0.0,0.0,0.0,0.0,0.0,0.0,0.0,0.0,0.0,0.0,0.0,0.0,0.0,0.0,0.0,0.0,0.0,0.0,0.0,0.0,0.0,0.0,0.0,0.0,0.0,0.0,0.0,0.0,0.0,0.0,0.0,0.0,0.0,0.0,0.0,0.0,0.0,0.0,0.0,0.0,0.0,0.0,0.0,0.0,0.0,0.0,0.0,0.0,0.0,0.0,0.0,0.0,0.0,0.0,0.0,0.0,0.0,0.0,0.0,0.0,0.0,0.0,0.0,0.0,0.0,0.0,0.0,0.0,0.0,0.0,0.0,0.0,0.0,0.0,0.0,0.0,0.0,0.0,0.0,0.0,0.0,0.0,0.0,0.0,0.0,0.0,0.0,0.0,0.0,0.0,0.0,0.0,0.0,0.0,0.0,0.0,0.0,2.8775,2.7645,2.5862,0.0,0.0,0.0,0.0,0.0,0.0,0.0,0.0,0.0,0.0,0.0,0.0,0.0,0.0,0.0,0.0,0.0,0.0,0.0,0.0,0.0,0.0,0.0,0.0,0.0,0.0,0.0,0.0,0.0,0.0,0.0,0.0,0.0,0.0,0.0,0.0,0.0,0.0,0.0,0.0,0.0,0.0,0.0,0.0,0.0,0.0,0.0,0.0,0.0,0.0,0.0,0.0,0.0,0.0,0.0,0.0,0.0,0.0,0.0,0.0,0.0,0.0,0.0,0.0,0.0,0.0,0.0,0.0,0.0,0.0,0.0,0.0,0.0,0.0,0.0,0.0,0.0,0.0,0.0,0.0,0.0,0.0,0.0,0.0,0.0,0.0,0.0,0.0,0.0,0.0,0.0,0.0,0.0,0.0,0.0,0.0,0.0,0.0,0.0,0.0,0.0,0.0,0.0,0.0,0.0,0.0,0.0,0.0,0.0,0.0,2.9389,3.0407,2.9905,0.0,2.6575,0.0,0.0,0.0,0.0,0.0,0.0,0.0,0.0,0.0,0.0,0.0,0.0,0.0,0.0,0.0,0.0,0.0,0.0,0.0,0.0,0.0,0.0,0.0,0.0,0.0,0.0,0.0,0.0,0.0,0.0,0.0,0.0,0.0,0.0,0.0,0.0,0.0,0.0,0.0,0.0,0.0,0.0,0.0,0.0,0.0,0.0,0.0,0.0,0.0,0.0,0.0,0.0,0.0,0.0,0.0,0.0,0.0,0.0,0.0,0.0,0.0,0.0,0.0,0.0,0.0,0.0,0.0,0.0,0.0,0.0,0.0,0.0,0.0,0.0,0.0,0.0,0.0,0.0,0.0,0.0,0.0,0.0,0.0,0.0,0.0,0.0,0.0,0.0,0.0,0.0,0.0,0.0,0.0,0.0,0.0,0.0,0.0,0.0,0.0,0.0,0.0,0.0,0.0,0.0,0.0,0.0,0.0,0.0,0.0,0.0,3.0326,3.0741,2.9177,2.7792,0.0,0.0,0.0,0.0,0.0,0.0,0.0,0.0,0.0,0.0,0.0,0.0,0.0,0.0,0.0,0.0,0.0,0.0,0.0,0.0,0.0,0.0,0.0,0.0,0.0,0.0,0.0,0.0,0.0,0.0,0.0,0.0,0.0,0.0,0.0,0.0,0.0,0.0,0.0,0.0,0.0,0.0,0.0,0.0,0.0,0.0,0.0,0.0,0.0,0.0,0.0,0.0,0.0,0.0,0.0,0.0,0.0,0.0,0.0,0.0,0.0,0.0,0.0,0.0,0.0,0.0,0.0,0.0,0.0,0.0,0.0,0.0,0.0,0.0,0.0,0.0,0.0,0.0,0.0,0.0,0.0,0.0,0.0,0.0,0.0,0.0,0.0,0.0,0.0,0.0,0.0,0.0,0.0,0.0,0.0,0.0,0.0,0.0,0.0,0.0,0.0,0.0,0.0,0.0,0.0,0.0,0.0,0.0,0.0,0.0,3.0699,3.0978,3.0902,2.9704,2.8379,2.7113,0.0,0.0,0.0,0.0,0.0,0.0,0.0,0.0,0.0,0.0,0.0,0.0,0.0,0.0,0.0,0.0,0.0,0.0,0.0,0.0,0.0,0.0,0.0,0.0,0.0,0.0,0.0,0.0,0.0,0.0,0.0,0.0,0.0,0.0,0.0,0.0,0.0,0.0,0.0,0.0,0.0,0.0,0.0,0.0,0.0,0.0,0.0,0.0,0.0,0.0,0.0,0.0,0.0,0.0,0.0,0.0,0.0,0.0,0.0,0.0,0.0,0.0,0.0,0.0,0.0,0.0,0.0,0.0,0.0,0.0,0.0,0.0,0.0,0.0,0.0,0.0,0.0,0.0,0.0,0.0,0.0,0.0,0.0,0.0,0.0,0.0,0.0,0.0,0.0,0.0,0.0,0.0,0.0,0.0,0.0,0.0,0.0,0.0,0.0,0.0,0.0,0.0,0.0,0.0,0.0,0.0,0.0,0.0,0.0,3.0738,3.1018,3.1265,3.2358,3.1362,0.0,0.0,0.0,0.0,0.0,0.0,0.0,0.0,0.0,0.0,0.0,0.0,0.0,0.0,0.0,0.0,0.0,0.0,0.0,0.0,0.0,0.0,0.0,0.0,0.0,0.0,0.0,0.0,0.0,0.0,0.0,0.0,0.0,0.0,0.0,0.0,0.0,0.0,0.0,0.0,0.0,0.0,0.0,0.0,0.0,0.0,0.0,0.0,0.0,0.0,0.0,0.0,0.0,0.0,0.0,0.0,0.0,0.0,0.0,0.0,0.0,0.0,0.0,0.0,0.0,0.0,0.0,0.0,0.0,0.0,0.0,0.0,0.0,0.0,0.0,0.0,0.0,0.0,0.0,0.0,0.0,0.0,0.0,0.0,0.0,0.0,0.0,0.0,0.0,0.0,0.0,0.0,0.0,0.0,0.0,0.0,0.0,0.0,0.0,0.0,0.0,0.0,0.0,0.0,0.0,0.0,0.0,0.0,0.0,2.9804,3.1237,3.2657,3.394,3.2171,3.0528,0.0,0.0,0.0,0.0,0.0,0.0,0.0,0.0,0.0,0.0,0.0,0.0,0.0,0.0,0.0,0.0,0.0,0.0,0.0,0.0,0.0,0.0,0.0,0.0,0.0,0.0,0.0,0.0,0.0,0.0,0.0,0.0,0.0,0.0,0.0,0.0,0.0,0.0,0.0,0.0,0.0,0.0,0.0,0.0,0.0,0.0,0.0,0.0,0.0,0.0,0.0,0.0,0.0,0.0,0.0,0.0,0.0,0.0,0.0,0.0,0.0,0.0,0.0,0.0,0.0,0.0,0.0,0.0,0.0,0.0,0.0,0.0,0.0,0.0,0.0,0.0,0.0,0.0,0.0,0.0,0.0,0.0,0.0,0.0,0.0,0.0,0.0,0.0,0.0,0.0,0.0,0.0,0.0,0.0,0.0,0.0,0.0,0.0,0.0,0.0,0.0,0.0,0.0,0.0,0.0,0.0,0.0,0.0,0.0,3.0559,0.0,3.4323,0.0,3.2563,3.0769,0.0,0.0,0.0,0.0,0.0,0.0,0.0,0.0,0.0,0.0,0.0,0.0,0.0,0.0,0.0,0.0,0.0,0.0,0.0,0.0,0.0,0.0,0.0,0.0,0.0,0.0,0.0,0.0,0.0,0.0,0.0,0.0,0.0,0.0,0.0,0.0,0.0,0.0,0.0,0.0,0.0,0.0,0.0,0.0,0.0,0.0,0.0,0.0,0.0,0.0,0.0,0.0,0.0,0.0,0.0,0.0,0.0,0.0,0.0,0.0,0.0,0.0,0.0,0.0,0.0,0.0,0.0,0.0,0.0,0.0,0.0,0.0,0.0,0.0,0.0,0.0,0.0,0.0,0.0,0.0,0.0,0.0,0.0,0.0,0.0,0.0,0.0,0.0,0.0,0.0,0.0,0.0,0.0,0.0,0.0,0.0,0.0,0.0,0.0,0.0,0.0,0.0,0.0,0.0,0.0,0.0,0.0,0.0,2.9724,3.2701,3.5447,3.5761,3.341,3.3876,3.2483,0.0,0.0,0.0,0.0,0.0,0.0,0.0,0.0,0.0,0.0,0.0,0.0,0.0,0.0,0.0,0.0,0.0,0.0,0.0,0.0,0.0,0.0,0.0,0.0,0.0,0.0,0.0,0.0,0.0,0.0,0.0,0.0,0.0,0.0,0.0,0.0,0.0,0.0,0.0,0.0,0.0,0.0,0.0,0.0,0.0,0.0,0.0,0.0,0.0,0.0,0.0,0.0,0.0,0.0,0.0,0.0,0.0,0.0,0.0,0.0,0.0,0.0,0.0,0.0,0.0,0.0,0.0,0.0,0.0,0.0,0.0,0.0,0.0,0.0,0.0,0.0,0.0,0.0,0.0,0.0,0.0,0.0,0.0,0.0,0.0,0.0,0.0,0.0,0.0,0.0,0.0,0.0,0.0,0.0,0.0,0.0,0.0,0.0,0.0,0.0,0.0,0.0,0.0,0.0,0.0,0.0,0.0,0.0,0.0,3.3104,3.5337,3.6576,3.6649,3.4769,3.3206,0.0,0.0,0.0,0.0,0.0,0.0,0.0,0.0,0.0,0.0,0.0,0.0,0.0,0.0,0.0,0.0,0.0,0.0,0.0,0.0,0.0,0.0,0.0,0.0,0.0,0.0,0.0,0.0,0.0,0.0,0.0,0.0,0.0,0.0,0.0,0.0,0.0,0.0,0.0,0.0,0.0,0.0,0.0,0.0,0.0,0.0,0.0,0.0,0.0,0.0,0.0,0.0,0.0,0.0,0.0,0.0,0.0,0.0,0.0,0.0,0.0,0.0,0.0,0.0,0.0,0.0,0.0,0.0,0.0,0.0,0.0,0.0,0.0,0.0,0.0,0.0,0.0,0.0,0.0,0.0,0.0,0.0,0.0,0.0,0.0,0.0,0.0,0.0,0.0,0.0,0.0,0.0,0.0,0.0,0.0,0.0,0.0,0.0,0.0,0.0,0.0,0.0,0.0,0.0,0.0,0.0,0.0,0.0,0.0,3.561,3.7528,3.8605,3.8723,3.6034,3.4143,3.3095,0.0,0.0,0.0,0.0,0.0,0.0,0.0,0.0,0.0,0.0,0.0,0.0,0.0,0.0,0.0,0.0,0.0,0.0,0.0,0.0,0.0,0.0,0.0,0.0,0.0,0.0,0.0,0.0,0.0,0.0,0.0,0.0,0.0,0.0,0.0,0.0,0.0,0.0,0.0,0.0,0.0,0.0,0.0,0.0,0.0,0.0,0.0,0.0,0.0,0.0,0.0,0.0,0.0,0.0,0.0,0.0,0.0,0.0,0.0,0.0,0.0,0.0,0.0,0.0,0.0,0.0,0.0,0.0,0.0,0.0,0.0,0.0,0.0,0.0,0.0,0.0,0.0,0.0,0.0,0.0,0.0,0.0,0.0,0.0,0.0,0.0,0.0,0.0,0.0,0.0,0.0,0.0,0.0,0.0,0.0,0.0,0.0,0.0,0.0,0.0,0.0,0.0,0.0,0.0,0.0,0.0,0.0,0.0,3.9529,4.1512,4.1594,3.9672,3.7674,3.537,0.0,0.0,0.0,0.0,0.0,0.0,0.0,0.0,0.0,0.0,0.0,0.0,0.0,0.0,0.0,0.0,0.0,0.0,0.0,0.0,0.0,0.0,0.0,0.0,0.0,0.0,0.0,0.0,0.0,0.0,0.0,0.0,0.0,0.0,0.0,0.0,0.0,0.0,0.0,0.0,0.0,0.0,0.0,0.0,0.0,0.0,0.0,0.0,0.0,0.0,0.0,0.0,0.0,0.0,0.0,0.0,0.0,0.0,0.0,0.0,0.0,0.0,0.0,0.0,0.0,0.0,0.0,0.0,0.0,0.0,0.0,0.0,0.0,0.0,0.0,0.0,0.0,0.0,0.0,0.0,0.0,0.0,0.0,0.0,0.0,0.0,0.0,0.0,0.0,0.0,0.0,0.0,0.0,0.0,0.0,0.0,0.0,0.0,0.0,0.0,0.0,0.0,0.0,0.0,0.0,0.0,0.0,0.0,0.0,4.0876,4.3269,4.3808,4.2273,3.9439,3.7135,0.0,0.0,0.0,0.0,0.0,0.0,0.0,0.0,0.0,0.0,0.0,0.0,0.0,0.0,0.0,0.0,0.0,0.0,0.0,0.0,0.0,0.0,0.0,0.0,0.0,0.0,0.0,0.0,0.0,0.0,0.0,0.0,0.0,0.0,0.0,0.0,0.0,0.0,0.0,0.0,0.0,0.0,0.0,0.0,0.0,0.0,0.0,0.0,0.0,0.0,0.0,0.0,0.0,0.0,0.0,0.0,0.0,0.0,0.0,0.0,0.0,0.0,0.0,0.0,0.0,0.0,0.0,0.0,0.0,0.0,0.0,0.0,0.0,0.0,0.0,0.0,0.0,0.0,0.0,0.0,0.0,0.0,0.0,0.0,0.0,0.0,0.0,0.0,0.0,0.0,0.0,0.0,0.0,0.0,0.0,0.0,0.0,0.0,0.0,0.0,0.0,0.0,0.0,0.0,0.0,0.0,0.0,0.0,4.0487,4.2192,4.4766,4.5633,4.4575,4.1654,3.905,0.0,0.0,0.0,0.0,0.0,0.0,0.0,0.0,0.0,0.0,0.0,0.0,0.0,0.0,0.0,0.0,0.0,0.0,0.0,0.0,0.0,0.0,0.0,0.0,0.0,0.0,0.0,0.0,0.0,0.0,0.0,0.0,0.0,0.0,0.0,0.0,0.0,0.0,0.0,0.0,0.0,0.0,0.0,0.0,0.0,0.0,0.0,0.0,0.0,0.0,0.0,0.0,0.0,0.0,0.0,0.0,0.0,0.0,0.0,0.0,0.0,0.0,0.0,0.0,0.0,0.0,0.0,0.0,0.0,0.0,0.0,0.0,0.0,0.0,0.0,0.0,0.0,0.0,0.0,0.0,0.0,0.0,0.0,0.0,0.0,0.0,0.0,0.0,0.0,0.0,0.0,0.0,0.0,0.0,0.0,0.0,0.0,0.0,0.0,0.0,0.0,0.0,0.0,0.0,0.0,0.0,0.0,0.0,4.2102,4.3379,4.5963,4.701,4.6339,4.3818,4.0883,0.0,0.0,0.0,0.0,0.0,0.0,0.0,0.0,0.0,0.0,0.0,0.0,0.0,0.0,0.0,0.0,0.0,0.0,0.0,0.0,0.0,0.0,0.0,0.0,0.0,0.0,0.0,0.0,0.0,0.0,0.0,0.0,0.0,0.0,0.0,0.0,0.0,0.0,0.0,0.0,0.0,0.0,0.0,0.0,0.0,0.0,0.0,0.0,0.0,0.0,0.0,0.0,0.0,0.0,0.0,0.0,0.0,0.0,0.0,0.0,0.0,0.0,0.0,0.0,0.0,0.0,0.0,0.0,0.0,0.0,0.0,0.0,0.0,0.0,0.0,0.0,0.0,0.0,0.0,0.0,0.0,0.0,0.0,0.0,0.0,0.0,0.0,0.0,0.0,0.0,0.0,0.0,0.0,0.0,0.0,0.0,0.0,0.0,0.0,0.0,0.0,0.0,0.0,0.0,0.0,0.0,0.0,0.0,4.2791,4.4067,4.6202,4.7249,4.707,4.4058,4.1063,0.0,0.0,0.0,0.0,0.0,0.0,0.0,0.0,0.0,0.0,0.0,0.0,0.0,0.0,0.0,0.0,0.0,0.0,0.0,0.0,0.0,0.0,0.0,0.0,0.0,0.0,0.0,0.0,0.0,0.0,0.0,0.0,0.0,0.0,0.0,0.0,0.0,0.0,0.0,0.0,0.0,0.0,0.0,0.0,0.0,0.0,0.0,0.0,2.9827,0.0,0.0,0.0,0.0,0.0,0.0,0.0,0.0,0.0,0.0,0.0,0.0,0.0,0.0,0.0,0.0,0.0,0.0,0.0,0.0,0.0,0.0,0.0,0.0,0.0,0.0,0.0,0.0,0.0,0.0,0.0,0.0,0.0,0.0,0.0,0.0,0.0,0.0,0.0,0.0,0.0,0.0,0.0,0.0,0.0,0.0,0.0,0.0,0.0,0.0,0.0,0.0,0.0,0.0,0.0,0.0,0.0,0.0,0.0,4.3907,4.4777,4.7189,4.8129,4.7376,4.5498,4.2694,0.0,0.0,0.0,0.0,0.0,0.0,0.0,0.0,0.0,0.0,0.0,0.0,0.0,0.0,0.0,0.0,0.0,0.0,0.0,0.0,0.0,0.0,0.0,0.0,0.0,0.0,0.0,0.0,0.0,0.0,0.0,0.0,0.0,0.0,0.0,0.0,0.0,0.0,0.0,0.0,0.0,0.0,0.0,0.0,0.0,0.0,0.0,0.0,0.0,0.0,0.0,0.0,0.0,0.0,0.0,0.0,0.0,0.0,0.0,0.0,0.0,0.0,0.0,0.0,0.0,0.0,0.0,0.0,0.0,0.0,0.0,0.0,0.0,0.0,0.0,0.0,0.0,0.0,0.0,0.0,0.0,0.0,0.0,0.0,0.0,0.0,0.0,0.0,0.0,0.0,0.0,0.0,0.0,0.0,0.0,0.0,0.0,0.0,0.0,0.0,0.0,0.0,0.0,0.0,0.0,0.0,0.0,4.2625,4.4893,4.602,4.84,4.9039,4.776,4.7031,4.4434,3.9778,0.0,0.0,0.0,0.0,0.0,0.0,0.0,0.0,0.0,0.0,0.0,0.0,0.0,0.0,0.0,0.0,0.0,0.0,0.0,0.0,0.0,0.0,0.0,0.0,0.0,0.0,0.0,0.0,0.0,0.0,0.0,0.0,0.0,0.0,0.0,0.0,0.0,0.0,2.8914,3.0566,0.0,0.0,0.0,0.0,0.0,0.0,0.0,0.0,3.0898,0.0,0.0,0.0,0.0,0.0,0.0,0.0,0.0,0.0,0.0,0.0,0.0,0.0,0.0,0.0,0.0,0.0,0.0,0.0,0.0,0.0,0.0,0.0,0.0,0.0,0.0,0.0,0.0,0.0,0.0,0.0,0.0,0.0,0.0,0.0,0.0,0.0,0.0,0.0,0.0,0.0,0.0,0.0,0.0,0.0,0.0,0.0,0.0,0.0,0.0,0.0,0.0,0.0,0.0,0.0,0.0,4.2652,4.2875,4.4905,4.8937,4.8954,4.885,4.8692,4.6945,4.425,4.0699,0.0,0.0,0.0,0.0,0.0,0.0,0.0,0.0,0.0,0.0,0.0,0.0,0.0,0.0,0.0,0.0,0.0,0.0,0.0,0.0,0.0,0.0,0.0,0.0,0.0,0.0,0.0,0.0,0.0,0.0,0.0,0.0,0.0,0.0,0.0,0.0,0.0,0.0,0.0,3.2185,3.3066,0.0,0.0,0.0,0.0,0.0,0.0,0.0,0.0,3.0879,0.0,0.0,0.0,0.0,0.0,0.0,0.0,0.0,0.0,0.0,0.0,0.0,0.0,0.0,0.0,0.0,0.0,0.0,0.0,0.0,0.0,0.0,0.0,0.0,0.0,0.0,0.0,0.0,0.0,0.0,0.0,0.0,0.0,0.0,0.0,0.0,0.0,0.0,0.0,0.0,0.0,0.0,0.0,0.0,0.0,0.0,0.0,0.0,0.0,0.0,0.0,0.0,0.0,0.0,0.0,4.2372,4.4923,4.728,4.9335,4.9983,4.9953,4.9171,4.7127,4.4527,0.0,0.0,0.0,0.0,0.0,0.0,0.0,0.0,0.0,0.0,0.0,0.0,0.0,0.0,0.0,0.0,0.0,0.0,0.0,0.0,0.0,0.0,0.0,0.0,0.0,0.0,0.0,0.0,0.0,0.0,0.0,0.0,0.0,0.0,0.0,0.0,0.0,0.0,0.0,0.0,3.3545,3.4593,3.5273,0.0,0.0,0.0,0.0,0.0,0.0,3.2273,3.1855,0.0,0.0,0.0,0.0,0.0,0.0,0.0,0.0,0.0,0.0,0.0,0.0,0.0,0.0,0.0,0.0,0.0,0.0,0.0,0.0,0.0,0.0,0.0,0.0,0.0,0.0,0.0,0.0,0.0,0.0,0.0,0.0,0.0,0.0,0.0,0.0,0.0,0.0,0.0,0.0,0.0,0.0,0.0,0.0,0.0,0.0,0.0,0.0,0.0,0.0,0.0,0.0,0.0,0.0,0.0,4.1788,4.6388,4.8957,4.9383,5.0643,5.0759,4.9516,4.7263,4.4675,0.0,0.0,0.0,0.0,0.0,0.0,0.0,0.0,0.0,0.0,0.0,0.0,0.0,0.0,0.0,0.0,0.0,0.0,0.0,0.0,0.0,0.0,0.0,0.0,0.0,0.0,0.0,0.0,0.0,0.0,0.0,0.0,0.0,0.0,0.0,0.0,0.0,0.0,0.0,0.0,0.0,3.6424,3.7181,3.6313,0.0,0.0,0.0,0.0,3.3842,3.4041,0.0,0.0,0.0,0.0,0.0,0.0,0.0,0.0,0.0,0.0,0.0,0.0,0.0,0.0,0.0,0.0,0.0,0.0,0.0,0.0,0.0,0.0,0.0,0.0,0.0,0.0,0.0,0.0,0.0,0.0,0.0,0.0,0.0,0.0,0.0,0.0,0.0,0.0,0.0,0.0,0.0,0.0,0.0,0.0,0.0,0.0,0.0,0.0,0.0,0.0,0.0,0.0,0.0,0.0,0.0,0.0,4.2641,4.4876,4.7471,5.0325,5.0092,4.9822,4.9687,4.6996,4.4409,0.0,0.0,0.0,0.0,0.0,0.0,0.0,0.0,0.0,0.0,0.0,0.0,0.0,0.0,0.0,0.0,0.0,0.0,0.0,0.0,0.0,0.0,0.0,0.0,0.0,0.0,0.0,0.0,0.0,0.0,0.0,0.0,0.0,0.0,0.0,0.0,0.0,0.0,0.0,0.0,0.0,3.8565,3.7469,3.6832,3.631,0.0,0.0,3.5268,3.6288,3.7497,0.0,0.0,0.0,0.0,0.0,0.0,0.0,0.0,0.0,0.0,0.0,0.0,0.0,0.0,0.0,0.0,0.0,0.0,0.0,0.0,0.0,0.0,0.0,0.0,0.0,0.0,0.0,0.0,0.0,0.0,0.0,0.0,0.0,0.0,0.0,0.0,0.0,0.0,0.0,0.0,0.0,0.0,0.0,0.0,0.0,0.0,0.0,0.0,0.0,0.0,0.0,0.0,0.0,0.0,0.0,4.0578,4.2369,4.6155,4.8815,5.0154,5.0015,4.9877,4.9974,4.6262,4.3575,0.0,0.0,0.0,0.0,0.0,0.0,0.0,0.0,0.0,0.0,0.0,0.0,0.0,0.0,0.0,0.0,0.0,0.0,0.0,0.0,0.0,0.0,0.0,0.0,0.0,0.0,0.0,0.0,0.0,0.0,0.0,0.0,0.0,0.0,0.0,0.0,0.0,0.0,0.0,0.0,0.0,0.0,3.8409,3.8891,0.0,0.0,0.0,3.7418,3.7897,0.0,0.0,0.0,0.0,0.0,0.0,0.0,0.0,0.0,0.0,0.0,0.0,0.0,0.0,0.0,0.0,0.0,0.0,0.0,0.0,0.0,0.0,0.0,0.0,0.0,0.0,0.0,0.0,0.0,0.0,0.0,0.0,0.0,0.0,0.0,0.0,0.0,0.0,0.0,0.0,0.0,0.0,0.0,0.0,0.0,0.0,0.0,0.0,0.0,0.0,0.0,0.0,0.0,0.0,0.0,0.0,0.0,4.2043,4.714,4.9862,4.9893,4.9983,5.0045,4.9977,4.6345,0.0,0.0,0.0,0.0,0.0,0.0,0.0,0.0,0.0,0.0,0.0,0.0,0.0,0.0,0.0,0.0,0.0,0.0,0.0,0.0,0.0,0.0,0.0,0.0,0.0,0.0,0.0,2.7329,0.0,0.0,0.0,0.0,0.0,0.0,0.0,0.0,0.0,0.0,0.0,0.0,0.0,0.0,3.9587,3.9648,4.0827,4.1385,0.0,0.0,3.9629,3.9355,3.9357,3.8593,0.0,0.0,0.0,0.0,0.0,0.0,0.0,0.0,0.0,0.0,0.0,0.0,0.0,0.0,0.0,0.0,0.0,0.0,0.0,0.0,0.0,0.0,0.0,0.0,0.0,0.0,0.0,0.0,0.0,0.0,0.0,0.0,0.0,0.0,0.0,0.0,0.0,0.0,0.0,0.0,0.0,0.0,0.0,0.0,0.0,0.0,0.0,0.0,0.0,0.0,0.0,0.0,0.0,0.0,0.0,4.2233,4.6693,4.9358,4.9889,4.9918,4.9918,4.9913,4.8084,4.5138,0.0,0.0,0.0,0.0,0.0,0.0,0.0,0.0,0.0,0.0,0.0,0.0,0.0,0.0,0.0,0.0,0.0,0.0,0.0,0.0,0.0,0.0,0.0,0.0,0.0,0.0,0.0,0.0,0.0,0.0,0.0,0.0,0.0,0.0,0.0,0.0,0.0,0.0,0.0,0.0,0.0,4.0627,4.1171,4.1938,4.2427,0.0,0.0,4.1659,4.0877,4.2996,4.3162,3.8492,0.0,0.0,0.0,0.0,0.0,0.0,0.0,0.0,0.0,0.0,0.0,0.0,0.0,0.0,0.0,0.0,0.0,0.0,0.0,0.0,0.0,0.0,0.0,0.0,0.0,0.0,0.0,0.0,0.0,0.0,0.0,0.0,0.0,0.0,0.0,0.0,0.0,0.0,0.0,0.0,0.0,0.0,0.0,0.0,0.0,0.0,0.0,0.0,0.0,0.0,0.0,0.0,0.0,4.2698,4.2843,4.7582,5.0146,5.0404,5.0369,5.0404,5.0369,4.8382,4.5855,0.0,0.0,0.0,0.0,0.0,0.0,0.0,0.0,0.0,0.0,0.0,0.0,0.0,0.0,0.0,0.0,0.0,0.0,0.0,0.0,0.0,0.0,0.0,0.0,0.0,0.0,0.0,0.0,3.2437,3.2631,3.1672,0.0,0.0,0.0,0.0,0.0,0.0,0.0,0.0,0.0,0.0,4.1067,4.1754,4.2886,0.0,0.0,4.259,4.2006,4.2079,4.2109,4.1357,3.9049,3.7721,0.0,0.0,0.0,0.0,0.0,0.0,0.0,0.0,0.0,0.0,0.0,0.0,0.0,0.0,0.0,0.0,0.0,0.0,0.0,0.0,0.0,0.0,0.0,0.0,0.0,0.0,0.0,0.0,0.0,0.0,0.0,0.0,0.0,0.0,0.0,0.0,0.0,0.0,0.0,0.0,0.0,0.0,0.0,0.0,0.0,0.0,0.0,0.0,0.0,0.0,0.0,0.0,4.3207,4.3548,4.8277,5.0805,5.0964,5.0999,5.0964,5.0929,4.9341,4.7026,0.0,0.0,0.0,0.0,0.0,0.0,0.0,0.0,0.0,0.0,0.0,0.0,0.0,0.0,0.0,0.0,0.0,0.0,0.0,0.0,0.0,0.0,0.0,0.0,0.0,0.0,0.0,0.0,3.4129,3.3653,3.1791,0.0,0.0,0.0,0.0,0.0,0.0,0.0,0.0,0.0,0.0,4.1577,4.2681,4.3796,4.436,4.4225,4.3272,4.2624,4.2802,4.2102,4.1017,3.9585,0.0,0.0,0.0,0.0,0.0,0.0,0.0,0.0,0.0,0.0,0.0,0.0,0.0,0.0,0.0,0.0,0.0,0.0,0.0,0.0,0.0,0.0,0.0,0.0,0.0,0.0,0.0,0.0,0.0,0.0,4.1243,0.0,0.0,0.0,0.0,0.0,0.0,0.0,0.0,0.0,0.0,0.0,0.0,0.0,0.0,0.0,0.0,0.0,0.0,0.0,0.0,0.0,0.0,4.3583,4.4344,4.8548,5.0991,5.1551,5.1576,5.1576,5.1576,5.1333,4.8892,4.4025,0.0,0.0,0.0,0.0,0.0,0.0,0.0,0.0,0.0,0.0,0.0,0.0,0.0,0.0,0.0,0.0,0.0,0.0,0.0,0.0,0.0,0.0,0.0,0.0,0.0,0.0,3.4994,3.4754,3.3644,0.0,0.0,0.0,0.0,0.0,0.0,0.0,0.0,0.0,0.0,3.9806,4.2232,4.4235,4.4582,4.4619,4.46,4.4289,4.3788,4.3065,4.3762,4.3445,0.0,0.0,0.0,0.0,0.0,0.0,0.0,0.0,0.0,0.0,0.0,0.0,0.0,0.0,0.0,0.0,0.0,0.0,0.0,0.0,0.0,0.0,0.0,0.0,0.0,0.0,0.0,4.8529,4.7098,0.0,0.0,0.0,0.0,0.0,0.0,0.0,0.0,0.0,0.0,0.0,4.7226,4.7784,0.0,0.0,0.0,0.0,0.0,0.0,0.0,0.0,0.0,0.0,0.0,0.0,4.4607,4.5492,4.9675,5.1982,5.2186,5.2186,5.2186,5.2186,5.1592,4.9017,4.4181,0.0,0.0,0.0,0.0,0.0,0.0,0.0,0.0,0.0,0.0,0.0,0.0,0.0,0.0,0.0,0.0,0.0,0.0,0.0,0.0,0.0,0.0,0.0,0.0,0.0,3.529,0.0,0.0,0.0,0.0,0.0,0.0,0.0,0.0,0.0,0.0,0.0,3.7232,3.9774,4.1834,4.3533,4.4761,4.4925,4.4925,0.0,0.0,0.0,0.0,0.0,0.0,0.0,0.0,0.0,0.0,0.0,0.0,0.0,0.0,3.7148,3.4562,3.3784,3.3524,3.3498,0.0,0.0,0.0,0.0,0.0,0.0,0.0,0.0,0.0,0.0,0.0,0.0,0.0,0.0,5.1393,0.0,5.014,0.0,0.0,0.0,0.0,0.0,0.0,0.0,0.0,5.1067,5.1762,5.1682,5.197,5.1669,0.0,4.9494,4.7166,0.0,0.0,0.0,0.0,0.0,0.0,0.0,0.0,4.5501,4.6418,5.038,5.248,5.248,5.248,5.2572,5.2694,5.1776,4.9557,4.5901,4.2973,4.0537,0.0,0.0,0.0,0.0,0.0,0.0,0.0,0.0,0.0,0.0,0.0,0.0,0.0,0.0,0.0,0.0,0.0,0.0,0.0,0.0,0.0,0.0,0.0,3.5959,0.0,0.0,0.0,0.0,0.0,0.0,0.0,0.0,0.0,3.6509,3.7997,3.9765,4.1594,4.3148,4.4266,4.4773,0.0,0.0,0.0,0.0,0.0,0.0,0.0,4.3148,4.2843,4.2459,4.1992,4.1376,4.1239,4.0791,3.946,0.0,0.0,3.6653,3.5812,3.5565,3.5541,3.5715,3.5417,3.4064,3.4309,3.4603,0.0,0.0,0.0,0.0,0.0,0.0,0.0,0.0,5.4036,5.3624,0.0,5.2813,0.0,0.0,0.0,0.0,0.0,5.0337,0.0,0.0,5.5716,5.6815,5.609,5.5377,5.5088,5.5074,5.4157,5.2595,5.0393,4.5614,0.0,0.0,0.0,0.0,0.0,0.0,4.631,4.7169,5.0669,5.2503,5.2526,5.2503,5.2717,5.3062,5.1934,5.0523,4.8942,4.645,4.4101,4.1762,4.0007,0.0,0.0,0.0,0.0,0.0,0.0,0.0,0.0,0.0,0.0,0.0,0.0,0.0,0.0,0.0,0.0,0.0,0.0,0.0,0.0,3.7387,0.0,0.0,0.0,0.0,0.0,0.0,0.0,0.0,0.0,0.0,3.7954,3.9977,4.1868,4.2672,0.0,0.0,0.0,0.0,4.4448,4.4472,4.4177,4.3943,4.398,4.4213,4.4134,4.3383,0.0,0.0,4.1567,4.192,4.2147,4.1378,4.12,4.0972,4.0116,3.8965,3.8273,3.8176,3.7598,3.681,3.5987,3.5926,3.6167,6.0811,0.0,0.0,0.0,0.0,5.625,5.7545,5.9923,5.9923,5.9486,5.8699,5.7513,0.0,0.0,0.0,0.0,0.0,0.0,5.4785,5.664,5.7301,5.802,5.8833,5.8614,5.8275,5.7656,5.6284,5.4997,5.379,5.1266,4.7558,4.2905,0.0,0.0,0.0,0.0,4.7714,4.8619,5.1193,5.268,5.2922,5.2922,5.3099,5.3509,5.2029,5.0766,4.978,4.738,4.5201,4.3394,4.1161,0.0,0.0,0.0,0.0,0.0,0.0,0.0,0.0,0.0,0.0,0.0,0.0,0.0,0.0,0.0,0.0,0.0,0.0,0.0,3.6658,3.7629,3.7628,0.0,0.0,0.0,0.0,0.0,0.0,0.0,0.0,0.0,4.2495,4.2887,4.3378,0.0,0.0,4.4764,4.4764,4.4764,4.4953,4.5596,0.0,0.0,0.0,4.5091,4.4688,4.4424,4.4486,4.4194,4.317,4.3247,4.3178,4.2246,4.2183,4.2151,4.1715,4.0473,3.9509,3.9384,3.9233,3.8601,3.7278,3.699,3.703,6.7304,6.3274,6.089,6.0439,6.1263,6.0635,6.1713,6.3926,6.3568,6.3201,6.2704,6.1711,5.9754,5.7135,5.5225,0.0,0.0,0.0,5.7492,5.9515,5.9546,6.0273,6.1392,6.1134,6.0776,6.0282,5.8637,5.75,5.6773,5.5143,5.218,4.7957,0.0,0.0,4.5035,4.7846,4.9543,5.0095,5.2079,5.3228,5.343,5.3569,5.3758,5.3958,5.2861,5.1893,5.1083,4.9032,4.7281,4.5966,4.3536,4.1656,0.0,0.0,0.0,0.0,0.0,0.0,0.0,0.0,0.0,0.0,0.0,3.4919,3.2475,0.0,0.0,0.0,3.6596,3.8009,3.8474,3.9177,0.0,0.0,0.0,0.0,0.0,0.0,0.0,4.1795,4.281,4.3701,4.4724,4.5076,4.5416,4.591,4.5985,4.5973,4.5949,0.0,4.6126,4.6582,4.5975,4.5645,4.6221,4.5597,4.5049,4.5115,4.5126,4.4974,4.4527,4.4457,4.4345,4.3818,4.3465,4.3273,4.3135,4.1965,4.0859,4.049,4.0127,3.9332,3.7713,3.7371,3.7371,7.3078,7.1869,6.6289,6.4682,6.5691,6.4899,6.5403,6.6732,6.5961,6.5549,6.5399,6.5324,6.3603,6.051,5.8276,0.0,5.8427,5.9122,6.032,6.1816,6.2429,6.3135,6.3787,6.2986,6.2637,6.2643,6.1085,6.002,5.9309,5.7696,5.6083,5.4504,5.2493,5.062,4.9064,5.0755,5.1711,5.1694,5.3175,5.3922,5.394,5.4355,5.4516,5.4456,5.4007,5.3386,5.25,5.0926,4.9746,4.8871,4.6549,4.4456,4.283,0.0,0.0,0.0,0.0,0.0,0.0,0.0,0.0,0.0,0.0,0.0,0.0,0.0,0.0,0.0,3.9931,0.0,4.1423,4.1476,0.0,0.0,0.0,4.0089,4.0469,4.1005,4.173,4.2781,0.0,0.0,4.5418,0.0,4.7727,4.7803,4.7677,4.7565,4.7504,4.7478,4.7504,4.739,4.6783,4.6321,4.6459,4.5811,4.5285,4.5435,4.5526,4.547,4.5432,4.5496,4.553,4.5448,4.4861,4.4311,4.4303,4.3474,4.2532,4.1559,4.0664,3.9521,3.7826,3.7371,3.7371,7.6751,7.637,7.4275,7.247,7.0877,7.0262,7.0433,7.1124,7.0953,7.0194,6.9033,6.8349,6.6598,6.4133,6.3578,6.3769,6.4536,6.4378,6.4878,6.5804,6.5061,6.4786,6.4936,6.4128,6.3418,6.2857,6.2425,6.1844,6.1093,6.006,5.8745,5.711,5.6216,5.4209,5.1241,5.2715,5.3518,5.3481,5.3841,5.4153,5.4355,5.4739,5.4658,5.405,5.3321,5.2525,5.1725,5.066,4.9746,4.8909,4.712,4.5609,4.4516,4.0746,0.0,0.0,0.0,0.0,0.0,0.0,0.0,0.0,0.0,3.7042,3.3856,0.0,3.8498,0.0,4.092,4.2418,4.2286,4.2366,0.0,0.0,4.2362,4.2466,4.3899,4.4141,4.4538,4.5453,4.6495,4.7411,4.8071,4.8491,4.8949,4.9522,4.8448,4.7589,4.7577,4.7739,4.7799,4.769,4.7136,4.6663,4.6621,4.6022,4.5508,4.5571,4.5579,4.5579,4.5579,4.5657,4.5694,4.5634,4.5556,4.537,4.5256,4.4537,4.3657,4.2744,4.1657,4.0165,3.7902,3.7382,3.7371,7.8022,7.7946,7.7449,7.644,7.4958,7.3517,7.3098,7.3319,7.2993,7.2324,7.1422,7.0183,6.888,6.7591,6.6827,6.6751,6.7194,6.6978,6.7123,6.7525,6.6838,6.6312,6.5971,6.5517,6.4835,6.402,6.3641,6.3262,6.2769,6.1974,6.0913,5.9625,5.9345,5.7825,5.5155,5.4845,5.4716,5.4678,5.47,5.4913,5.5426,5.5317,5.4827,5.3988,5.3149,5.212,5.0938,5.0156,4.9328,4.8422,4.7226,4.6171,4.5273,4.2412,4.0389,0.0,0.0,0.0,0.0,0.0,0.0,0.0,0.0,0.0,0.0,0.0,3.9679,3.9986,4.2422,4.3943,4.3798,4.4478,4.5159,4.5579,4.5203,4.5328,4.6298,4.6353,4.6533,4.7024,4.7837,4.8563,4.9022,4.9404,4.9786,5.0245,4.9422,4.8803,4.8765,4.8947,4.892,4.8419,4.7835,4.7117,4.6528,4.6113,4.5846,4.5815,4.5809,4.5809,4.5809,4.5891,4.5919,4.5858,4.5914,4.5914,4.5821,4.5356,4.4689,4.381,4.2769,4.0997,3.8213,3.749,3.7374,7.8328,7.8328,7.8213,7.8175,7.7984,7.5653,7.4622,7.4469,7.3667,7.3246,7.3055,7.145,7.0686,7.0495,6.9043,6.8317,6.8203,6.8203,6.8203,6.8203,6.8088,6.7706,6.7018,6.6789,6.6292,6.5528,6.4726,6.4359,6.4305,6.3465,6.2586,6.1631,6.1478,6.0637,5.8956,5.6816,5.567,5.5556,5.5556,5.5861,5.6396,5.5556,5.4639,5.3798,5.307,5.1897,5.0252,4.9739,4.9,4.7935,4.729,4.6651,4.589,4.4166,4.2579,0.0,4.0248,0.0,0.0,0.0,0.0,0.0,0.0,0.0,0.0,4.1285,4.1379,4.2008,4.4384,4.5726,4.553,4.6926,4.7788,4.7788,4.7788,4.775,4.7674,4.7712,4.775,4.7635,4.8411,4.8907,4.8945,4.9633,5.013,4.9939,5.008,5.0042,5.0092,5.0242,5.0096,4.9191,4.8377,4.721,4.6274,4.6113,4.6158,4.6087,4.5918,4.6009,4.6078,4.5966,4.5978,4.6123,4.6142,4.6083,4.6126,4.5952,4.5491,4.4444,4.3537,4.1962,3.9076,3.7818,3.7319,8.0009,7.9971,7.9321,7.9054,7.8939,7.7793,7.6876,7.6188,7.5348,7.4622,7.3896,7.2941,7.2138,7.145,7.1107,7.0572,6.996,6.9922,6.9922,6.9922,6.9234,6.8852,6.8661,6.7324,6.6636,6.6407,6.5566,6.5184,6.5146,6.4344,6.3159,6.1631,6.0943,5.9797,5.8192,0.0,0.0,0.0,5.6396,5.6129,5.5594,5.4104,5.2919,5.2117,5.1995,0.0,4.9634,5.0138,4.979,4.8312,4.8083,0.0,0.0,0.0,0.0,0.0,0.0,0.0,0.0,0.0,0.0,0.0,4.425,4.2875,4.1164,4.3272,4.5055,4.5751,4.6885,4.7511,4.7313,4.7597,4.7788,4.7788,4.7788,4.7521,4.6871,4.7417,4.7559,4.6844,4.7532,4.8056,4.822,4.8793,4.906,4.8629,4.9442,5.0018,4.9565,5.0218,5.0186,4.8864,4.7545,4.6545,4.6185,4.6165,4.6215,4.613,4.5546,4.5425,4.5932,4.5503,4.5425,4.5946,4.6212,4.6165,4.6165,4.615,4.5585,4.4071,4.3535,4.2619,4.0308,3.872,3.767,8.0888,0.0,8.0047,7.9895,0.0,7.8978,7.8366,7.7908,7.6647,7.5615,7.4775,7.3972,7.3323,7.2902,7.252,7.1871,7.103,7.103,7.0801,7.0381,6.9999,6.9578,6.9158,6.7897,6.7095,6.6674,6.5796,6.5413,6.5375,6.4993,6.3923,6.2242,6.1822,6.079,5.9185,5.9147,5.8689,5.7848,5.7428,5.7046,5.6587,5.5365,5.3936,5.2395,0.0,0.0,0.0,0.0,0.0,0.0,0.0,0.0,0.0,0.0,0.0,4.6566,4.5818,4.5365,4.5365,4.5365,4.5923,4.7245,4.6972,4.5918,4.4045,4.5891,4.7223,4.7542,4.8392,4.8863,4.873,4.9048,4.924,4.9179,4.9196,4.8963,4.8548,4.8754,4.8858,4.8525,4.8743,4.9022,4.906,4.9366,4.9519,4.9137,4.9428,4.9719,4.9525,5.0193,5.0252,4.8842,4.7233,4.6215,4.6219,4.6219,4.6219,4.6102,4.5478,4.5127,4.5478,4.4851,4.4423,4.4851,4.5241,4.5556,4.5556,4.5556,4.528,4.438,4.3494,4.2446,4.0855,3.9153,3.7723,8.1308,8.0506,8.0506,8.0506,8.0468,7.9798,7.9398,7.9187,0.0,0.0,0.0,7.4736,7.4354,7.4163,7.3514,7.2635,7.1735,7.168,7.1221,7.0402,7.0402,7.0037,6.9387,6.8508,6.7706,6.6904,6.6063,6.5528,6.5413,6.5413,6.4649,6.325,6.2983,6.208,6.0526,6.0436,6.0054,5.9366,5.8397,5.781,5.7657,5.6716,5.5231,5.3154,5.3032,5.1996,4.9967,4.9975,4.9221,4.743,4.7595,4.7641,4.7485,4.7543,4.7938,4.8737,4.8794,4.8803,4.8803,4.8803,4.8881,4.8998,4.9154,4.8808,4.7801,4.838,4.8805,4.8793,4.9568,4.995,4.986,5.0411,5.0742,5.0663,5.0644,5.05,5.0221,5.0178,5.0008,4.9986,4.9778,4.9899,4.9789,4.9931,5.0023,4.9859,4.9614,4.9461,4.9536,4.9797,4.973,4.8829,4.7345,4.6219,4.6219,4.6219,4.6219,4.618,4.5478,4.4933,4.4773,4.4189,4.3679,4.3757,4.4228,4.4579,4.4656,4.4656,4.4618,4.4465,4.3332,4.2026,4.1025,3.9417,3.7864,8.1308,8.0506,8.0506,8.0506,8.0468,8.0391,7.9933,7.9169,7.7449,7.6227,7.5518,7.5348,7.4889,7.4201,7.4087,7.317,7.1718,7.168,7.1221,0.0,7.0402,7.0342,7.019,6.9387,6.8585,6.7706,6.6904,6.6139,6.5452,6.5413,6.4947,6.4126,6.3375,6.2178,6.0699,6.0493,6.0455,6.0354,5.8756,5.7542,5.6791,5.5443,5.4203,5.3167,5.2733,5.2,5.0947,5.1023,5.0322,4.8652,4.9286,4.9367,4.8626,4.8548,4.8674,4.8797,4.88,4.8803,4.8803,4.8803,4.9115,4.9895,5.0595,5.0667,4.9799,4.9796,5.0116,5.0607,5.0825,5.0841,5.0671,5.0751,5.0805,5.0766,5.0758,5.0518,4.9859,4.9782,4.9512,4.8902,4.8578,4.866,4.8788,4.9212,4.9296,4.8668,4.9301,4.9939,4.9413,4.8588,4.828,4.8433,4.7345,4.6336,4.6219,4.6219,4.6219,4.6219,4.5478,4.4894,4.4894,4.4111,4.3562,4.3562,4.3679,4.3757,4.3757,4.3796,4.3523,4.302,4.2471,4.1958,4.1087,3.9551,3.8062,8.169,8.0544,8.0506,8.0506,8.0506,8.0506,8.0047,7.9225,7.7946,7.6914,7.6112,7.5709,7.5271,7.4927,7.4889,7.3972,7.2406,7.2406,7.168,7.0457,7.0402,7.0402,7.0342,6.9626,6.8801,6.7921,6.7163,6.6336,6.5571,6.5494,6.5102,6.4326,6.3075,6.1785,6.0661,6.0621,6.0654,6.0677,5.9792,5.8732,5.7559,5.6862,5.5759,5.4117,5.385,5.3395,5.2653,5.2249,5.1486,5.0246,5.0129,4.9892,4.9544,4.951,4.9711,5.0179,5.0225,5.0228,5.0191,5.0228,5.0384,5.0813,5.1164,5.1243,5.0852,5.0798,5.0933,5.1211,5.1277,5.1217,5.1133,5.1118,5.1086,5.0978,5.0972,5.0791,5.0414,5.0322,5.0129,4.9787,4.9709,4.9681,4.9606,4.9938,5.003,4.956,4.9603,4.9325,4.9121,4.779,4.7096,4.7781,4.7033,4.6336,4.6219,4.6219,4.6219,4.6219,4.5478,4.4972,4.4816,4.3877,4.3056,4.29,4.29,4.29,4.29,4.29,4.2666,4.2471,4.1887,4.138,4.0448,3.9006,3.7527,8.1843,8.0506,8.0506,8.0525,8.0505,8.0505,8.0179,7.9547,7.8515,7.7712,7.6985,7.5973,7.5553,7.5532,7.5532,7.4614,7.3199,7.3046,7.2128,7.0544,7.0467,7.0467,7.0445,6.9858,6.9084,6.8089,6.7458,6.6643,6.5723,6.5608,6.5224,6.4331,6.2963,6.1787,6.0942,6.0872,6.0836,6.0836,6.07,5.9892,5.8423,5.8403,5.7405,5.5408,5.505,5.471,5.4231,5.3256,5.2398,5.1701,5.1037,5.0606,5.045,5.0577,5.0894,5.1364,5.141,5.1375,5.1375,5.1375,5.1375,5.1375,5.1375,5.1375,5.1412,5.1399,5.1383,5.1383,5.138,5.1378,5.1372,5.1372,5.1353,5.1174,5.1165,5.1138,5.102,5.1002,5.1002,5.1002,5.1002,5.0957,5.0966,5.0959,5.0862,5.061,4.966,4.8903,4.8844,4.7579,4.6916,4.7096,4.6775,4.6232,4.619,4.619,4.6193,4.619,4.5686,4.5219,4.479,4.3617,4.264,4.2487,4.2172,4.2055,4.2016,4.2013,4.2013,4.1896,4.1542,4.0799,3.9708,3.8578,3.7115,8.1385,8.0582,8.0525,8.0523,8.0596,8.0596,8.0611,8.0413,7.8973,7.8245,7.796,7.6344,7.5633,7.566,7.566,7.4779,7.3246,7.3185,7.2287,7.0831,7.0693,7.0654,7.0678,7.0578,6.9749,6.8369,6.8115,6.7194,6.5761,6.5646,6.5214,6.4474,6.3617,6.2731,6.1947,6.1229,6.0906,6.0993,6.1014,6.0204,5.8606,5.8661,5.7931,5.6227,5.5514,5.5168,5.5118,5.3587,5.2689,5.2583,5.2505,5.2075,5.149,5.2036,5.2156,5.1529,5.1453,5.1375,5.1414,5.1375,5.1453,5.1375,5.1492,5.1492,5.1492,5.1451,5.141,5.1486,5.144,5.1396,5.1394,5.1383,5.1372,5.1362,5.1362,5.1362,5.1349,5.1356,5.1356,5.1356,5.1303,5.1292,5.1142,5.1084,5.1047,5.0939,5.0164,4.9565,4.9508,4.8386,4.732,4.7354,4.6769,4.6301,4.622,4.6223,4.6217,4.6181,4.6145,4.5752,4.5047,4.4228,4.3373,4.2663,4.1771,4.1379,4.1298,4.122,4.129,4.1404,4.1123,4.0643,3.9162,3.8464,3.7699,8.1436,8.0688,8.0688,8.0705,8.0741,8.0741,8.0758,8.0639,7.9028,7.8333,7.8135,7.653,7.5747,7.5692,7.5692,7.5041,7.3967,7.343,7.2587,7.1475,7.0953,7.0723,7.0723,7.0729,7.0129,6.8977,6.852,6.7689,6.6575,6.6012,6.5372,6.4564,6.3835,6.3064,6.2208,6.1073,6.0741,6.1266,6.0905,6.0092,5.9026,5.8851,5.81,5.6634,5.6191,5.6048,5.594,5.4884,5.422,5.4225,5.3756,5.3327,5.2975,5.3288,5.3327,5.2975,5.2936,5.2936,5.2936,5.2936,5.2936,5.2936,5.2936,5.2936,5.2936,5.2936,5.2936,5.2817,5.2034,5.1408,5.1408,5.1403,5.1399,5.1399,5.1399,5.1399,5.1399,5.1399,5.1399,5.1399,5.1399,5.1394,5.1294,5.1284,5.1275,5.109,5.0488,5.003,4.9919,4.9006,4.8157,4.7652,4.7223,4.6787,4.6348,4.6187,4.6187,4.6187,4.6187,4.5952,4.5643,4.4509,4.3573,4.3183,4.2052,4.1232,4.115,4.1111,4.1106,4.1106,4.1067,4.0708,3.9499,3.8875,3.7968,8.1329,8.0831,8.0792,8.0809,8.0826,8.0826,8.0843,8.063,7.9073,7.8375,7.8269,7.6655,7.5856,7.581,7.5756,7.5334,7.4528,7.3684,7.2839,7.2048,7.1165,7.0782,7.0743,7.0801,7.0392,6.9561,6.8742,6.7859,6.6821,6.6205,6.5589,6.4941,6.4093,6.3303,6.262,6.1271,6.0745,6.1066,6.0636,5.9885,5.8863,5.863,5.7964,5.6758,5.6604,5.6604,5.6567,5.5747,5.532,5.5281,5.4693,5.4264,5.4029,5.4225,5.4264,5.4029,5.399,5.399,5.399,5.399,5.399,5.399,5.399,5.399,5.399,5.399,5.399,5.3873,5.2858,5.2156,5.2117,5.2117,5.1999,5.1804,5.1765,5.1687,5.1453,5.1375,5.1375,5.1375,5.1412,5.1375,5.1375,5.1373,5.1369,5.1291,5.0863,5.0475,5.0358,4.9733,4.8953,4.8328,4.7977,4.7192,4.6435,4.624,4.6238,4.6238,4.624,4.624,4.616,4.4911,4.3819,4.3513,4.2258,4.1437,4.1168,4.1126,4.1118,4.1115,4.1074,4.0801,3.9862,3.9126,3.8268,8.0831,8.0792,8.0792,8.0843,8.0926,8.0926,8.0959,8.083,7.9231,7.8477,7.8192,7.6731,7.5962,7.5962,7.5947,7.5538,7.4692,7.3909,7.3063,7.2231,7.1346,7.0923,7.0885,7.0898,7.0514,6.9731,6.8808,6.759,6.609,6.591,6.5955,6.5923,6.4377,6.3658,6.3471,6.2141,6.1062,6.0534,6.0366,5.9612,5.8168,5.7931,5.7499,5.6721,5.6604,5.6604,5.6528,5.5786,5.532,5.532,5.5281,5.4888,5.4225,5.481,5.4888,5.4225,5.4068,5.4068,5.4108,5.4147,5.4147,5.4068,5.4225,5.4068,5.4264,5.4264,5.4264,5.4068,5.4068,5.3873,5.3873,5.3678,5.3366,5.2741,5.2665,5.2273,5.157,5.157,5.1414,5.1453,5.1453,5.1414,5.1375,5.1375,5.1375,5.1375,5.1336,5.1258,5.1102,5.0514,5.0046,4.9577,4.8679,4.7352,4.6532,4.6294,4.6296,4.6296,4.6253,4.6296,4.5986,4.5556,4.4697,4.38,4.282,4.1961,4.1378,4.1101,4.109,4.1124,4.112,4.073,4.0266,3.9208,3.8391,8.0997,8.0997,8.0997,8.1013,8.1045,8.1045,8.0754,8.0169,7.9015,7.8207,7.7592,7.6515,7.5976,7.5976,7.5976,7.5822,7.5476,7.4668,7.3822,7.2976,7.2129,7.1437,7.0937,7.0898,7.0783,7.0321,6.9052,6.7552,6.5999,6.5438,6.5522,6.579,6.4606,6.391,6.3659,6.2387,6.1452,6.1101,6.0149,5.9222,5.8636,5.8089,5.7426,5.6643,5.6604,5.6604,5.6604,5.6294,5.6138,5.6138,5.6138,5.5981,5.5747,5.5942,5.602,5.5708,5.5669,5.5669,5.5669,5.5669,5.5669,5.5669,5.5669,5.563,5.5669,5.5667,5.5669,5.563,5.5669,5.5669,5.5435,5.4693,5.3873,5.3639,5.3522,5.3405,5.3053,5.2585,5.2234,5.2156,5.1765,5.1414,5.1414,5.1375,5.1375,5.1375,5.1375,5.1375,5.1375,5.1102,5.0709,5.0202,4.9577,4.8718,4.7274,4.6612,4.63,4.63,4.63,4.63,4.6105,4.5636,4.4815,4.4034,4.3138,4.2201,4.1498,4.1106,4.1097,4.1097,4.1095,4.1016,4.0709,3.973,3.8988,8.1093,8.1093,8.1093,8.1093,8.1093,8.1093,8.0631,7.9746,7.8861,7.8015,7.7246,7.6399,7.5976,7.5976,7.5976,7.5976,7.5899,7.5091,7.4284,7.3476,7.2591,7.1706,7.1014,7.0898,7.0898,7.0643,6.9258,6.7636,6.6146,6.5519,6.5497,6.5738,6.4603,6.3877,6.3483,6.2362,6.1601,6.1093,6.008,5.93,5.8753,5.8128,5.7426,5.676,5.6604,5.6604,5.6604,5.6604,5.6604,5.6604,5.6604,5.6604,5.6604,5.6604,5.6604,5.6604,5.6604,5.6604,5.6604,5.6604,5.6606,5.6604,5.6604,5.6604,5.6604,5.6604,5.6604,5.6604,5.6604,5.6604,5.6409,5.5513,5.4732,5.4498,5.442,5.4303,5.4029,5.3483,5.3014,5.2665,5.2195,5.1765,5.1492,5.1414,5.1375,5.1375,5.1375,5.1375,5.1375,5.1375,5.1258,5.0631,5.0241,4.9577,4.8523,4.7666,4.6651,4.6456,4.6302,4.6302,4.6184,4.5675,4.5051,4.4231,4.3294,4.2357,4.1695,4.1265,4.1109,4.1109,4.1106,4.1064,4.0716,4.0325,3.9506,8.1108,8.11,8.1108,8.11,8.1146,8.1146,8.0639,7.9668,7.8898,7.8041,7.7183,7.638,7.6062,7.6005,7.6038,7.602,7.5866,7.5253,7.4379,7.3476,7.2668,7.1797,7.0939,7.0823,7.0734,7.0606,6.9285,6.7832,6.6461,6.6144,6.5835,6.5239,6.4481,6.3721,6.3006,6.2264,6.1366,6.0744,6.0393,5.9573,5.8089,5.7933,5.7543,5.676,5.6721,5.6682,5.6604,5.6604,5.6604,5.6604,5.6604,5.6604,5.6604,5.6604,5.6604,5.6604,5.6604,5.6604,5.6604,5.6604,5.6604,5.6604,5.6604,5.6604,5.6604,5.6604,5.6604,5.6604,5.6604,5.6604,5.6604,5.645,5.6059,5.5474,5.5318,5.5005,5.442,5.4068,5.3678,5.3014,5.2704,5.2351,5.1726,5.157,5.157,5.1453,5.1375,5.1375,5.1375,5.1375,5.1375,5.1219,5.0789,5.0163,4.9499,4.8757,4.7588,4.6651,4.6417,4.6302,4.6302,4.5948,4.5519,4.4738,4.3528,4.2591,4.1812,4.1422,4.1148,4.1109,4.1109,4.1109,4.0875,4.0483,3.978,8.1375,8.1496,8.1375,8.1375,8.1519,8.153,8.0716,7.936,7.8973,7.812,7.6958,7.6542,7.6327,7.6273,7.6339,7.6327,7.6185,7.5979,7.5125,7.3699,7.322,7.2366,7.1193,7.051,6.9982,6.9537,6.907,6.8239,6.7192,6.6147,6.5473,6.5197,6.4556,6.3809,6.3008,6.2696,6.2149,6.133,6.0705,6.008,5.9534,5.8987,5.8285,5.7543,5.7426,5.7192,5.6643,5.6604,5.6604,5.6604,5.6604,5.6604,5.6604,5.6604,5.6604,5.6604,5.6604,5.6604,5.6604,5.6604,5.6604,5.6604,5.6604,5.6604,5.6604,5.6604,5.6604,5.6604,5.6604,5.6604,5.6604,5.6604,5.645,5.6216,5.6177,5.6059,5.5669,5.524,5.4537,5.3795,5.36,5.321,5.2546,5.2273,5.1999,5.1531,5.1414,5.1375,5.1375,5.1375,5.1375,5.1336,5.0984,5.0713,5.009,4.9469,4.8573,4.744,4.6853,4.6384,4.6344,4.6227,4.5835,4.5054,4.3842,4.2866,4.2124,4.1539,4.1226,4.1109,4.1109,4.1109,4.107,4.0681,4.0097,8.1579,8.1679,8.1558,8.1568,8.1689,8.1698,8.0727,7.9251,7.9095,7.8124,7.6842,7.6609,7.6545,7.6467,7.6525,7.6507,7.6447,7.6525,7.574,7.4289,7.379,7.2827,7.1368,7.0438,6.9843,6.9367,6.885,6.8294,6.7726,6.6503,6.5718,6.5347,6.4679,6.3874,6.3015,6.2664,6.2193,6.1642,6.1174,6.0746,6.0358,5.9848,5.9146,5.8369,5.7975,5.7582,5.7074,5.676,5.6604,5.6604,5.6604,5.6604,5.6604,5.6604,5.6604,5.6604,5.6604,5.6604,5.6604,5.6604,5.6604,5.6604,5.6604,5.6604,5.6604,5.6604,5.6604,5.6604,5.6604,5.6604,5.6604,5.6604,5.6604,5.6604,5.6567,5.6604,5.6528,5.6138,5.5435,5.4732,5.4498,5.4029,5.3444,5.2782,5.2548,5.196,5.157,5.1375,5.1375,5.1379,5.138,5.1382,5.1307,5.0997,5.0683,5.01,4.9478,4.8423,4.7446,4.6821,4.6431,4.6313,4.6039,4.5102,4.4007,4.3145,4.2364,4.1579,4.1109,4.1109,4.1114,4.1115,4.1078,4.108,4.0612,8.1717,8.1726,8.1717,8.1735,8.1761,8.1684,8.0681,7.9304,7.904,7.8115,7.6871,7.6692,7.666,7.6596,7.6676,7.6676,7.6596,7.6638,7.6195,7.5222,7.4359,7.3076,7.1148,7.0472,7.0207,6.9907,6.8788,6.8171,6.8186,6.7297,6.6453,6.5559,6.4702,6.3847,6.3027,6.2168,6.1772,6.1727,6.1644,6.1221,6.0604,6.0479,6.005,5.92,5.8529,5.8057,5.7822,5.7313,5.6803,5.6645,5.6604,5.6604,5.6604,5.6604,5.6604,5.6604,5.6604,5.6604,5.6604,5.6604,5.6604,5.6604,5.6721,5.6682,5.6801,5.6996,5.7072,5.7035,5.6879,5.676,5.676,5.6643,5.6643,5.6604,5.6604,5.6604,5.6604,5.6567,5.6098,5.5552,5.5318,5.5044,5.4225,5.3446,5.3018,5.2511,5.1964,5.1693,5.1382,5.1387,5.139,5.1391,5.1394,5.1277,5.0963,5.0771,5.0149,4.929,4.8157,4.7296,4.6553,4.6357,4.624,4.5342,4.4403,4.3503,4.272,4.2014,4.1349,4.1117,4.112,4.1122,4.1123,4.1124,4.1007,8.1993,8.2099,8.1974,8.1993,8.2026,8.1485,8.0588,7.9535,7.8828,7.7999,7.7112,7.696,7.6872,7.6768,7.6887,7.6882,7.6793,7.6882,7.6505,7.5659,7.4839,7.2599,7.0453,7.0351,7.0278,6.9751,6.9171,6.9035,6.9007,6.8107,6.7015,6.5612,6.4753,6.3894,6.2996,6.2175,6.1744,6.1704,6.1702,6.1626,6.1393,6.1313,6.0924,6.0145,5.9792,5.9322,5.8853,5.858,5.7793,5.6684,5.6604,5.6604,5.6723,5.6723,5.676,5.676,5.6682,5.6643,5.6643,5.6643,5.6643,5.6682,5.7192,5.7504,5.7504,5.8089,5.836,5.8324,5.7933,5.7465,5.7387,5.6957,5.6682,5.6604,5.6604,5.6604,5.6604,5.6604,5.6489,5.6294,5.6216,5.5786,5.5164,5.4623,5.4041,5.3066,5.2443,5.2017,5.1588,5.1394,5.1397,5.1396,5.1397,5.1397,5.1321,5.1206,5.0778,5.0037,4.8943,4.7771,4.6988,4.6321,4.6282,4.5929,4.5032,4.4132,4.3429,4.2725,4.2101,4.1358,4.1125,4.1126,4.1126,4.1126,4.1126,8.2175,8.229,8.2166,8.2214,8.2173,8.1356,8.0498,7.9639,7.878,7.7921,7.7221,7.711,7.7014,7.6938,7.7023,7.7023,7.6954,7.7026,7.6809,7.6267,7.5134,7.3047,7.0919,7.044,7.0255,7.0374,6.9363,6.9091,6.9169,6.8505,6.7374,6.6165,6.4915,6.4057,6.3549,6.2298,6.1711,6.1709,6.1709,6.171,6.1712,6.171,6.1477,6.0931,6.0618,5.9992,5.921,5.9092,5.862,5.7871,5.767,5.7668,5.7627,5.7662,5.766,5.7621,5.7348,5.7231,5.7504,5.7348,5.7309,5.7621,5.8128,5.8285,5.8402,5.887,5.9102,5.8985,5.8597,5.8402,5.8207,5.7582,5.6996,5.6682,5.6604,5.6604,5.6604,5.6604,5.6604,5.6606,5.6571,5.6456,5.5872,5.5568,5.4673,5.3581,5.2879,5.2257,5.1594,5.1478,5.1402,5.1402,5.1406,5.1406,5.1406,5.1289,5.0937,5.0234,4.9141,4.8047,4.7226,4.6406,4.6289,4.6094,4.543,4.4839,4.4136,4.3355,4.2416,4.1791,4.1441,4.1168,4.1169,4.1133,4.1133,8.2293,8.2293,8.2293,8.2293,8.214,8.1281,8.0386,7.9606,7.8593,7.7773,7.719,7.7081,7.7083,7.7085,7.7091,7.7096,7.7096,7.7094,7.6824,7.624,7.5147,7.3465,7.1706,7.0105,7.0342,7.0967,6.9248,6.9055,6.9291,6.8743,6.7885,6.6833,6.535,6.4451,6.3943,6.2693,6.1871,6.1713,6.1712,6.1714,6.1716,6.1715,6.1637,6.1482,6.1012,6.0385,5.9799,5.9525,5.9407,5.9368,5.9206,5.8928,5.8966,5.9035,5.9031,5.8838,5.833,5.8252,5.8757,5.8252,5.8211,5.8799,5.907,5.9263,5.9306,5.9501,5.9697,5.9692,5.9341,5.9146,5.8836,5.8248,5.7547,5.7003,5.6766,5.6608,5.6608,5.6608,5.6608,5.6608,5.6618,5.6621,5.639,5.5925,5.515,5.4329,5.3588,5.277,5.2028,5.1599,5.1483,5.1405,5.1406,5.1406,5.1406,5.1367,5.0898,5.0273,4.9062,4.7969,4.7226,4.6601,4.6367,4.6094,4.5742,4.5311,4.4803,4.3904,4.3008,4.2224,4.1834,4.1484,4.1211,4.1172,4.1172,8.2293,8.2293,8.2293,8.2299,8.2035,8.067,7.9855,7.9551,7.8028,7.7325,7.7132,7.7094,7.7096,7.7096,7.7099,7.7097,7.7099,7.7022,7.6475,7.5113,7.4882,7.3594,7.1953,7.0232,7.0074,7.0543,6.9843,6.9648,7.0,6.9531,6.875,6.7734,6.6211,6.4961,6.418,6.3242,6.2344,6.1836,6.1719,6.1719,6.1719,6.1719,6.1719,6.168,6.1484,6.1367,6.1211,6.1132,6.1132,6.0819,5.9956,5.9327,5.9326,5.9284,5.9283,5.9244,5.9048,5.8933,5.905,5.9009,5.8893,5.9244,5.9828,6.0143,6.0182,6.0728,6.1037,6.0995,6.0522,5.9898,5.9236,5.8338,5.7832,5.7483,5.6977,5.6626,5.6626,5.6623,5.6621,5.6626,5.6628,5.663,5.663,5.6479,5.5817,5.5075,5.4258,5.3398,5.2617,5.1836,5.1601,5.1484,5.1406,5.1406,5.1406,5.1367,5.1055,5.0586,4.9453,4.832,4.7578,4.6797,4.6601,4.6406,4.6172,4.5742,4.5312,4.4844,4.3984,4.3125,4.2266,4.1875,4.1562,4.1406,4.1211,8.2315,8.2315,8.2315,8.2083,8.1502,8.0254,7.9475,7.8894,7.7683,7.7097,7.7099,7.7101,7.7142,7.7142,7.7145,7.7145,7.7145,7.7106,7.6248,7.496,7.4531,7.3633,7.1953,7.0507,6.9999,7.0898,7.0,7.0,7.0351,7.0195,6.9414,6.8203,6.6875,6.5547,6.4375,6.3437,6.2539,6.1875,6.1719,6.1719,6.1719,6.1719,6.1719,6.1719,6.1719,6.1719,6.164,6.168,6.168,6.1484,6.082,6.0309,6.0307,6.0305,6.0303,6.0303,5.9875,6.003,6.0147,5.9991,5.9913,6.0264,6.0772,6.0928,6.1045,6.1475,6.1669,6.1627,6.1235,6.0649,5.9792,5.8931,5.8426,5.7802,5.714,5.6633,5.6595,5.6631,5.6627,5.6593,5.6595,5.6596,5.6597,5.6599,5.6172,5.5312,5.5039,5.418,5.293,5.2226,5.1836,5.1641,5.1484,5.1406,5.1406,5.1367,5.1289,5.082,5.0195,4.9219,4.8398,4.7578,4.6836,4.6562,4.625,4.6172,4.5781,4.5351,4.4922,4.4141,4.332,4.2539,4.1875,4.1601,4.1367,8.2292,8.2292,8.2175,8.1669,8.0887,7.9911,7.9092,7.839,7.7492,7.7142,7.7103,7.7184,7.7185,7.7186,7.7187,7.7226,7.7187,7.707,7.625,7.4765,7.4609,7.3398,7.1758,7.043,7.0156,7.1484,7.0195,7.0,7.0703,7.0664,6.9844,6.8515,6.7539,6.6094,6.4531,6.3594,6.2734,6.1875,6.1719,6.1875,6.1875,6.1836,6.1719,6.1719,6.1719,6.1719,6.1719,6.1719,6.1719,6.1719,6.1719,6.1719,6.1717,6.1714,6.1711,6.1595,6.0932,6.0894,6.1167,6.0971,6.0893,6.1672,6.1672,6.1673,6.1673,6.1634,6.1712,6.171,6.1514,6.1319,6.0618,5.9837,5.8977,5.8236,5.7338,5.6793,5.6599,5.6597,5.6597,5.6597,5.6599,5.66,5.66,5.6601,5.6094,5.5703,5.543,5.4922,5.3672,5.2656,5.2266,5.1836,5.1641,5.1445,5.1406,5.1406,5.1289,5.1055,5.0625,4.9844,4.8984,4.8008,4.7109,4.6523,4.625,4.6211,4.6133,4.5781,4.5351,4.4883,4.4219,4.332,4.2578,4.1875,4.1562,8.2292,8.2253,8.1511,8.1124,8.0737,7.9293,7.8591,7.8359,7.75,7.7187,7.7187,7.7187,7.7226,7.7226,7.7226,7.7226,7.7226,7.7031,7.6211,7.4805,7.4453,7.3281,7.1172,7.0078,7.0117,7.043,7.0,7.0273,7.1211,7.1055,7.0273,6.9219,6.8398,6.6836,6.5078,6.4023,6.3203,6.2031,6.1797,6.1992,6.2383,6.2148,6.1758,6.1758,6.1719,6.1719,6.1719,6.1719,6.1719,6.1719,6.1719,6.1719,6.1719,6.1719,6.1719,6.164,6.1523,6.1484,6.1601,6.1562,6.1523,6.1679,6.1719,6.1719,6.1719,6.1719,6.1717,6.1716,6.1713,6.1594,6.152,6.0583,5.9842,5.9022,5.8125,5.7383,5.6875,5.664,5.664,5.6601,5.6601,5.6601,5.6601,5.6601,5.6367,5.6055,5.582,5.5469,5.4687,5.3594,5.2773,5.2305,5.1836,5.1601,5.1406,5.1406,5.1328,5.1211,5.0781,5.0078,4.918,4.8203,4.7422,4.6875,4.6445,4.625,4.6172,4.6016,4.5742,4.5312,4.4687,4.4023,4.3281,4.2539,4.1875,8.1364,8.0934,8.0505,8.0076,7.9608,7.8866,7.8203,7.7773,7.7383,7.7226,7.7226,7.7226,7.7226,7.7226,7.7226,7.7226,7.7148,7.664,7.582,7.4726,7.4023,7.2812,7.0781,6.9883,7.0078,7.0273,7.0039,7.039,7.1836,7.1601,7.0859,7.0078,6.9258,6.7734,6.5859,6.4687,6.3711,6.2539,6.2031,6.2109,6.289,6.25,6.2226,6.1797,6.1719,6.1719,6.1719,6.1719,6.1719,6.1719,6.1719,6.1719,6.1719,6.1719,6.1719,6.1719,6.1719,6.1719,6.1719,6.1719,6.168,6.168,6.1719,6.1719,6.1719,6.1719,6.1719,6.1719,6.1719,6.1717,6.164,6.0898,6.0273,5.9726,5.8711,5.7812,5.7305,5.6875,5.668,5.6601,5.6601,5.6601,5.6601,5.6601,5.6601,5.6445,5.6172,5.582,5.543,5.457,5.3555,5.2578,5.207,5.168,5.1445,5.1406,5.1406,5.125,5.1055,5.0351,4.9648,4.8789,4.7969,4.7305,4.6914,4.6484,4.625,4.6172,4.5937,4.5702,4.5156,4.457,4.3867,4.3203,4.2537,8.0351,7.9687,7.9531,7.9101,7.8555,7.8281,7.7851,7.7305,7.7226,7.7226,7.7226,7.7226,7.7226,7.7226,7.7226,7.7187,7.7109,7.6328,7.5469,7.4609,7.3711,7.2344,7.0703,7.0156,7.0,7.0156,7.0195,7.0508,7.1719,7.1914,7.1484,7.0703,6.9883,6.8672,6.6914,6.5625,6.4336,6.3086,6.2422,6.2383,6.2617,6.2851,6.2578,6.1797,6.1719,6.1719,6.1719,6.1719,6.1719,6.1719,6.1719,6.1719,6.1719,6.1719,6.1719,6.1719,6.1719,6.1719,6.1719,6.1719,6.1719,6.1719,6.1719,6.1719,6.1719,6.1719,6.1719,6.1719,6.1719,6.1719,6.164,6.1094,6.0625,6.0078,5.9101,5.8047,5.7656,5.7187,5.668,5.6601,5.6601,5.6601,5.6601,5.6601,5.6601,5.6601,5.6367,5.625,5.5859,5.539,5.4375,5.3047,5.2226,5.1797,5.1523,5.1406,5.1406,5.1367,5.1211,5.082,5.0194,4.9531,4.8667,4.7767,4.7222,4.6834,4.656,4.6286,4.6129,4.5894,4.558,4.5072,4.4448,4.3863,4.3238,7.9805,7.9648,7.8906,7.8594,7.8359,7.7695,7.7344,7.7226,7.7226,7.7226,7.7226,7.7226,7.7226,7.7226,7.7226,7.7226,7.6953,7.6289,7.543,7.457,7.3633,7.1992,7.0039,7.0351,7.0,7.0039,7.0273,7.1055,7.1797,7.1992,7.1601,7.0859,7.043,6.9414,6.7383,6.6523,6.5351,6.3437,6.293,6.2539,6.2148,6.2617,6.2461,6.1953,6.1719,6.1719,6.1719,6.1719,6.1719,6.1719,6.1719,6.1719,6.1719,6.1719,6.1719,6.1719,6.1719,6.1719,6.1719,6.1719,6.1719,6.1719,6.1719,6.1719,6.1719,6.1719,6.1719,6.1719,6.1719,6.1719,6.1719,6.1601,6.1133,6.0508,5.9687,5.8711,5.8125,5.75,5.6992,5.6601,5.6601,5.6601,5.6601,5.6601,5.6601,5.6601,5.6601,5.6484,5.6211,5.5664,5.5156,5.3828,5.2617,5.2109,5.1758,5.1601,5.1406,5.1406,5.1287,5.117,5.066,4.9993,4.9094,4.8273,4.7689,4.7025,4.6516,4.6281,4.6282,4.6164,4.5926,4.5538,4.5071,4.4484,4.3897,7.8281,7.8242,7.793,7.7773,7.7734,7.7344,7.7226,7.7226,7.7226,7.7226,7.7226,7.7226,7.7226,7.7226,7.7226,7.7226,7.7031,7.6289,7.543,7.457,7.3555,7.1914,7.0195,7.0195,7.0234,6.9844,7.0312,7.1133,7.1758,7.1953,7.1719,7.1445,7.0898,7.0,6.8203,6.7344,6.6055,6.4765,6.3945,6.3047,6.2305,6.2422,6.2578,6.1758,6.1719,6.1719,6.1719,6.1719,6.1719,6.1719,6.1719,6.1719,6.1719,6.1719,6.1719,6.1719,6.1719,6.1719,6.1719,6.1719,6.1719,6.1719,6.1719,6.1719,6.1719,6.1719,6.1719,6.1719,6.1719,6.1719,6.1719,6.1719,6.1523,6.1015,6.0234,5.9531,5.8711,5.789,5.7305,5.6953,5.664,5.668,5.668,5.6601,5.6601,5.6601,5.6601,5.6562,5.625,5.5742,5.5234,5.4648,5.3476,5.25,5.2148,5.1836,5.1484,5.1441,5.1402,5.1244,5.0967,5.0338,4.9517,4.8694,4.7951,4.7287,4.6546,4.6313,4.6316,4.6313,4.6272,4.5923,4.5532,4.5022,4.4317,7.7226,7.7226,7.7226,7.7226,7.7226,7.7226,7.7226,7.7226,7.7226,7.7226,7.7226,7.7226,7.7226,7.7226,7.7226,7.7187,7.7148,7.6289,7.543,7.457,7.3476,7.1836,7.043,7.0195,7.0234,6.9414,7.0273,7.1133,7.1758,7.1992,7.1992,7.1953,7.1406,7.0547,6.957,6.8398,6.7031,6.543,6.4297,6.3242,6.2383,6.2383,6.2226,6.1914,6.1719,6.1719,6.1719,6.1719,6.1719,6.1719,6.1719,6.1719,6.1719,6.1719,6.1719,6.1719,6.1719,6.1719,6.1719,6.1719,6.1719,6.1719,6.1719,6.1719,6.1719,6.1719,6.1719,6.1719,6.1719,6.1719,6.1719,6.1719,6.164,6.1328,6.082,6.0195,5.9531,5.8711,5.793,5.7422,5.7109,5.6836,5.6797,5.664,5.6601,5.6601,5.6601,5.6601,5.6328,5.5898,5.5547,5.5114,5.4489,5.3355,5.2534,5.2141,5.1789,5.1474,5.1435,5.1355,5.1115,5.0839,5.0252,4.9348,4.8408,4.7707,4.7126,4.6698,4.6308,4.6308,4.6306,4.6303,4.5991,4.5478,4.4852,7.7226,7.7226,7.7226,7.7226,7.7226,7.7226,7.7226,7.7226,7.7226,7.7226,7.7226,7.7226,7.7226,7.7226,7.7226,7.7226,7.7187,7.6289,7.5547,7.4687,7.3594,7.2031,7.0781,7.0312,7.0312,6.9687,7.0273,7.1133,7.1797,7.1953,7.1992,7.1953,7.1758,7.1289,7.043,6.918,6.7617,6.5937,6.4414,6.3437,6.2695,6.2383,6.1875,6.1797,6.1719,6.1719,6.1719,6.1719,6.1719,6.1719,6.1719,6.1719,6.1719,6.1719,6.1719,6.1719,6.1719,6.1719,6.1719,6.1719,6.1719,6.1719,6.1719,6.1719,6.1719,6.1719,6.1719,6.1719,6.1719,6.1719,6.1719,6.1719,6.1719,6.1523,6.1094,6.0625,6.0039,5.957,5.8789,5.8086,5.7615,5.7302,5.695,5.6793,5.6638,5.6599,5.6599,5.6599,5.6597,5.6289,5.5937,5.5616,5.5343,5.4367,5.3078,5.2529,5.2174,5.1782,5.1546,5.1464,5.1341,5.0986,5.0715,5.001,4.9109,4.8369,4.7662,4.7071,4.66,4.6376,4.6298,4.6243,4.6075,4.5635,4.5214,7.7226,7.7226,7.7226,7.7226,7.7226,7.7226,7.7226,7.7226,7.7226,7.7226,7.7187,7.7226,7.7226,7.7226,7.7226,7.7225,7.7147,7.6875,7.609,7.5347,7.4336,7.2886,7.1636,7.0582,7.0273,6.9762,7.027,7.0778,7.1133,7.1637,7.1951,7.1992,7.1953,7.1445,7.0625,6.9531,6.793,6.668,6.5156,6.4219,6.3008,6.2734,6.2226,6.1719,6.1719,6.1719,6.1719,6.1719,6.1719,6.1719,6.1719,6.1719,6.1719,6.1719,6.1719,6.1719,6.1719,6.1719,6.1719,6.1719,6.1719,6.1719,6.1719,6.1719,6.1719,6.1719,6.1719,6.1719,6.1719,6.1719,6.1719,6.1719,6.168,6.1601,6.1327,6.0936,6.0545,6.0154,5.9606,5.8862,5.8197,5.7728,5.7337,5.6945,5.675,5.6595,5.6595,5.6595,5.6631,5.663,5.6276,5.6001,5.5727,5.5373,5.4123,5.3341,5.2635,5.2165,5.1734,5.1535,5.1375,5.1375,5.1023,5.036,4.9727,4.8938,4.8145,4.739,4.6847,4.6428,4.622,4.6115,4.5946,4.5737,4.5429,7.7005,7.7044,7.7005,7.71,7.7187,7.7226,7.7226,7.7226,7.7226,7.7187,7.7147,7.7186,7.7186,7.7147,7.7184,7.7183,7.7143,7.6984,7.6357,7.5576,7.4638,7.3387,7.1942,7.0731,6.9914,6.9599,6.9599,6.9912,7.0343,7.12,7.1438,7.1597,7.1875,7.1562,7.0937,6.9453,6.8125,6.7265,6.6094,6.5195,6.3867,6.3476,6.2969,6.2305,6.2187,6.1914,6.1797,6.1719,6.1719,6.1719,6.1719,6.1719,6.1719,6.1719,6.1719,6.1718,6.1718,6.1718,6.1718,6.1719,6.1719,6.1719,6.1719,6.1719,6.1719,6.1719,6.1719,6.1719,6.1719,6.1718,6.1718,6.1717,6.1717,6.1637,6.1637,6.1324,6.1127,6.0774,6.0264,5.9637,5.9089,5.858,5.7521,5.709,5.6738,5.6623,5.6624,5.6624,5.6623,5.6619,5.658,5.6344,5.611,5.5716,5.5244,5.419,5.3137,5.2396,5.1964,5.1533,5.1375,5.1371,5.1332,5.0865,5.023,4.9463,4.8656,4.7883,4.7076,4.6277,4.6126,4.6,4.5983,4.577,4.5629,7.665,7.6597,7.6611,7.6852,7.7148,7.7187,7.7186,7.7138,7.7139,7.7137,7.705,7.7052,7.7052,7.7052,7.7041,7.7037,7.7039,7.7005,7.63,7.516,7.4564,7.3061,7.1499,7.0243,6.9681,6.9243,6.9076,6.9103,6.9392,7.0394,7.0755,7.1075,7.1542,7.1914,7.1758,7.0234,6.9023,6.8047,6.6523,6.582,6.5156,6.457,6.3828,6.3164,6.2969,6.2695,6.2109,6.1953,6.1914,6.1719,6.1719,6.1719,6.1719,6.1719,6.1718,6.1717,6.1717,6.1715,6.1711,6.1717,6.168,6.1719,6.1719,6.1719,6.1719,6.1718,6.1717,6.1716,6.1714,6.1711,6.171,6.171,6.171,6.1665,6.1662,6.1575,6.1373,6.1244,6.0681,6.0243,6.0115,5.9699,5.8248,5.7187,5.6797,5.6604,5.6608,5.6608,5.6608,5.661,5.6612,5.6534,5.6337,5.6142,5.563,5.4576,5.3639,5.2858,5.2108,5.1589,5.1305,5.1294,5.1224,5.1164,5.0699,4.9928,4.9157,4.8351,4.7227,4.613,4.6017,4.5903,4.5886,4.5801,4.559,7.6621,7.6621,7.6621,7.669,7.678,7.6785,7.6819,7.6809,7.6809,7.6804,7.676,7.676,7.676,7.6755,7.6788,7.6783,7.6777,7.6741,7.5995,7.5111,7.4461,7.3418,7.1911,7.0531,6.9663,6.9139,6.8717,6.8304,6.8199,6.9567,7.0263,7.058,7.1285,7.1802,7.168,7.0776,6.9844,6.8984,6.7812,6.6797,6.5737,6.5271,6.4764,6.3944,6.3867,6.3437,6.2617,6.2539,6.2265,6.1874,6.1796,6.1678,6.1676,6.1676,6.1675,6.1672,6.1672,6.1711,6.1665,6.1624,6.1619,6.1668,6.1672,6.1671,6.1674,6.1713,6.1712,6.167,6.1662,6.166,6.1709,6.1708,6.1663,6.1582,6.1517,6.1435,6.133,6.1261,6.1001,6.0717,6.055,5.9406,5.8077,5.7368,5.6913,5.6507,5.6471,5.6503,5.655,5.6563,5.6606,5.6606,5.6528,5.6411,5.5979,5.49,5.4063,5.3348,5.2317,5.1363,5.1199,5.1191,5.1135,5.1053,5.0768,5.0431,4.9459,4.8396,4.6908,4.5957,4.5996,4.5831,4.5696,4.5626,4.5513,7.6381,7.6381,7.6381,7.6381,7.641,7.6521,7.6614,7.6599,7.6583,7.6583,7.6622,7.6622,7.663,7.6615,7.6591,7.6613,7.6574,7.6208,7.5647,7.4831,7.3937,7.2951,7.1933,7.096,7.0052,6.9375,6.8909,6.8505,6.7836,6.9049,6.9857,7.0381,7.1135,7.1599,7.1507,7.0951,7.0069,6.9168,6.8108,6.7232,6.6381,6.5883,6.562,6.5034,6.4645,6.4336,6.3633,6.3123,6.2771,6.2222,6.1867,6.1705,6.1657,6.1605,6.1598,6.1546,6.1534,6.1527,6.1467,6.1448,6.1439,6.1471,6.154,6.1546,6.1546,6.153,6.1527,6.153,6.154,6.1537,6.1537,6.154,6.1517,6.1393,6.1367,6.1304,6.1279,6.1207,6.12,6.0939,6.0692,5.941,5.8168,5.7548,5.7047,5.6658,5.6305,5.6355,5.6429,5.6439,5.6482,5.6482,5.6471,5.6336,5.5935,5.5182,5.4416,5.3813,5.2689,5.1452,5.1053,5.1042,5.1002,5.0959,5.0752,5.0356,4.95,4.8394,4.7386,4.6599,4.6183,4.5944,4.5553,4.5448,4.5381,7.5991,7.5976,7.5976,7.602,7.6079,7.6391,7.6544,7.6566,7.6523,7.6505,7.6582,7.6516,7.6497,7.6534,7.6534,7.6438,7.6264,7.5614,7.4789,7.3974,7.3152,7.2326,7.1559,7.0726,7.0185,6.9843,6.9338,6.8577,6.782,6.8575,6.9368,7.0175,7.1054,7.1404,7.1315,7.0751,6.9935,6.9039,6.8442,6.75,6.6576,6.655,6.617,6.5707,6.5477,6.505,6.4347,6.3722,6.3219,6.2662,6.2095,6.1722,6.1491,6.1388,6.1334,6.1292,6.124,6.1253,6.1253,6.124,6.12,6.1246,6.1246,6.1265,6.1301,6.1362,6.1367,6.1351,6.1312,6.1271,6.124,6.1246,6.1253,6.1207,6.1193,6.1158,6.1174,6.1159,6.1159,6.1066,6.1058,6.0158,5.8886,5.8095,5.7335,5.6684,5.6294,5.6068,5.6142,5.6225,5.623,5.623,5.6214,5.6141,5.5707,5.523,5.4418,5.3689,5.279,5.1696,5.134,5.0918,5.082,5.0758,5.0709,5.0257,4.9423,4.8844,4.8353,4.7576,4.6666,4.5975,4.5601,4.5428,4.536,7.5976,7.5976,7.5976,7.5976,7.6005,7.6096,7.616,7.6096,7.5581,7.5543,7.6147,7.616,7.6172,7.6199,7.6147,7.5787,7.5324,7.4797,7.387,7.3085,7.2461,7.1784,7.127,7.0753,7.037,6.9996,6.9455,6.8795,6.7757,6.8154,6.9076,6.9972,7.0844,7.1154,7.1039,7.0514,6.9731,6.9018,6.8525,6.758,6.6743,6.6535,6.6283,6.6176,6.6074,6.5611,6.4982,6.4592,6.3964,6.2795,6.2479,6.2063,6.131,6.1298,6.1279,6.1253,6.12,6.1193,6.1211,6.112,6.1161,6.1173,6.1059,6.1079,6.1167,6.1264,6.125,6.1182,6.1174,6.1143,6.1136,6.1136,6.1103,6.107,6.1044,6.1057,6.102,6.0983,6.0983,6.0993,6.0983,6.048,5.9263,5.8462,5.769,5.6908,5.6329,5.5991,5.5843,5.5939,5.5993,5.5993,5.6001,5.5971,5.5758,5.5333,5.441,5.3522,5.2801,5.1983,5.1218,5.0817,5.0673,5.0606,5.0577,5.0064,4.9313,4.8974,4.892,4.7969,4.7051,4.6296,4.5684,4.5559,4.5357,7.5976,7.5938,7.563,7.5515,7.5438,7.5168,7.5322,7.5784,7.5438,7.5553,7.5938,7.5991,7.5822,7.5505,7.5428,7.5043,7.4235,7.3738,7.3083,7.2583,7.186,7.1401,7.1027,7.086,7.0631,7.0283,6.9937,6.9387,6.8167,6.8026,6.8834,6.9278,7.0382,7.0961,7.0922,7.056,6.9767,6.8984,6.8248,6.7441,6.6825,6.6291,6.6337,6.6337,6.6366,6.5977,6.5588,6.5355,6.4454,6.3524,6.3344,6.2533,6.1693,6.1367,6.1092,6.1039,6.1039,6.1262,6.1427,6.1138,6.1358,6.1499,6.1219,6.1152,6.1215,6.133,6.1137,6.102,6.1039,6.1048,6.1057,6.1009,6.0974,6.0933,6.0892,6.0899,6.0834,6.0816,6.0804,6.0816,6.0623,6.0288,5.9611,5.8808,5.7962,5.7033,5.6274,5.5801,5.5679,5.576,5.5769,5.5769,5.5807,5.5787,5.5586,5.5388,5.4705,5.4053,5.3638,5.2717,5.1475,5.0889,5.0894,5.067,5.0385,4.9947,4.958,4.9568,4.9389,4.8487,4.7837,4.7401,4.6609,4.5768,4.5566,7.5976,7.5938,7.513,7.4861,7.463,7.4168,7.4668,7.5822,7.5745,7.5861,7.5822,7.5861,7.5361,7.4745,7.4591,7.413,7.3437,7.2822,7.2437,7.2052,7.1437,7.0975,7.0937,7.0898,7.0783,7.086,7.0629,6.9898,6.8859,6.8359,6.8244,6.8552,6.9925,7.0644,7.0632,7.0272,6.9399,6.8292,6.7559,6.6822,6.6399,6.6203,6.6275,6.6251,6.6243,6.6173,6.6018,6.5638,6.5103,6.4735,6.42,6.3265,6.2431,6.1548,6.118,6.1119,6.128,6.1445,6.1753,6.1643,6.1955,6.2086,6.1897,6.1674,6.1676,6.1246,6.0987,6.091,6.0902,6.0902,6.0902,6.0902,6.0888,6.0856,6.0834,6.085,6.0827,6.0781,6.0769,6.0769,6.0681,6.0361,5.9915,5.9084,5.8162,5.7152,5.6218,5.5658,5.5543,5.5599,5.561,5.5572,5.5626,5.5668,5.556,5.534,5.5023,5.4538,5.4158,5.3127,5.1714,5.1285,5.1123,5.0753,5.0317,5.0306,5.013,5.0054,4.9824,4.9366,4.8831,4.8602,4.7761,4.6653,4.5965,7.5976,7.5976,7.5784,7.5322,7.4822,7.5207,7.5168,7.5014,7.5014,7.5014,7.5014,7.4938,7.4553,7.386,7.3783,7.3322,7.2552,7.2206,7.1783,7.1475,7.0975,7.0898,7.0898,7.0898,7.0898,7.0898,7.0706,7.0167,6.9167,6.8359,6.8167,6.9206,7.0014,7.0129,7.009,6.9706,6.8898,6.7795,6.7115,6.6533,6.6055,6.5955,6.5963,6.5986,6.5997,6.6019,6.5903,6.5843,6.5241,6.4771,6.4567,6.3904,6.3122,6.2228,6.2178,6.2435,6.205,6.2089,6.2243,6.2397,6.2704,6.2666,6.2474,6.2358,6.2024,6.1243,6.0858,6.0819,6.0781,6.0781,6.0781,6.0781,6.0781,6.0781,6.0781,6.0781,6.0769,6.0757,6.0757,6.0734,6.0722,6.0467,6.0046,5.9254,5.8359,5.7311,5.6199,5.5523,5.5476,5.5461,5.5535,5.5497,5.5508,5.552,5.5461,5.5399,5.5107,5.4788,5.4343,5.3209,5.195,5.1441,5.1047,5.0627,5.0283,5.0283,5.0283,5.0283,5.0054,4.9786,4.9522,4.9129,4.8758,4.7793,4.7013,7.4899,7.4861,7.4476,7.4053,7.3745,7.413,7.4245,7.4207,7.4168,7.3937,7.3707,7.3899,7.3707,7.3014,7.2899,7.2476,7.1783,7.1629,7.136,7.1014,7.0898,7.0898,7.0898,7.0898,7.0898,7.0821,7.0014,6.936,6.9052,6.8052,6.7821,6.8744,6.9129,6.9667,6.9667,6.936,6.8744,6.7782,6.709,6.6551,6.6051,6.5897,6.5897,6.5897,6.5897,6.5897,6.5897,6.5897,6.5628,6.514,6.4833,6.4448,6.3794,6.3101,6.2897,6.2974,6.2897,6.282,6.3089,6.3243,6.3512,6.3551,6.3089,6.2974,6.2704,6.1973,6.1166,6.1089,6.0819,6.0781,6.0781,6.0781,6.0781,6.0781,6.0746,6.0722,6.0697,6.0673,6.066,6.066,6.0648,6.0597,6.0035,5.9037,5.8207,5.7672,5.651,5.5528,5.5402,5.539,5.5415,5.5439,5.5451,5.5439,5.5453,5.539,5.5275,5.4906,5.4626,5.3708,5.2702,5.162,5.0882,5.0577,5.0386,5.0283,5.0283,5.0236,5.0271,5.0092,4.9854,4.9577,4.9184,4.8743,4.8022,7.3538,7.336,7.2745,7.2399,7.236,7.2399,7.286,7.3437,7.3399,7.2937,7.2437,7.2937,7.2629,7.2245,7.2014,7.1475,7.1168,7.1168,7.0937,7.0898,7.0898,7.0898,7.0898,7.0898,7.0898,7.0437,6.9629,6.9167,6.8859,6.7975,6.759,6.7705,6.8513,6.959,6.986,6.9898,6.9436,6.8282,6.7513,6.709,6.6513,6.5897,6.5897,6.5897,6.5897,6.5897,6.5897,6.5897,6.5897,6.5667,6.5243,6.4974,6.4551,6.4012,6.3858,6.382,6.3666,6.3858,6.4166,6.4051,6.4589,6.4782,6.4012,6.35,6.3269,6.2615,6.1808,6.1104,6.0873,6.0769,6.0769,6.0769,6.0769,6.0746,6.0697,6.066,6.0623,6.0585,6.0585,6.0623,6.061,6.061,5.9946,5.8949,5.8157,5.7647,5.6894,5.6015,5.539,5.539,5.5403,5.5403,5.5415,5.5428,5.5416,5.5377,5.5301,5.5263,5.4919,5.4218,5.3339,5.2117,5.1188,5.0768,5.0577,5.0276,5.0163,5.0088,5.0175,5.0125,4.9809,4.9473,4.937,4.8947,4.8622,7.35,7.3462,7.3322,7.3192,7.3192,7.3192,7.336,7.3346,7.2706,7.2322,7.2052,7.1514,7.1245,7.1168,7.1129,7.0975,7.0975,7.0898,7.0898,7.0898,7.0898,7.0898,7.0898,7.0898,7.0898,7.0437,6.9898,6.9552,6.9013,6.8436,6.8475,6.8975,6.8359,6.9013,6.959,6.9475,6.8898,6.8013,6.7552,6.7051,6.632,6.5897,6.5897,6.5897,6.5897,6.5897,6.5897,6.5897,6.5897,6.582,6.5705,6.5551,6.5282,6.4859,6.4705,6.4743,6.4589,6.4512,6.4666,6.4936,6.5474,6.5051,6.4423,6.4244,6.377,6.2977,6.2042,6.0942,6.0673,6.0722,6.0722,6.071,6.0697,6.0648,6.0597,6.0636,6.061,6.0597,6.0584,6.0558,6.0545,6.0403,6.0133,5.91,5.7991,5.7353,5.6435,5.5632,5.5403,5.5403,5.539,5.539,5.539,5.539,5.5403,5.5403,5.5365,5.5403,5.5224,5.4562,5.3646,5.2448,5.1634,5.0951,5.0406,5.0088,4.9986,4.983,4.9776,4.9707,4.9491,4.9265,4.9212,4.9052,4.868]}]]